ECMWFNIL_prec_pwat_027.txt.gz
Precipitable_Water
1.21 1.21 1.17 1.16 1.14 1.14 1.13 1.09 1.10 1.09 1.11 1.15 1.14 1.15 1.16 1.25 1.36 1.41 1.46 1.52 1.53 1.53 1.54 1.57 1.62 1.67 1.69 1.63 1.59 1.55 1.47 1.41 1.39 1.37 1.31 1.19 1.11 1.12 1.15 1.19 1.20 1.20
1.21 1.23 1.23 1.24 1.22 1.21 1.19 1.17 1.14 1.12 1.12 1.14 1.15 1.19 1.23 1.25 1.32 1.39 1.44 1.48 1.50 1.50 1.54 1.55 1.60 1.65 1.68 1.61 1.57 1.52 1.45 1.39 1.33 1.36 1.27 1.18 1.13 1.13 1.14 1.19 1.21 1.24
1.22 1.23 1.22 1.19 1.17 1.17 1.19 1.23 1.23 1.21 1.18 1.18 1.22 1.23 1.23 1.28 1.29 1.36 1.42 1.46 1.45 1.47 1.50 1.53 1.57 1.62 1.66 1.63 1.58 1.51 1.43 1.36 1.30 1.30 1.24 1.16 1.15 1.11 1.12 1.16 1.21 1.23
1.24 1.25 1.23 1.22 1.22 1.22 1.25 1.25 1.25 1.26 1.26 1.23 1.20 1.24 1.26 1.28 1.29 1.31 1.38 1.41 1.42 1.42 1.46 1.50 1.54 1.59 1.63 1.63 1.58 1.49 1.43 1.38 1.34 1.29 1.20 1.17 1.15 1.12 1.13 1.18 1.21 1.23
1.20 1.23 1.26 1.26 1.27 1.28 1.29 1.26 1.24 1.26 1.25 1.25 1.28 1.29 1.27 1.27 1.27 1.28 1.34 1.36 1.39 1.39 1.41 1.44 1.53 1.57 1.61 1.61 1.57 1.45 1.40 1.35 1.33 1.27 1.18 1.12 1.13 1.12 1.14 1.18 1.19 1.19
1.24 1.25 1.27 1.27 1.29 1.29 1.28 1.26 1.27 1.28 1.29 1.29 1.27 1.30 1.28 1.29 1.27 1.26 1.28 1.31 1.35 1.35 1.36 1.39 1.47 1.55 1.59 1.58 1.54 1.45 1.38 1.33 1.29 1.24 1.16 1.11 1.10 1.13 1.14 1.16 1.18 1.18
1.23 1.25 1.25 1.28 1.29 1.30 1.29 1.30 1.31 1.33 1.33 1.33 1.36 1.31 1.31 1.29 1.27 1.25 1.26 1.29 1.32 1.32 1.32 1.34 1.39 1.48 1.55 1.55 1.50 1.42 1.37 1.33 1.29 1.24 1.18 1.15 1.12 1.10 1.14 1.15 1.19 1.21
1.32 1.29 1.27 1.28 1.26 1.29 1.28 1.31 1.33 1.35 1.38 1.39 1.34 1.34 1.34 1.30 1.29 1.29 1.28 1.29 1.29 1.30 1.31 1.33 1.37 1.45 1.51 1.51 1.45 1.39 1.35 1.33 1.28 1.23 1.20 1.18 1.15 1.12 1.12 1.14 1.17 1.19
1.48 1.39 1.33 1.29 1.26 1.28 1.28 1.32 1.37 1.40 1.44 1.39 1.37 1.36 1.36 1.33 1.31 1.30 1.29 1.28 1.27 1.28 1.30 1.30 1.34 1.41 1.50 1.48 1.43 1.39 1.32 1.27 1.25 1.23 1.20 1.18 1.16 1.16 1.15 1.14 1.14 1.17
1.52 1.48 1.43 1.38 1.34 1.36 1.36 1.38 1.41 1.43 1.46 1.44 1.42 1.39 1.33 1.33 1.34 1.32 1.31 1.27 1.24 1.25 1.28 1.27 1.31 1.38 1.46 1.48 1.43 1.38 1.33 1.28 1.25 1.22 1.21 1.20 1.20 1.20 1.18 1.16 1.15 1.17
1.46 1.47 1.45 1.45 1.43 1.45 1.44 1.46 1.48 1.48 1.49 1.46 1.45 1.40 1.37 1.33 1.32 1.34 1.30 1.27 1.23 1.23 1.24 1.25 1.30 1.36 1.41 1.44 1.43 1.40 1.35 1.30 1.26 1.22 1.20 1.21 1.23 1.23 1.21 1.21 1.21 1.20
1.43 1.43 1.43 1.46 1.48 1.50 1.51 1.52 1.54 1.54 1.53 1.50 1.46 1.40 1.38 1.34 1.29 1.29 1.27 1.25 1.25 1.24 1.23 1.25 1.31 1.36 1.40 1.41 1.40 1.38 1.35 1.32 1.29 1.25 1.23 1.23 1.25 1.27 1.26 1.26 1.26 1.25
1.41 1.40 1.44 1.48 1.51 1.53 1.57 1.58 1.58 1.58 1.56 1.52 1.50 1.44 1.39 1.34 1.31 1.28 1.29 1.28 1.27 1.27 1.25 1.26 1.29 1.39 1.41 1.40 1.40 1.37 1.33 1.30 1.28 1.27 1.26 1.26 1.27 1.30 1.31 1.32 1.33 1.32
1.40 1.43 1.46 1.50 1.54 1.57 1.58 1.60 1.61 1.61 1.59 1.58 1.55 1.47 1.41 1.36 1.31 1.29 1.30 1.31 1.31 1.30 1.29 1.30 1.32 1.37 1.40 1.41 1.38 1.34 1.31 1.29 1.27 1.26 1.26 1.28 1.30 1.34 1.35 1.35 1.36 1.36
1.42 1.47 1.49 1.52 1.54 1.56 1.57 1.58 1.60 1.61 1.62 1.61 1.56 1.49 1.45 1.39 1.36 1.33 1.31 1.30 1.32 1.31 1.29 1.31 1.32 1.36 1.41 1.40 1.35 1.31 1.31 1.28 1.27 1.26 1.26 1.26 1.30 1.34 1.37 1.37 1.37 1.37
1.42 1.45 1.47 1.50 1.51 1.51 1.55 1.58 1.60 1.61 1.61 1.59 1.57 1.53 1.48 1.43 1.37 1.34 1.31 1.29 1.28 1.27 1.28 1.28 1.31 1.38 1.41 1.39 1.35 1.30 1.28 1.29 1.29 1.28 1.27 1.27 1.28 1.31 1.35 1.37 1.37 1.37
1.39 1.40 1.44 1.45 1.47 1.52 1.55 1.58 1.60 1.63 1.61 1.60 1.59 1.56 1.51 1.45 1.38 1.31 1.29 1.30 1.27 1.24 1.22 1.23 1.29 1.35 1.39 1.37 1.33 1.31 1.31 1.30 1.28 1.29 1.31 1.31 1.30 1.29 1.29 1.33 1.36 1.39
1.37 1.40 1.41 1.42 1.47 1.48 1.52 1.57 1.62 1.63 1.62 1.61 1.59 1.56 1.54 1.50 1.39 1.32 1.31 1.29 1.27 1.25 1.22 1.22 1.25 1.30 1.35 1.34 1.33 1.31 1.31 1.32 1.33 1.33 1.34 1.35 1.34 1.32 1.31 1.32 1.35 1.39
1.40 1.40 1.40 1.44 1.46 1.50 1.55 1.58 1.60 1.60 1.61 1.61 1.59 1.60 1.56 1.48 1.42 1.37 1.31 1.31 1.28 1.22 1.20 1.22 1.23 1.27 1.29 1.31 1.31 1.30 1.30 1.33 1.35 1.37 1.38 1.38 1.38 1.36 1.33 1.33 1.34 1.37
1.40 1.40 1.41 1.43 1.48 1.52 1.55 1.55 1.56 1.55 1.60 1.64 1.66 1.67 1.59 1.51 1.47 1.39 1.34 1.32 1.30 1.27 1.23 1.22 1.20 1.24 1.26 1.29 1.31 1.29 1.29 1.32 1.35 1.38 1.41 1.43 1.42 1.39 1.38 1.36 1.36 1.35
1.38 1.40 1.42 1.46 1.50 1.53 1.54 1.53 1.53 1.55 1.59 1.63 1.65 1.65 1.64 1.57 1.50 1.44 1.39 1.35 1.34 1.31 1.26 1.21 1.20 1.24 1.23 1.26 1.30 1.30 1.29 1.31 1.37 1.40 1.42 1.44 1.45 1.44 1.42 1.41 1.41 1.40
1.41 1.42 1.45 1.50 1.52 1.55 1.55 1.55 1.57 1.56 1.56 1.63 1.66 1.68 1.71 1.72 1.67 1.56 1.45 1.39 1.37 1.33 1.26 1.18 1.20 1.22 1.20 1.23 1.28 1.32 1.32 1.32 1.36 1.38 1.38 1.40 1.42 1.44 1.43 1.44 1.45 1.44
1.48 1.48 1.49 1.50 1.53 1.53 1.53 1.55 1.57 1.58 1.61 1.66 1.63 1.63 1.64 1.67 1.65 1.59 1.56 1.49 1.42 1.37 1.28 1.20 1.18 1.19 1.19 1.20 1.25 1.33 1.35 1.34 1.35 1.37 1.38 1.38 1.40 1.42 1.43 1.44 1.45 1.46
1.44 1.46 1.46 1.47 1.49 1.46 1.47 1.51 1.56 1.61 1.61 1.64 1.57 1.57 1.58 1.59 1.66 1.68 1.64 1.56 1.47 1.39 1.33 1.24 1.18 1.20 1.19 1.18 1.23 1.30 1.34 1.34 1.35 1.36 1.36 1.38 1.39 1.43 1.44 1.44 1.45 1.46
1.43 1.45 1.44 1.45 1.43 1.43 1.48 1.51 1.55 1.57 1.62 1.67 1.63 1.65 1.64 1.67 1.69 1.67 1.65 1.62 1.54 1.46 1.42 1.34 1.25 1.24 1.22 1.19 1.21 1.26 1.34 1.40 1.40 1.38 1.34 1.35 1.36 1.38 1.42 1.43 1.45 1.48
1.49 1.49 1.48 1.45 1.43 1.47 1.50 1.52 1.57 1.60 1.59 1.59 1.61 1.63 1.64 1.70 1.70 1.65 1.63 1.62 1.61 1.55 1.49 1.42 1.34 1.29 1.24 1.21 1.22 1.26 1.34 1.42 1.44 1.38 1.32 1.32 1.35 1.36 1.36 1.39 1.43 1.48

ECMWFNIL_prec_pwat_030.txt.gz
Precipitable_Water
1.16 1.15 1.12 1.11 1.11 1.11 1.12 1.11 1.12 1.12 1.13 1.16 1.16 1.19 1.18 1.23 1.27 1.32 1.39 1.45 1.47 1.47 1.51 1.50 1.50 1.52 1.57 1.61 1.63 1.62 1.62 1.60 1.52 1.48 1.41 1.35 1.29 1.21 1.12 1.18 1.23 1.27
1.18 1.17 1.17 1.16 1.16 1.16 1.14 1.16 1.16 1.14 1.14 1.14 1.17 1.23 1.26 1.26 1.29 1.28 1.32 1.38 1.44 1.45 1.50 1.51 1.48 1.50 1.52 1.56 1.58 1.56 1.57 1.57 1.51 1.49 1.39 1.34 1.30 1.24 1.14 1.17 1.22 1.30
1.18 1.18 1.17 1.12 1.13 1.13 1.12 1.18 1.20 1.20 1.19 1.20 1.22 1.22 1.25 1.29 1.29 1.29 1.29 1.33 1.38 1.44 1.49 1.52 1.51 1.50 1.50 1.56 1.58 1.55 1.53 1.53 1.48 1.46 1.39 1.34 1.33 1.25 1.17 1.18 1.22 1.28
1.18 1.23 1.21 1.20 1.25 1.22 1.22 1.21 1.22 1.23 1.25 1.24 1.22 1.24 1.26 1.29 1.30 1.29 1.28 1.28 1.33 1.40 1.48 1.53 1.51 1.52 1.50 1.53 1.58 1.54 1.51 1.50 1.51 1.47 1.39 1.36 1.34 1.31 1.19 1.17 1.24 1.31
1.18 1.20 1.25 1.29 1.32 1.29 1.29 1.25 1.22 1.24 1.23 1.25 1.29 1.31 1.29 1.27 1.29 1.29 1.26 1.24 1.26 1.35 1.44 1.48 1.50 1.51 1.53 1.51 1.54 1.51 1.48 1.46 1.49 1.47 1.39 1.32 1.34 1.31 1.23 1.17 1.17 1.21
1.21 1.23 1.27 1.34 1.35 1.29 1.28 1.26 1.26 1.27 1.27 1.27 1.27 1.34 1.33 1.32 1.29 1.27 1.28 1.24 1.24 1.27 1.36 1.45 1.45 1.44 1.51 1.51 1.51 1.51 1.48 1.41 1.43 1.44 1.35 1.29 1.30 1.31 1.22 1.19 1.17 1.16
1.18 1.22 1.25 1.30 1.33 1.30 1.28 1.30 1.31 1.31 1.31 1.32 1.35 1.33 1.35 1.34 1.30 1.27 1.27 1.27 1.24 1.24 1.28 1.37 1.41 1.40 1.46 1.50 1.47 1.47 1.49 1.45 1.42 1.38 1.30 1.27 1.28 1.27 1.20 1.17 1.17 1.15
1.19 1.24 1.26 1.30 1.29 1.28 1.27 1.29 1.30 1.31 1.32 1.34 1.32 1.34 1.37 1.35 1.34 1.33 1.29 1.28 1.25 1.25 1.25 1.31 1.37 1.38 1.42 1.47 1.42 1.42 1.45 1.48 1.41 1.35 1.29 1.25 1.26 1.23 1.17 1.17 1.16 1.11
1.27 1.27 1.27 1.27 1.26 1.26 1.24 1.25 1.28 1.30 1.33 1.30 1.30 1.32 1.37 1.36 1.36 1.35 1.32 1.29 1.27 1.26 1.26 1.27 1.33 1.35 1.40 1.45 1.40 1.39 1.42 1.45 1.41 1.34 1.25 1.21 1.21 1.21 1.18 1.18 1.14 1.11
1.36 1.34 1.32 1.28 1.22 1.21 1.20 1.23 1.26 1.28 1.30 1.29 1.30 1.33 1.35 1.38 1.39 1.38 1.36 1.32 1.28 1.27 1.27 1.27 1.30 1.33 1.35 1.40 1.42 1.40 1.41 1.45 1.43 1.36 1.28 1.23 1.21 1.20 1.18 1.17 1.14 1.10
1.46 1.47 1.42 1.39 1.32 1.27 1.24 1.25 1.27 1.28 1.30 1.27 1.27 1.28 1.33 1.37 1.37 1.40 1.37 1.34 1.28 1.26 1.26 1.26 1.28 1.30 1.29 1.31 1.38 1.43 1.43 1.46 1.47 1.40 1.32 1.27 1.25 1.23 1.21 1.20 1.18 1.13
1.49 1.51 1.50 1.49 1.45 1.44 1.41 1.38 1.34 1.31 1.31 1.32 1.29 1.28 1.32 1.38 1.37 1.36 1.35 1.33 1.31 1.30 1.29 1.27 1.30 1.30 1.28 1.28 1.32 1.38 1.40 1.45 1.51 1.46 1.36 1.29 1.26 1.26 1.23 1.23 1.22 1.20
1.45 1.47 1.48 1.48 1.47 1.47 1.50 1.49 1.44 1.42 1.41 1.39 1.39 1.36 1.36 1.37 1.42 1.40 1.39 1.37 1.35 1.34 1.32 1.31 1.31 1.31 1.29 1.29 1.30 1.36 1.37 1.39 1.48 1.49 1.40 1.32 1.28 1.26 1.25 1.24 1.24 1.26
1.44 1.48 1.50 1.48 1.47 1.50 1.51 1.51 1.52 1.50 1.50 1.51 1.52 1.48 1.46 1.46 1.45 1.44 1.45 1.44 1.41 1.38 1.36 1.37 1.35 1.32 1.30 1.29 1.29 1.33 1.36 1.36 1.44 1.47 1.41 1.35 1.29 1.27 1.25 1.23 1.24 1.27
1.50 1.52 1.54 1.52 1.48 1.48 1.49 1.50 1.52 1.54 1.55 1.56 1.58 1.58 1.58 1.58 1.58 1.56 1.52 1.48 1.46 1.43 1.40 1.38 1.36 1.34 1.32 1.28 1.26 1.30 1.34 1.32 1.41 1.44 1.41 1.36 1.30 1.26 1.24 1.22 1.24 1.27
1.52 1.54 1.53 1.53 1.49 1.44 1.45 1.50 1.53 1.55 1.56 1.56 1.58 1.61 1.63 1.65 1.64 1.65 1.61 1.54 1.48 1.45 1.43 1.39 1.36 1.37 1.33 1.29 1.28 1.27 1.28 1.32 1.41 1.44 1.41 1.38 1.32 1.26 1.23 1.23 1.24 1.26
1.52 1.53 1.54 1.50 1.47 1.46 1.48 1.49 1.51 1.55 1.56 1.56 1.58 1.62 1.64 1.66 1.67 1.65 1.63 1.62 1.56 1.50 1.44 1.40 1.35 1.34 1.33 1.29 1.26 1.24 1.28 1.32 1.36 1.41 1.39 1.38 1.35 1.27 1.20 1.21 1.24 1.27
1.49 1.53 1.53 1.50 1.50 1.48 1.48 1.50 1.52 1.53 1.54 1.55 1.57 1.59 1.65 1.69 1.66 1.66 1.66 1.66 1.65 1.59 1.51 1.45 1.38 1.31 1.28 1.26 1.25 1.24 1.26 1.29 1.37 1.42 1.37 1.34 1.33 1.30 1.25 1.23 1.23 1.26
1.50 1.50 1.50 1.49 1.47 1.47 1.51 1.53 1.52 1.51 1.52 1.54 1.55 1.62 1.68 1.67 1.67 1.69 1.67 1.69 1.67 1.61 1.55 1.51 1.45 1.38 1.27 1.25 1.24 1.24 1.25 1.27 1.36 1.39 1.36 1.33 1.32 1.31 1.28 1.24 1.24 1.25
1.47 1.46 1.45 1.46 1.50 1.52 1.54 1.54 1.53 1.50 1.53 1.59 1.62 1.66 1.65 1.66 1.69 1.70 1.71 1.67 1.66 1.66 1.61 1.56 1.50 1.44 1.34 1.26 1.24 1.23 1.23 1.25 1.30 1.38 1.39 1.38 1.35 1.32 1.31 1.29 1.27 1.25
1.40 1.42 1.43 1.47 1.51 1.53 1.53 1.53 1.53 1.54 1.56 1.59 1.61 1.62 1.61 1.63 1.65 1.64 1.69 1.66 1.67 1.70 1.66 1.58 1.56 1.51 1.39 1.29 1.24 1.22 1.21 1.23 1.28 1.36 1.40 1.40 1.41 1.38 1.35 1.33 1.34 1.33
1.36 1.37 1.39 1.43 1.46 1.48 1.47 1.47 1.50 1.51 1.51 1.58 1.61 1.64 1.67 1.68 1.69 1.70 1.64 1.67 1.73 1.72 1.65 1.56 1.58 1.55 1.44 1.33 1.25 1.22 1.21 1.22 1.26 1.30 1.34 1.38 1.41 1.41 1.40 1.40 1.41 1.40
1.35 1.35 1.35 1.38 1.42 1.43 1.42 1.44 1.46 1.50 1.56 1.63 1.60 1.60 1.62 1.64 1.64 1.65 1.66 1.70 1.70 1.69 1.66 1.60 1.59 1.57 1.48 1.37 1.28 1.23 1.23 1.22 1.23 1.25 1.29 1.33 1.35 1.38 1.40 1.42 1.45 1.44
1.36 1.36 1.35 1.37 1.39 1.38 1.39 1.43 1.50 1.57 1.60 1.66 1.61 1.61 1.61 1.65 1.70 1.70 1.70 1.70 1.68 1.68 1.68 1.65 1.63 1.62 1.54 1.45 1.36 1.28 1.25 1.23 1.22 1.22 1.22 1.27 1.31 1.34 1.38 1.41 1.42 1.43
1.39 1.39 1.38 1.37 1.37 1.39 1.44 1.46 1.50 1.54 1.61 1.68 1.66 1.66 1.66 1.70 1.73 1.70 1.70 1.72 1.71 1.70 1.73 1.71 1.69 1.69 1.63 1.51 1.43 1.36 1.31 1.29 1.27 1.23 1.19 1.22 1.25 1.26 1.34 1.41 1.43 1.43
1.39 1.37 1.38 1.37 1.37 1.43 1.49 1.50 1.56 1.59 1.62 1.64 1.66 1.66 1.64 1.66 1.67 1.66 1.65 1.65 1.68 1.71 1.71 1.71 1.70 1.72 1.71 1.63 1.51 1.43 1.37 1.34 1.32 1.24 1.14 1.17 1.21 1.24 1.26 1.33 1.40 1.45

ECMWFNIL_prec_pwat_033.txt.gz
Precipitable_Water
1.10 1.08 1.05 1.02 1.03 1.05 1.07 1.12 1.19 1.18 1.15 1.15 1.13 1.15 1.14 1.18 1.23 1.29 1.39 1.45 1.48 1.49 1.51 1.51 1.60 1.63 1.62 1.64 1.72 1.72 1.70 1.70 1.65 1.61 1.52 1.40 1.37 1.36 1.26 1.20 1.26 1.28
1.08 1.09 1.08 1.06 1.05 1.07 1.09 1.12 1.16 1.17 1.17 1.14 1.14 1.20 1.24 1.23 1.24 1.23 1.27 1.33 1.41 1.45 1.49 1.52 1.54 1.59 1.57 1.55 1.61 1.64 1.66 1.66 1.63 1.65 1.54 1.42 1.38 1.36 1.30 1.23 1.24 1.29
1.06 1.07 1.04 1.00 0.99 1.01 1.03 1.10 1.14 1.18 1.18 1.19 1.18 1.17 1.24 1.29 1.28 1.28 1.24 1.26 1.32 1.38 1.43 1.47 1.52 1.56 1.55 1.50 1.51 1.54 1.57 1.61 1.59 1.62 1.58 1.45 1.39 1.36 1.35 1.27 1.22 1.27
1.04 1.02 1.02 1.02 1.02 1.05 1.09 1.10 1.12 1.16 1.18 1.19 1.17 1.17 1.19 1.29 1.33 1.32 1.29 1.27 1.27 1.30 1.36 1.41 1.45 1.51 1.54 1.51 1.45 1.44 1.51 1.58 1.61 1.61 1.54 1.48 1.40 1.37 1.34 1.29 1.24 1.29
1.01 1.02 1.04 1.07 1.10 1.13 1.18 1.13 1.11 1.14 1.14 1.16 1.21 1.23 1.20 1.22 1.31 1.35 1.35 1.31 1.29 1.28 1.28 1.31 1.39 1.45 1.51 1.53 1.49 1.41 1.45 1.54 1.61 1.60 1.51 1.44 1.41 1.36 1.36 1.28 1.24 1.24
1.04 1.05 1.04 1.08 1.15 1.17 1.19 1.16 1.14 1.17 1.19 1.18 1.18 1.25 1.25 1.26 1.26 1.31 1.37 1.36 1.32 1.28 1.25 1.27 1.32 1.38 1.47 1.51 1.53 1.46 1.43 1.46 1.55 1.57 1.49 1.42 1.41 1.39 1.35 1.30 1.22 1.22
0.98 1.04 1.06 1.12 1.16 1.21 1.17 1.20 1.21 1.20 1.24 1.25 1.27 1.25 1.28 1.29 1.27 1.29 1.34 1.39 1.37 1.32 1.27 1.26 1.29 1.32 1.40 1.48 1.53 1.47 1.45 1.45 1.50 1.55 1.49 1.43 1.38 1.37 1.35 1.31 1.21 1.18
1.02 1.08 1.09 1.11 1.13 1.18 1.20 1.23 1.24 1.24 1.26 1.30 1.27 1.29 1.33 1.32 1.31 1.33 1.35 1.38 1.38 1.37 1.32 1.31 1.32 1.30 1.34 1.39 1.47 1.47 1.45 1.47 1.46 1.47 1.48 1.43 1.38 1.32 1.35 1.32 1.24 1.14
1.03 1.09 1.10 1.11 1.13 1.16 1.19 1.23 1.26 1.29 1.33 1.29 1.26 1.31 1.35 1.34 1.37 1.36 1.37 1.37 1.37 1.38 1.39 1.34 1.35 1.31 1.30 1.32 1.38 1.42 1.41 1.43 1.47 1.46 1.45 1.41 1.35 1.31 1.31 1.33 1.25 1.18
1.03 1.06 1.10 1.12 1.11 1.15 1.16 1.20 1.24 1.30 1.32 1.28 1.26 1.26 1.32 1.35 1.37 1.39 1.41 1.37 1.35 1.35 1.38 1.35 1.34 1.34 1.30 1.27 1.29 1.35 1.38 1.39 1.44 1.48 1.48 1.44 1.38 1.34 1.31 1.29 1.25 1.19
1.05 1.06 1.07 1.09 1.11 1.12 1.14 1.18 1.22 1.29 1.33 1.28 1.25 1.20 1.26 1.36 1.35 1.38 1.39 1.38 1.33 1.31 1.32 1.33 1.33 1.33 1.29 1.25 1.26 1.29 1.33 1.36 1.41 1.46 1.47 1.46 1.45 1.42 1.36 1.31 1.25 1.19
1.11 1.11 1.10 1.11 1.11 1.13 1.13 1.17 1.21 1.26 1.32 1.33 1.25 1.19 1.18 1.29 1.33 1.31 1.33 1.32 1.30 1.30 1.31 1.32 1.33 1.33 1.29 1.25 1.22 1.25 1.28 1.31 1.37 1.45 1.49 1.48 1.48 1.46 1.42 1.38 1.29 1.21
1.18 1.17 1.19 1.20 1.20 1.18 1.19 1.22 1.23 1.25 1.27 1.30 1.31 1.24 1.21 1.20 1.33 1.34 1.33 1.35 1.34 1.32 1.31 1.33 1.33 1.33 1.32 1.27 1.22 1.23 1.25 1.26 1.29 1.36 1.43 1.48 1.50 1.50 1.48 1.43 1.35 1.28
1.23 1.30 1.30 1.31 1.33 1.34 1.30 1.30 1.29 1.29 1.30 1.35 1.43 1.37 1.30 1.27 1.29 1.38 1.37 1.38 1.40 1.38 1.36 1.38 1.36 1.35 1.34 1.32 1.25 1.22 1.25 1.26 1.26 1.27 1.31 1.38 1.44 1.52 1.54 1.48 1.41 1.33
1.34 1.40 1.45 1.41 1.44 1.43 1.42 1.38 1.41 1.40 1.42 1.47 1.52 1.54 1.48 1.43 1.40 1.45 1.45 1.40 1.42 1.44 1.42 1.42 1.40 1.37 1.37 1.35 1.29 1.24 1.23 1.26 1.27 1.24 1.24 1.26 1.35 1.45 1.55 1.55 1.48 1.40
1.47 1.45 1.48 1.53 1.50 1.50 1.51 1.50 1.45 1.50 1.51 1.53 1.58 1.63 1.61 1.60 1.59 1.58 1.60 1.54 1.45 1.46 1.48 1.46 1.45 1.45 1.41 1.38 1.34 1.28 1.23 1.23 1.28 1.28 1.23 1.22 1.25 1.33 1.45 1.56 1.49 1.43
1.58 1.48 1.49 1.52 1.55 1.55 1.58 1.58 1.55 1.53 1.53 1.54 1.55 1.61 1.67 1.67 1.64 1.63 1.67 1.69 1.64 1.57 1.54 1.52 1.53 1.53 1.48 1.41 1.37 1.32 1.30 1.25 1.23 1.28 1.26 1.20 1.21 1.27 1.35 1.46 1.46 1.43
1.62 1.55 1.48 1.49 1.56 1.57 1.59 1.60 1.60 1.56 1.55 1.55 1.55 1.55 1.62 1.68 1.64 1.63 1.65 1.69 1.73 1.71 1.66 1.64 1.62 1.61 1.59 1.52 1.45 1.38 1.33 1.31 1.29 1.27 1.27 1.24 1.20 1.23 1.32 1.41 1.40 1.38
1.64 1.58 1.49 1.47 1.51 1.57 1.61 1.66 1.62 1.57 1.54 1.54 1.53 1.56 1.60 1.58 1.58 1.60 1.60 1.66 1.69 1.71 1.70 1.72 1.72 1.72 1.66 1.62 1.55 1.49 1.43 1.36 1.34 1.31 1.29 1.27 1.24 1.24 1.30 1.36 1.34 1.33
1.57 1.54 1.50 1.46 1.50 1.57 1.61 1.62 1.61 1.55 1.51 1.52 1.54 1.56 1.53 1.54 1.57 1.57 1.59 1.62 1.64 1.68 1.71 1.74 1.74 1.77 1.73 1.68 1.64 1.58 1.52 1.46 1.40 1.37 1.33 1.29 1.27 1.29 1.33 1.32 1.30 1.29
1.54 1.51 1.49 1.49 1.50 1.53 1.55 1.54 1.53 1.50 1.48 1.50 1.52 1.51 1.50 1.50 1.54 1.56 1.59 1.61 1.64 1.67 1.70 1.71 1.73 1.78 1.77 1.73 1.69 1.65 1.60 1.55 1.52 1.47 1.41 1.34 1.32 1.35 1.38 1.34 1.29 1.31
1.53 1.50 1.49 1.50 1.50 1.48 1.47 1.45 1.47 1.47 1.45 1.51 1.53 1.56 1.59 1.60 1.60 1.60 1.58 1.60 1.64 1.65 1.64 1.62 1.69 1.76 1.74 1.74 1.72 1.68 1.64 1.60 1.57 1.52 1.45 1.40 1.39 1.40 1.40 1.37 1.34 1.35
1.53 1.50 1.48 1.47 1.48 1.45 1.43 1.44 1.46 1.49 1.53 1.57 1.53 1.52 1.54 1.55 1.55 1.59 1.64 1.65 1.65 1.64 1.58 1.57 1.66 1.75 1.73 1.72 1.74 1.74 1.70 1.65 1.59 1.55 1.51 1.46 1.44 1.47 1.44 1.38 1.33 1.39
1.48 1.48 1.45 1.45 1.46 1.42 1.41 1.45 1.50 1.55 1.56 1.58 1.52 1.50 1.51 1.56 1.63 1.65 1.68 1.67 1.64 1.62 1.63 1.61 1.64 1.72 1.72 1.72 1.73 1.75 1.74 1.71 1.66 1.57 1.50 1.48 1.46 1.48 1.49 1.45 1.40 1.36
1.50 1.50 1.47 1.44 1.41 1.42 1.45 1.46 1.48 1.52 1.59 1.63 1.60 1.59 1.57 1.62 1.68 1.66 1.67 1.70 1.69 1.69 1.71 1.66 1.64 1.69 1.69 1.68 1.69 1.71 1.74 1.76 1.76 1.68 1.54 1.48 1.44 1.44 1.49 1.48 1.48 1.45
1.49 1.46 1.45 1.43 1.42 1.47 1.53 1.54 1.59 1.61 1.61 1.62 1.63 1.64 1.63 1.63 1.63 1.64 1.65 1.69 1.74 1.72 1.71 1.67 1.63 1.66 1.69 1.67 1.66 1.66 1.69 1.74 1.77 1.69 1.59 1.50 1.46 1.45 1.43 1.45 1.46 1.48

ECMWFNIL_prec_pwat_036.txt.gz
Precipitable_Water
1.09 1.07 1.05 1.03 1.02 1.00 0.99 1.03 1.09 1.11 1.13 1.18 1.14 1.14 1.14 1.21 1.28 1.31 1.36 1.43 1.41 1.40 1.42 1.46 1.51 1.60 1.67 1.67 1.67 1.69 1.68 1.69 1.69 1.67 1.58 1.47 1.37 1.30 1.17 1.07 1.07 1.21
1.05 1.07 1.06 1.06 1.03 1.01 1.01 1.01 1.05 1.10 1.14 1.19 1.20 1.21 1.20 1.23 1.26 1.27 1.28 1.32 1.39 1.40 1.43 1.45 1.47 1.49 1.55 1.60 1.62 1.62 1.63 1.64 1.63 1.68 1.60 1.50 1.42 1.32 1.26 1.15 1.13 1.18
1.06 1.06 1.04 0.99 0.96 0.96 0.97 1.00 1.02 1.10 1.17 1.20 1.24 1.26 1.26 1.25 1.24 1.24 1.28 1.27 1.30 1.36 1.42 1.44 1.46 1.47 1.49 1.53 1.58 1.57 1.57 1.57 1.56 1.61 1.59 1.54 1.48 1.35 1.30 1.30 1.18 1.15
1.03 1.03 1.01 0.98 0.96 0.94 0.95 0.96 0.96 1.05 1.15 1.21 1.19 1.22 1.25 1.26 1.26 1.26 1.25 1.28 1.27 1.28 1.34 1.38 1.40 1.45 1.47 1.50 1.52 1.53 1.54 1.54 1.56 1.60 1.55 1.56 1.52 1.43 1.34 1.33 1.29 1.19
0.99 1.00 1.02 0.99 0.98 0.96 0.96 0.91 0.92 0.97 1.05 1.13 1.22 1.23 1.20 1.23 1.27 1.27 1.26 1.27 1.28 1.29 1.32 1.32 1.35 1.37 1.42 1.46 1.49 1.49 1.52 1.50 1.53 1.55 1.51 1.48 1.50 1.46 1.41 1.34 1.30 1.23
0.98 0.99 1.00 0.99 0.96 0.95 0.94 0.92 0.92 0.97 1.01 1.08 1.18 1.25 1.23 1.21 1.26 1.26 1.28 1.28 1.29 1.30 1.32 1.34 1.33 1.32 1.35 1.38 1.44 1.47 1.50 1.49 1.50 1.51 1.46 1.41 1.43 1.46 1.43 1.37 1.28 1.23
0.94 0.97 0.98 1.01 1.00 0.98 0.95 0.97 0.99 1.02 1.08 1.13 1.19 1.20 1.23 1.21 1.18 1.22 1.29 1.33 1.32 1.31 1.32 1.35 1.33 1.30 1.31 1.30 1.31 1.35 1.43 1.45 1.49 1.51 1.45 1.44 1.42 1.39 1.41 1.38 1.29 1.22
0.92 0.95 0.96 0.98 0.98 0.97 0.98 1.01 1.06 1.09 1.11 1.19 1.18 1.19 1.22 1.22 1.19 1.20 1.28 1.36 1.35 1.34 1.34 1.37 1.37 1.32 1.31 1.32 1.24 1.21 1.27 1.38 1.40 1.45 1.44 1.44 1.44 1.37 1.37 1.38 1.34 1.22
0.92 0.92 0.93 0.95 0.96 0.98 0.98 0.99 1.07 1.13 1.16 1.18 1.20 1.24 1.27 1.26 1.25 1.21 1.22 1.30 1.34 1.38 1.37 1.34 1.34 1.32 1.33 1.30 1.27 1.21 1.16 1.22 1.29 1.38 1.39 1.39 1.40 1.37 1.37 1.40 1.37 1.28
0.91 0.96 0.94 0.93 0.97 1.01 1.00 1.00 1.09 1.13 1.17 1.18 1.22 1.27 1.27 1.24 1.26 1.25 1.24 1.25 1.29 1.36 1.38 1.33 1.32 1.32 1.31 1.32 1.30 1.27 1.20 1.14 1.16 1.27 1.36 1.37 1.39 1.40 1.37 1.36 1.35 1.33
0.91 0.97 0.98 0.97 0.98 0.99 1.01 1.02 1.09 1.14 1.18 1.16 1.20 1.21 1.26 1.24 1.22 1.27 1.27 1.26 1.25 1.28 1.34 1.35 1.32 1.33 1.31 1.31 1.33 1.32 1.26 1.19 1.14 1.16 1.26 1.35 1.39 1.42 1.42 1.37 1.35 1.34
0.91 0.95 0.96 0.99 0.98 0.99 1.00 1.05 1.11 1.13 1.18 1.20 1.24 1.17 1.18 1.21 1.21 1.21 1.24 1.22 1.22 1.25 1.30 1.34 1.36 1.34 1.31 1.28 1.28 1.30 1.28 1.24 1.20 1.17 1.17 1.24 1.34 1.39 1.42 1.42 1.39 1.38
0.93 0.91 0.95 1.00 0.99 1.03 1.03 1.08 1.12 1.13 1.19 1.22 1.20 1.19 1.15 1.14 1.22 1.18 1.21 1.22 1.22 1.23 1.25 1.30 1.33 1.32 1.31 1.30 1.28 1.28 1.27 1.23 1.21 1.19 1.17 1.18 1.23 1.30 1.37 1.41 1.42 1.43
1.00 0.95 0.95 0.99 1.02 1.02 1.06 1.10 1.09 1.15 1.19 1.23 1.28 1.23 1.22 1.16 1.18 1.22 1.21 1.25 1.28 1.27 1.29 1.33 1.34 1.34 1.33 1.33 1.31 1.29 1.29 1.26 1.22 1.20 1.18 1.17 1.18 1.23 1.29 1.35 1.39 1.41
1.19 1.10 1.03 1.02 1.05 1.06 1.06 1.10 1.13 1.16 1.19 1.21 1.28 1.30 1.29 1.27 1.26 1.34 1.34 1.30 1.32 1.34 1.33 1.35 1.35 1.35 1.35 1.34 1.32 1.31 1.31 1.29 1.26 1.23 1.23 1.21 1.19 1.20 1.23 1.29 1.34 1.38
1.43 1.31 1.17 1.11 1.11 1.11 1.10 1.13 1.17 1.20 1.21 1.22 1.28 1.34 1.34 1.36 1.35 1.36 1.44 1.42 1.37 1.38 1.39 1.40 1.39 1.40 1.38 1.37 1.35 1.32 1.29 1.28 1.29 1.28 1.27 1.26 1.23 1.21 1.22 1.25 1.27 1.32
1.50 1.47 1.40 1.27 1.22 1.20 1.21 1.22 1.24 1.25 1.25 1.27 1.31 1.38 1.42 1.44 1.47 1.45 1.44 1.53 1.55 1.51 1.48 1.47 1.45 1.46 1.43 1.41 1.40 1.39 1.37 1.33 1.29 1.28 1.28 1.25 1.24 1.22 1.19 1.22 1.25 1.28
1.53 1.53 1.53 1.47 1.39 1.34 1.31 1.31 1.33 1.33 1.30 1.32 1.34 1.37 1.43 1.50 1.48 1.48 1.49 1.52 1.60 1.64 1.62 1.59 1.56 1.57 1.54 1.50 1.48 1.46 1.44 1.42 1.40 1.38 1.37 1.32 1.28 1.25 1.24 1.24 1.24 1.28
1.61 1.61 1.59 1.57 1.53 1.46 1.43 1.41 1.39 1.38 1.36 1.35 1.35 1.40 1.46 1.47 1.47 1.48 1.48 1.50 1.52 1.57 1.62 1.67 1.67 1.66 1.64 1.63 1.61 1.58 1.54 1.50 1.48 1.47 1.46 1.44 1.41 1.34 1.29 1.27 1.27 1.27
1.59 1.60 1.61 1.62 1.64 1.61 1.54 1.47 1.42 1.40 1.41 1.41 1.42 1.46 1.45 1.43 1.46 1.45 1.46 1.46 1.47 1.51 1.56 1.62 1.65 1.69 1.68 1.66 1.66 1.66 1.66 1.63 1.58 1.53 1.49 1.48 1.49 1.48 1.43 1.35 1.32 1.28
1.55 1.59 1.59 1.64 1.67 1.67 1.62 1.52 1.43 1.40 1.45 1.49 1.48 1.45 1.41 1.39 1.41 1.42 1.45 1.47 1.48 1.50 1.54 1.59 1.62 1.68 1.69 1.69 1.68 1.69 1.70 1.70 1.67 1.63 1.59 1.56 1.55 1.57 1.56 1.50 1.45 1.41
1.52 1.55 1.58 1.60 1.63 1.66 1.62 1.56 1.49 1.42 1.41 1.50 1.52 1.52 1.51 1.49 1.48 1.49 1.48 1.48 1.51 1.53 1.52 1.51 1.59 1.66 1.67 1.69 1.72 1.73 1.73 1.71 1.69 1.66 1.61 1.60 1.61 1.63 1.63 1.62 1.59 1.54
1.52 1.54 1.56 1.57 1.58 1.61 1.60 1.56 1.53 1.51 1.50 1.56 1.53 1.53 1.54 1.52 1.47 1.47 1.50 1.52 1.53 1.55 1.52 1.49 1.54 1.64 1.67 1.69 1.71 1.76 1.77 1.73 1.71 1.68 1.63 1.60 1.61 1.65 1.68 1.69 1.68 1.64
1.52 1.57 1.57 1.57 1.58 1.56 1.56 1.58 1.61 1.61 1.58 1.61 1.54 1.52 1.52 1.54 1.53 1.51 1.53 1.54 1.54 1.54 1.55 1.52 1.55 1.64 1.67 1.70 1.75 1.78 1.78 1.75 1.73 1.70 1.64 1.61 1.60 1.66 1.70 1.72 1.72 1.71
1.52 1.57 1.59 1.58 1.55 1.56 1.59 1.57 1.57 1.58 1.63 1.66 1.62 1.58 1.55 1.59 1.60 1.55 1.55 1.58 1.60 1.61 1.64 1.62 1.61 1.65 1.68 1.70 1.74 1.78 1.79 1.79 1.78 1.75 1.66 1.62 1.63 1.64 1.69 1.70 1.71 1.73
1.50 1.55 1.60 1.61 1.60 1.61 1.64 1.60 1.62 1.63 1.63 1.63 1.63 1.61 1.56 1.56 1.57 1.59 1.57 1.61 1.67 1.68 1.69 1.69 1.67 1.69 1.73 1.73 1.74 1.76 1.78 1.78 1.79 1.72 1.61 1.61 1.67 1.66 1.62 1.64 1.67 1.71

ECMWFNIL_prec_pwat_039.txt.gz
Precipitable_Water
1.04 1.04 1.01 0.98 0.96 0.97 1.00 0.98 1.00 0.99 1.04 1.08 1.06 1.07 1.08 1.14 1.23 1.26 1.32 1.38 1.41 1.37 1.36 1.39 1.46 1.51 1.58 1.61 1.62 1.60 1.59 1.62 1.63 1.63 1.58 1.49 1.38 1.30 1.17 1.14 1.14 1.13
1.01 1.02 1.01 1.00 0.98 0.99 1.02 1.02 1.01 0.99 0.98 1.05 1.09 1.11 1.16 1.20 1.22 1.24 1.28 1.33 1.39 1.40 1.41 1.42 1.44 1.45 1.48 1.53 1.58 1.56 1.56 1.58 1.56 1.64 1.60 1.53 1.43 1.35 1.24 1.16 1.16 1.17
1.00 0.99 0.97 0.94 0.92 0.94 0.98 1.04 1.04 1.02 0.99 1.02 1.11 1.16 1.19 1.22 1.23 1.24 1.25 1.29 1.33 1.37 1.40 1.42 1.42 1.43 1.45 1.46 1.52 1.53 1.53 1.55 1.53 1.59 1.58 1.55 1.52 1.39 1.32 1.25 1.17 1.14
1.00 0.98 0.95 0.94 0.93 0.91 0.96 1.00 1.04 1.04 1.03 1.03 1.06 1.14 1.18 1.24 1.25 1.23 1.21 1.23 1.25 1.29 1.34 1.37 1.38 1.41 1.44 1.45 1.45 1.44 1.48 1.53 1.57 1.60 1.55 1.56 1.56 1.49 1.39 1.33 1.24 1.12
0.97 0.98 0.98 0.97 0.96 0.95 0.96 0.95 0.96 1.01 1.01 1.01 1.05 1.14 1.18 1.20 1.22 1.22 1.21 1.20 1.20 1.21 1.24 1.26 1.32 1.36 1.40 1.41 1.43 1.38 1.40 1.44 1.53 1.56 1.52 1.48 1.51 1.50 1.46 1.39 1.30 1.19
1.00 0.99 0.97 0.96 0.95 0.94 0.93 0.91 0.91 0.94 1.01 1.04 1.04 1.12 1.18 1.21 1.21 1.21 1.21 1.19 1.21 1.23 1.22 1.23 1.23 1.26 1.30 1.31 1.33 1.32 1.33 1.32 1.39 1.45 1.45 1.44 1.44 1.45 1.46 1.43 1.35 1.26
1.01 1.01 1.00 1.00 0.99 0.97 0.92 0.89 0.90 0.92 0.96 1.02 1.09 1.10 1.16 1.20 1.21 1.22 1.23 1.23 1.23 1.23 1.23 1.23 1.23 1.23 1.27 1.27 1.24 1.23 1.26 1.27 1.31 1.34 1.34 1.40 1.44 1.41 1.39 1.38 1.37 1.31
1.03 1.03 1.02 1.02 0.98 0.96 0.93 0.93 0.93 0.94 0.96 1.03 1.07 1.11 1.15 1.17 1.22 1.25 1.27 1.26 1.24 1.23 1.23 1.25 1.26 1.26 1.27 1.27 1.24 1.21 1.21 1.24 1.24 1.26 1.26 1.30 1.37 1.38 1.39 1.35 1.31 1.30
1.07 1.05 1.04 1.03 1.00 0.97 0.95 0.96 0.96 0.96 1.00 1.00 1.02 1.10 1.19 1.19 1.18 1.23 1.26 1.26 1.24 1.24 1.25 1.25 1.25 1.25 1.28 1.27 1.25 1.22 1.19 1.19 1.20 1.19 1.18 1.19 1.22 1.27 1.34 1.38 1.34 1.27
1.08 1.07 1.04 1.02 0.98 0.99 0.98 1.00 1.01 0.99 1.01 1.02 1.03 1.07 1.14 1.20 1.22 1.21 1.25 1.25 1.23 1.23 1.23 1.23 1.24 1.24 1.24 1.25 1.24 1.23 1.20 1.18 1.18 1.18 1.16 1.13 1.13 1.17 1.24 1.30 1.31 1.31
1.04 1.04 1.01 0.99 0.98 1.00 1.00 1.03 1.04 1.05 1.05 1.03 1.05 1.07 1.10 1.18 1.23 1.24 1.21 1.23 1.22 1.20 1.20 1.19 1.20 1.22 1.21 1.22 1.24 1.25 1.23 1.20 1.18 1.17 1.16 1.14 1.12 1.12 1.15 1.19 1.24 1.26
0.99 1.01 1.01 1.00 1.00 1.01 1.01 1.03 1.06 1.07 1.07 1.07 1.07 1.06 1.11 1.16 1.17 1.19 1.17 1.15 1.18 1.20 1.19 1.18 1.19 1.21 1.21 1.20 1.21 1.24 1.25 1.23 1.20 1.17 1.16 1.15 1.14 1.12 1.12 1.14 1.15 1.19
1.03 1.02 1.02 1.01 1.02 1.02 1.03 1.04 1.04 1.05 1.08 1.07 1.09 1.08 1.10 1.13 1.16 1.16 1.17 1.14 1.13 1.17 1.19 1.19 1.18 1.21 1.22 1.23 1.24 1.25 1.24 1.22 1.20 1.18 1.17 1.16 1.16 1.13 1.13 1.14 1.16 1.17
1.11 1.04 1.02 1.01 1.01 1.01 1.01 1.01 1.01 1.03 1.05 1.09 1.11 1.09 1.09 1.10 1.11 1.12 1.14 1.14 1.12 1.12 1.16 1.22 1.23 1.24 1.25 1.27 1.27 1.27 1.27 1.25 1.22 1.19 1.17 1.16 1.16 1.18 1.17 1.16 1.17 1.18
1.26 1.15 1.07 1.04 1.03 1.01 0.99 0.98 1.00 1.01 1.04 1.07 1.10 1.09 1.10 1.10 1.12 1.13 1.11 1.12 1.15 1.16 1.18 1.24 1.28 1.30 1.31 1.31 1.29 1.30 1.31 1.28 1.26 1.23 1.20 1.17 1.17 1.19 1.21 1.21 1.21 1.21
1.41 1.31 1.18 1.09 1.05 1.02 1.01 1.00 1.00 1.02 1.05 1.06 1.08 1.09 1.10 1.11 1.12 1.15 1.14 1.14 1.15 1.20 1.24 1.26 1.30 1.35 1.36 1.36 1.35 1.33 1.33 1.33 1.33 1.30 1.27 1.23 1.20 1.18 1.20 1.23 1.22 1.22
1.49 1.43 1.36 1.23 1.13 1.07 1.04 1.02 1.02 1.05 1.06 1.08 1.11 1.12 1.12 1.14 1.14 1.14 1.17 1.20 1.20 1.21 1.23 1.27 1.31 1.35 1.37 1.39 1.40 1.40 1.40 1.38 1.37 1.37 1.38 1.35 1.32 1.28 1.23 1.24 1.27 1.29
1.56 1.51 1.46 1.39 1.30 1.20 1.13 1.10 1.08 1.08 1.08 1.10 1.13 1.15 1.16 1.19 1.17 1.17 1.20 1.25 1.26 1.27 1.28 1.31 1.33 1.36 1.39 1.43 1.46 1.48 1.49 1.47 1.47 1.46 1.46 1.45 1.42 1.39 1.37 1.37 1.35 1.34
1.61 1.55 1.50 1.46 1.43 1.38 1.30 1.23 1.19 1.16 1.13 1.13 1.13 1.16 1.20 1.19 1.19 1.23 1.25 1.30 1.32 1.29 1.28 1.33 1.37 1.42 1.47 1.50 1.54 1.57 1.59 1.59 1.58 1.58 1.57 1.56 1.54 1.51 1.48 1.46 1.45 1.45
1.60 1.57 1.53 1.49 1.49 1.48 1.46 1.38 1.31 1.25 1.23 1.21 1.20 1.23 1.22 1.21 1.24 1.28 1.32 1.32 1.31 1.31 1.31 1.34 1.37 1.43 1.48 1.51 1.54 1.57 1.61 1.63 1.64 1.65 1.65 1.64 1.64 1.63 1.62 1.60 1.57 1.53
1.60 1.56 1.53 1.54 1.54 1.52 1.51 1.50 1.45 1.38 1.36 1.33 1.29 1.26 1.25 1.25 1.26 1.27 1.30 1.31 1.30 1.32 1.33 1.35 1.39 1.45 1.48 1.51 1.54 1.58 1.62 1.66 1.67 1.69 1.69 1.68 1.69 1.69 1.68 1.67 1.67 1.67
1.60 1.59 1.57 1.58 1.56 1.57 1.54 1.51 1.53 1.51 1.45 1.44 1.38 1.34 1.37 1.37 1.35 1.33 1.29 1.29 1.32 1.33 1.32 1.31 1.38 1.46 1.50 1.54 1.59 1.64 1.69 1.71 1.73 1.72 1.70 1.68 1.68 1.70 1.71 1.73 1.74 1.72
1.59 1.58 1.57 1.59 1.64 1.60 1.54 1.52 1.53 1.56 1.57 1.56 1.47 1.38 1.34 1.36 1.35 1.35 1.36 1.35 1.35 1.36 1.33 1.31 1.36 1.47 1.54 1.59 1.64 1.70 1.74 1.75 1.77 1.77 1.75 1.72 1.70 1.73 1.76 1.78 1.79 1.78
1.59 1.58 1.55 1.57 1.61 1.61 1.61 1.59 1.61 1.65 1.63 1.64 1.53 1.45 1.36 1.34 1.40 1.42 1.44 1.44 1.41 1.38 1.38 1.34 1.38 1.50 1.57 1.63 1.69 1.74 1.78 1.79 1.81 1.80 1.77 1.76 1.77 1.83 1.84 1.82 1.81 1.82
1.57 1.57 1.54 1.54 1.57 1.63 1.67 1.64 1.62 1.63 1.69 1.72 1.66 1.60 1.50 1.45 1.45 1.44 1.46 1.49 1.49 1.46 1.47 1.45 1.47 1.56 1.62 1.65 1.71 1.78 1.84 1.88 1.88 1.85 1.79 1.79 1.84 1.84 1.88 1.85 1.83 1.84
1.51 1.52 1.53 1.54 1.58 1.66 1.71 1.71 1.73 1.72 1.70 1.69 1.68 1.67 1.61 1.58 1.53 1.49 1.46 1.48 1.53 1.53 1.52 1.55 1.56 1.62 1.70 1.72 1.75 1.80 1.86 1.90 1.90 1.82 1.72 1.78 1.85 1.83 1.79 1.79 1.80 1.81

ECMWFNIL_prec_pwat_042.txt.gz
Precipitable_Water
1.13 1.12 1.08 1.05 1.03 1.02 1.00 0.98 1.00 0.97 0.95 0.99 0.99 1.02 1.06 1.13 1.24 1.27 1.29 1.33 1.32 1.29 1.30 1.32 1.39 1.47 1.56 1.61 1.63 1.62 1.63 1.62 1.64 1.62 1.54 1.47 1.38 1.29 1.20 1.17 1.15 1.15
1.11 1.10 1.09 1.07 1.05 1.07 1.05 1.02 0.98 0.96 0.94 0.95 0.98 1.03 1.10 1.16 1.22 1.24 1.26 1.29 1.34 1.33 1.33 1.33 1.34 1.38 1.46 1.53 1.58 1.59 1.60 1.62 1.60 1.68 1.59 1.51 1.45 1.36 1.25 1.19 1.17 1.14
1.11 1.10 1.07 1.04 1.01 1.01 1.04 1.05 1.03 1.00 0.97 0.96 1.03 1.07 1.10 1.16 1.18 1.21 1.23 1.26 1.30 1.35 1.37 1.35 1.34 1.35 1.40 1.46 1.52 1.55 1.56 1.56 1.56 1.63 1.61 1.56 1.54 1.42 1.31 1.25 1.20 1.17
1.09 1.09 1.07 1.05 1.04 1.01 1.04 1.05 1.04 1.02 1.01 1.00 1.00 1.06 1.09 1.12 1.14 1.15 1.17 1.22 1.26 1.32 1.37 1.38 1.35 1.36 1.37 1.41 1.44 1.46 1.49 1.53 1.57 1.61 1.58 1.58 1.57 1.54 1.43 1.33 1.25 1.19
1.07 1.08 1.09 1.08 1.07 1.05 1.05 1.02 1.01 1.00 0.97 0.96 1.01 1.07 1.08 1.10 1.11 1.11 1.14 1.17 1.22 1.27 1.34 1.36 1.39 1.37 1.38 1.38 1.40 1.38 1.41 1.43 1.51 1.55 1.53 1.51 1.53 1.54 1.52 1.44 1.30 1.20
1.13 1.12 1.10 1.07 1.05 1.03 1.02 0.99 0.99 0.99 0.97 0.97 0.99 1.05 1.06 1.09 1.10 1.10 1.12 1.13 1.17 1.21 1.25 1.31 1.34 1.36 1.37 1.36 1.36 1.34 1.36 1.36 1.41 1.45 1.44 1.45 1.49 1.53 1.52 1.49 1.40 1.29
1.10 1.12 1.10 1.11 1.09 1.08 1.03 0.99 0.98 0.99 0.99 0.97 1.01 1.02 1.06 1.08 1.10 1.11 1.14 1.14 1.16 1.17 1.17 1.18 1.20 1.23 1.29 1.31 1.29 1.26 1.28 1.30 1.34 1.35 1.33 1.36 1.43 1.47 1.50 1.47 1.42 1.36
1.11 1.12 1.11 1.10 1.07 1.07 1.05 1.03 1.01 1.00 1.00 1.04 1.02 1.03 1.09 1.07 1.09 1.13 1.15 1.16 1.16 1.16 1.17 1.16 1.17 1.18 1.22 1.25 1.22 1.20 1.20 1.25 1.25 1.26 1.24 1.25 1.31 1.32 1.40 1.44 1.40 1.33
1.12 1.12 1.11 1.09 1.06 1.06 1.05 1.05 1.04 1.02 1.06 1.06 1.05 1.07 1.11 1.10 1.09 1.11 1.13 1.15 1.15 1.15 1.16 1.15 1.15 1.17 1.21 1.22 1.20 1.18 1.16 1.17 1.20 1.20 1.18 1.15 1.14 1.15 1.22 1.34 1.36 1.33
1.12 1.11 1.09 1.08 1.05 1.06 1.04 1.06 1.06 1.06 1.08 1.08 1.09 1.12 1.11 1.12 1.13 1.13 1.14 1.14 1.12 1.12 1.12 1.11 1.14 1.16 1.18 1.20 1.19 1.18 1.16 1.16 1.17 1.17 1.16 1.15 1.12 1.10 1.12 1.16 1.19 1.24
1.11 1.10 1.06 1.05 1.04 1.06 1.05 1.07 1.08 1.09 1.10 1.06 1.08 1.13 1.14 1.13 1.14 1.17 1.15 1.13 1.09 1.06 1.06 1.08 1.10 1.13 1.14 1.16 1.19 1.21 1.19 1.17 1.16 1.16 1.14 1.13 1.12 1.12 1.13 1.12 1.10 1.07
1.10 1.08 1.04 1.02 1.03 1.04 1.05 1.08 1.10 1.10 1.09 1.09 1.09 1.07 1.11 1.15 1.12 1.13 1.12 1.08 1.06 1.06 1.07 1.08 1.11 1.13 1.12 1.12 1.14 1.17 1.18 1.19 1.18 1.16 1.15 1.14 1.14 1.14 1.14 1.15 1.12 1.09
1.09 1.06 1.04 1.03 1.03 1.04 1.08 1.10 1.11 1.12 1.12 1.09 1.10 1.09 1.07 1.08 1.12 1.12 1.12 1.09 1.07 1.08 1.08 1.09 1.11 1.13 1.13 1.13 1.14 1.15 1.15 1.16 1.16 1.17 1.16 1.16 1.15 1.15 1.16 1.17 1.16 1.14
1.12 1.08 1.04 1.03 1.04 1.06 1.08 1.10 1.12 1.14 1.14 1.13 1.12 1.10 1.09 1.07 1.07 1.09 1.11 1.11 1.08 1.08 1.09 1.11 1.12 1.13 1.14 1.14 1.15 1.15 1.16 1.16 1.18 1.18 1.18 1.19 1.18 1.19 1.20 1.20 1.19 1.19
1.21 1.17 1.13 1.10 1.09 1.08 1.09 1.10 1.13 1.15 1.16 1.14 1.13 1.12 1.12 1.10 1.08 1.09 1.09 1.09 1.09 1.09 1.09 1.11 1.12 1.11 1.14 1.15 1.16 1.18 1.20 1.18 1.19 1.21 1.22 1.21 1.20 1.21 1.23 1.25 1.25 1.25
1.33 1.29 1.22 1.17 1.14 1.11 1.10 1.11 1.12 1.14 1.15 1.14 1.12 1.12 1.11 1.11 1.10 1.11 1.09 1.06 1.06 1.07 1.09 1.12 1.14 1.16 1.17 1.17 1.21 1.22 1.23 1.24 1.27 1.28 1.30 1.29 1.28 1.27 1.28 1.30 1.30 1.31
1.44 1.39 1.36 1.29 1.24 1.19 1.15 1.12 1.10 1.11 1.12 1.11 1.12 1.12 1.10 1.10 1.11 1.09 1.07 1.06 1.05 1.05 1.08 1.12 1.16 1.19 1.19 1.20 1.22 1.26 1.30 1.32 1.31 1.31 1.36 1.38 1.39 1.38 1.35 1.36 1.39 1.41
1.52 1.49 1.44 1.40 1.37 1.31 1.25 1.19 1.16 1.13 1.11 1.10 1.10 1.11 1.12 1.12 1.10 1.07 1.06 1.06 1.07 1.09 1.10 1.12 1.15 1.17 1.21 1.23 1.25 1.28 1.33 1.37 1.41 1.42 1.44 1.45 1.46 1.46 1.47 1.48 1.47 1.49
1.60 1.57 1.55 1.52 1.49 1.46 1.41 1.34 1.25 1.18 1.14 1.12 1.10 1.13 1.15 1.13 1.09 1.07 1.05 1.06 1.09 1.08 1.09 1.13 1.15 1.17 1.19 1.22 1.26 1.30 1.36 1.43 1.48 1.53 1.55 1.57 1.61 1.63 1.63 1.62 1.62 1.62
1.63 1.61 1.59 1.60 1.63 1.61 1.56 1.48 1.40 1.30 1.23 1.21 1.19 1.18 1.15 1.13 1.13 1.09 1.07 1.07 1.09 1.09 1.10 1.13 1.15 1.17 1.20 1.23 1.28 1.34 1.40 1.48 1.53 1.58 1.61 1.63 1.66 1.68 1.69 1.69 1.69 1.68
1.62 1.62 1.61 1.64 1.65 1.65 1.62 1.57 1.52 1.46 1.39 1.34 1.30 1.23 1.16 1.14 1.13 1.11 1.08 1.09 1.12 1.14 1.14 1.13 1.15 1.19 1.24 1.28 1.33 1.38 1.44 1.52 1.58 1.63 1.65 1.66 1.69 1.71 1.72 1.72 1.73 1.74
1.60 1.60 1.62 1.65 1.66 1.66 1.63 1.59 1.59 1.57 1.51 1.49 1.43 1.38 1.32 1.26 1.25 1.24 1.16 1.14 1.18 1.21 1.20 1.16 1.19 1.27 1.31 1.34 1.38 1.43 1.50 1.57 1.62 1.64 1.64 1.67 1.69 1.73 1.75 1.77 1.78 1.78
1.62 1.61 1.61 1.62 1.65 1.63 1.61 1.61 1.61 1.62 1.64 1.65 1.57 1.50 1.42 1.32 1.24 1.25 1.26 1.23 1.23 1.26 1.25 1.21 1.24 1.32 1.36 1.40 1.45 1.52 1.58 1.61 1.64 1.65 1.66 1.66 1.69 1.74 1.77 1.79 1.81 1.82
1.65 1.64 1.61 1.61 1.61 1.59 1.60 1.64 1.68 1.69 1.68 1.72 1.64 1.58 1.53 1.47 1.37 1.30 1.34 1.35 1.31 1.29 1.31 1.28 1.30 1.39 1.43 1.47 1.52 1.57 1.61 1.61 1.63 1.63 1.62 1.64 1.68 1.75 1.79 1.81 1.83 1.85
1.66 1.66 1.65 1.63 1.60 1.60 1.63 1.63 1.65 1.67 1.71 1.73 1.70 1.69 1.63 1.62 1.59 1.45 1.37 1.37 1.38 1.37 1.38 1.37 1.38 1.44 1.49 1.52 1.56 1.61 1.63 1.65 1.66 1.64 1.61 1.63 1.68 1.71 1.80 1.83 1.85 1.87
1.60 1.60 1.62 1.61 1.59 1.62 1.65 1.66 1.70 1.71 1.71 1.70 1.70 1.72 1.69 1.67 1.64 1.58 1.47 1.42 1.45 1.45 1.43 1.44 1.44 1.48 1.53 1.56 1.59 1.62 1.64 1.68 1.70 1.66 1.61 1.65 1.71 1.72 1.73 1.80 1.84 1.85

ECMWFNIL_prec_pwat_045.txt.gz
Precipitable_Water
1.28 1.28 1.25 1.22 1.19 1.17 1.14 1.11 1.12 1.10 1.11 1.16 1.14 1.16 1.17 1.19 1.27 1.28 1.29 1.31 1.31 1.30 1.31 1.31 1.38 1.47 1.56 1.60 1.63 1.63 1.61 1.60 1.59 1.57 1.53 1.50 1.44 1.40 1.33 1.30 1.28 1.22
1.25 1.25 1.25 1.24 1.22 1.22 1.19 1.16 1.12 1.09 1.08 1.11 1.12 1.15 1.19 1.22 1.23 1.24 1.24 1.26 1.31 1.31 1.32 1.31 1.32 1.37 1.47 1.54 1.59 1.59 1.59 1.59 1.57 1.66 1.57 1.51 1.48 1.45 1.37 1.33 1.28 1.27
1.24 1.22 1.20 1.17 1.15 1.15 1.15 1.16 1.15 1.12 1.09 1.09 1.13 1.15 1.14 1.19 1.19 1.22 1.23 1.24 1.26 1.30 1.32 1.31 1.30 1.31 1.36 1.44 1.53 1.55 1.55 1.55 1.52 1.61 1.61 1.56 1.54 1.46 1.42 1.39 1.33 1.26
1.22 1.20 1.17 1.15 1.15 1.15 1.17 1.15 1.13 1.13 1.13 1.10 1.08 1.11 1.11 1.12 1.16 1.17 1.19 1.23 1.23 1.27 1.31 1.32 1.29 1.30 1.30 1.33 1.39 1.44 1.49 1.52 1.55 1.59 1.56 1.59 1.59 1.55 1.48 1.44 1.38 1.32
1.18 1.19 1.19 1.17 1.16 1.16 1.17 1.14 1.09 1.09 1.08 1.07 1.09 1.10 1.09 1.08 1.10 1.13 1.16 1.18 1.20 1.22 1.28 1.30 1.32 1.31 1.31 1.29 1.30 1.30 1.37 1.42 1.50 1.54 1.52 1.50 1.55 1.57 1.56 1.51 1.41 1.33
1.22 1.21 1.19 1.16 1.15 1.14 1.11 1.08 1.07 1.06 1.06 1.07 1.06 1.09 1.08 1.08 1.06 1.07 1.10 1.10 1.13 1.15 1.20 1.26 1.29 1.31 1.32 1.30 1.29 1.27 1.28 1.31 1.38 1.45 1.46 1.45 1.48 1.55 1.56 1.54 1.49 1.39
1.16 1.18 1.17 1.17 1.16 1.15 1.11 1.08 1.07 1.07 1.06 1.05 1.10 1.08 1.09 1.08 1.05 1.04 1.08 1.09 1.09 1.10 1.12 1.18 1.23 1.26 1.31 1.31 1.29 1.27 1.28 1.28 1.31 1.35 1.35 1.39 1.43 1.46 1.51 1.51 1.48 1.44
1.17 1.17 1.16 1.16 1.13 1.12 1.09 1.07 1.06 1.06 1.07 1.10 1.07 1.08 1.10 1.06 1.04 1.04 1.08 1.09 1.08 1.07 1.09 1.13 1.18 1.22 1.27 1.30 1.27 1.26 1.26 1.30 1.28 1.27 1.27 1.29 1.34 1.34 1.39 1.44 1.44 1.40
1.20 1.17 1.16 1.14 1.11 1.10 1.07 1.06 1.05 1.06 1.10 1.08 1.06 1.07 1.11 1.09 1.06 1.05 1.06 1.09 1.08 1.07 1.08 1.10 1.11 1.12 1.17 1.19 1.20 1.20 1.19 1.20 1.22 1.21 1.18 1.17 1.19 1.21 1.27 1.35 1.36 1.35
1.18 1.17 1.15 1.13 1.10 1.09 1.06 1.05 1.06 1.06 1.09 1.07 1.07 1.09 1.07 1.10 1.10 1.08 1.08 1.10 1.08 1.08 1.08 1.08 1.08 1.09 1.10 1.12 1.12 1.13 1.13 1.13 1.15 1.15 1.14 1.13 1.11 1.11 1.14 1.18 1.19 1.21
1.17 1.17 1.14 1.12 1.10 1.10 1.07 1.07 1.07 1.07 1.08 1.05 1.06 1.06 1.06 1.07 1.09 1.12 1.11 1.11 1.08 1.06 1.05 1.05 1.06 1.08 1.09 1.10 1.12 1.14 1.12 1.11 1.11 1.13 1.13 1.13 1.13 1.13 1.14 1.14 1.12 1.08
1.16 1.16 1.13 1.11 1.11 1.11 1.09 1.09 1.08 1.08 1.06 1.06 1.07 1.04 1.05 1.07 1.07 1.10 1.10 1.08 1.08 1.07 1.06 1.04 1.06 1.09 1.09 1.09 1.11 1.13 1.13 1.12 1.12 1.12 1.12 1.13 1.13 1.15 1.16 1.17 1.13 1.12
1.14 1.12 1.12 1.12 1.12 1.12 1.13 1.12 1.10 1.09 1.08 1.05 1.07 1.05 1.04 1.05 1.07 1.08 1.10 1.09 1.08 1.09 1.07 1.06 1.06 1.08 1.08 1.09 1.11 1.12 1.11 1.10 1.10 1.10 1.11 1.13 1.14 1.15 1.17 1.17 1.16 1.15
1.12 1.13 1.13 1.12 1.13 1.13 1.13 1.13 1.13 1.12 1.11 1.11 1.11 1.07 1.05 1.05 1.06 1.06 1.07 1.09 1.07 1.08 1.08 1.10 1.10 1.09 1.07 1.07 1.08 1.09 1.08 1.07 1.08 1.07 1.09 1.11 1.13 1.17 1.19 1.19 1.19 1.19
1.13 1.16 1.17 1.16 1.15 1.14 1.12 1.12 1.13 1.15 1.16 1.16 1.15 1.12 1.10 1.08 1.08 1.09 1.09 1.08 1.08 1.08 1.08 1.11 1.10 1.07 1.06 1.04 1.03 1.04 1.06 1.05 1.06 1.08 1.09 1.09 1.11 1.15 1.20 1.22 1.23 1.23
1.16 1.16 1.15 1.16 1.16 1.13 1.11 1.12 1.14 1.16 1.17 1.17 1.17 1.16 1.13 1.12 1.10 1.10 1.10 1.07 1.04 1.05 1.08 1.10 1.09 1.07 1.05 1.04 1.04 1.03 1.04 1.07 1.09 1.10 1.10 1.11 1.12 1.14 1.17 1.21 1.23 1.25
1.21 1.17 1.17 1.14 1.13 1.14 1.14 1.14 1.15 1.17 1.17 1.18 1.19 1.18 1.15 1.14 1.13 1.09 1.06 1.05 1.03 1.02 1.02 1.05 1.06 1.06 1.04 1.04 1.05 1.07 1.10 1.11 1.10 1.11 1.15 1.17 1.17 1.17 1.17 1.22 1.28 1.33
1.33 1.28 1.23 1.18 1.17 1.16 1.17 1.19 1.20 1.19 1.18 1.19 1.19 1.17 1.17 1.16 1.13 1.10 1.07 1.06 1.05 1.04 1.02 1.02 1.03 1.05 1.06 1.07 1.08 1.11 1.15 1.18 1.19 1.19 1.21 1.23 1.26 1.28 1.31 1.34 1.37 1.41
1.43 1.39 1.36 1.33 1.30 1.28 1.27 1.27 1.25 1.23 1.22 1.21 1.20 1.21 1.20 1.15 1.12 1.11 1.07 1.08 1.07 1.03 1.00 1.02 1.05 1.07 1.09 1.11 1.12 1.14 1.17 1.22 1.24 1.26 1.27 1.29 1.33 1.37 1.41 1.46 1.52 1.56
1.52 1.49 1.46 1.46 1.48 1.47 1.44 1.38 1.32 1.26 1.24 1.25 1.25 1.25 1.20 1.15 1.13 1.11 1.09 1.08 1.08 1.05 1.03 1.06 1.09 1.11 1.13 1.14 1.15 1.17 1.19 1.24 1.26 1.29 1.33 1.37 1.40 1.45 1.51 1.56 1.60 1.62
1.58 1.58 1.58 1.59 1.60 1.58 1.55 1.49 1.43 1.39 1.34 1.30 1.27 1.22 1.17 1.13 1.12 1.11 1.10 1.09 1.08 1.07 1.07 1.08 1.11 1.12 1.14 1.15 1.17 1.19 1.23 1.28 1.31 1.35 1.38 1.41 1.46 1.52 1.57 1.60 1.64 1.66
1.63 1.64 1.65 1.67 1.67 1.66 1.62 1.58 1.56 1.53 1.47 1.45 1.39 1.32 1.27 1.22 1.20 1.19 1.13 1.09 1.08 1.08 1.09 1.09 1.12 1.15 1.16 1.17 1.18 1.20 1.25 1.30 1.33 1.36 1.39 1.42 1.47 1.54 1.60 1.65 1.67 1.67
1.70 1.70 1.70 1.70 1.71 1.68 1.66 1.65 1.64 1.64 1.65 1.66 1.56 1.49 1.41 1.32 1.22 1.18 1.17 1.15 1.12 1.09 1.07 1.08 1.12 1.16 1.18 1.19 1.20 1.24 1.27 1.30 1.34 1.37 1.40 1.43 1.47 1.54 1.61 1.64 1.66 1.68
1.72 1.71 1.69 1.69 1.70 1.67 1.68 1.69 1.71 1.72 1.71 1.75 1.66 1.62 1.56 1.50 1.46 1.39 1.32 1.27 1.20 1.12 1.09 1.09 1.11 1.16 1.19 1.20 1.23 1.28 1.31 1.32 1.36 1.37 1.38 1.43 1.47 1.55 1.60 1.62 1.64 1.68
1.72 1.71 1.69 1.68 1.67 1.68 1.70 1.69 1.70 1.70 1.73 1.75 1.72 1.72 1.69 1.71 1.68 1.60 1.52 1.46 1.39 1.31 1.25 1.21 1.20 1.22 1.24 1.24 1.27 1.31 1.34 1.37 1.39 1.39 1.38 1.41 1.46 1.49 1.57 1.61 1.64 1.69
1.72 1.69 1.68 1.67 1.67 1.69 1.72 1.71 1.74 1.73 1.72 1.72 1.72 1.72 1.71 1.74 1.73 1.70 1.64 1.57 1.53 1.50 1.45 1.38 1.33 1.33 1.35 1.34 1.34 1.36 1.38 1.40 1.43 1.39 1.35 1.39 1.46 1.48 1.50 1.56 1.62 1.67

ECMWFNIL_prec_pwat_048.txt.gz
Precipitable_Water
1.35 1.33 1.29 1.25 1.22 1.21 1.21 1.19 1.20 1.20 1.21 1.23 1.21 1.23 1.24 1.29 1.35 1.36 1.39 1.42 1.41 1.40 1.39 1.40 1.43 1.45 1.52 1.55 1.58 1.58 1.57 1.56 1.57 1.59 1.55 1.51 1.46 1.42 1.37 1.36 1.34 1.29
1.33 1.33 1.31 1.29 1.26 1.26 1.25 1.23 1.20 1.19 1.19 1.21 1.22 1.24 1.29 1.31 1.32 1.33 1.32 1.33 1.37 1.37 1.39 1.40 1.40 1.40 1.44 1.49 1.54 1.55 1.55 1.56 1.53 1.62 1.57 1.53 1.49 1.46 1.41 1.42 1.40 1.40
1.32 1.30 1.28 1.24 1.21 1.20 1.20 1.22 1.22 1.20 1.19 1.20 1.24 1.25 1.26 1.31 1.31 1.32 1.32 1.31 1.31 1.33 1.35 1.37 1.38 1.37 1.38 1.40 1.47 1.51 1.52 1.53 1.51 1.57 1.57 1.54 1.55 1.48 1.46 1.46 1.43 1.43
1.28 1.27 1.25 1.23 1.23 1.21 1.24 1.23 1.22 1.22 1.22 1.20 1.18 1.22 1.25 1.28 1.29 1.28 1.29 1.30 1.28 1.27 1.29 1.32 1.33 1.36 1.36 1.36 1.39 1.40 1.45 1.52 1.56 1.59 1.54 1.55 1.55 1.54 1.52 1.50 1.45 1.43
1.26 1.26 1.26 1.24 1.24 1.25 1.26 1.22 1.19 1.19 1.17 1.16 1.19 1.22 1.22 1.21 1.21 1.21 1.21 1.21 1.22 1.21 1.24 1.25 1.29 1.31 1.34 1.35 1.35 1.31 1.35 1.40 1.52 1.56 1.52 1.49 1.53 1.53 1.55 1.53 1.46 1.41
1.30 1.29 1.27 1.23 1.22 1.22 1.20 1.17 1.18 1.18 1.17 1.16 1.15 1.18 1.17 1.18 1.15 1.13 1.13 1.11 1.14 1.16 1.17 1.21 1.24 1.28 1.31 1.32 1.31 1.28 1.29 1.30 1.38 1.46 1.46 1.45 1.49 1.54 1.53 1.52 1.48 1.42
1.26 1.26 1.24 1.24 1.22 1.21 1.17 1.16 1.18 1.19 1.18 1.17 1.20 1.16 1.17 1.15 1.11 1.09 1.08 1.07 1.09 1.11 1.12 1.14 1.18 1.21 1.28 1.31 1.29 1.25 1.27 1.27 1.30 1.34 1.35 1.39 1.44 1.45 1.50 1.48 1.45 1.42
1.26 1.27 1.25 1.23 1.19 1.18 1.14 1.14 1.15 1.16 1.17 1.20 1.16 1.15 1.17 1.12 1.09 1.08 1.07 1.06 1.06 1.07 1.09 1.12 1.15 1.18 1.24 1.28 1.26 1.25 1.25 1.28 1.26 1.25 1.25 1.28 1.34 1.32 1.36 1.40 1.41 1.38
1.28 1.26 1.25 1.22 1.17 1.14 1.12 1.11 1.12 1.14 1.18 1.16 1.14 1.14 1.16 1.13 1.08 1.06 1.06 1.06 1.06 1.06 1.08 1.09 1.12 1.15 1.21 1.23 1.24 1.24 1.22 1.24 1.26 1.25 1.22 1.20 1.21 1.22 1.26 1.30 1.30 1.28
1.25 1.25 1.23 1.21 1.16 1.14 1.11 1.11 1.12 1.13 1.16 1.14 1.13 1.14 1.11 1.11 1.10 1.07 1.07 1.06 1.05 1.05 1.06 1.06 1.09 1.13 1.18 1.21 1.21 1.22 1.21 1.20 1.23 1.24 1.23 1.22 1.20 1.20 1.21 1.22 1.20 1.19
1.23 1.24 1.21 1.18 1.15 1.15 1.12 1.12 1.11 1.12 1.13 1.11 1.11 1.10 1.08 1.08 1.09 1.10 1.08 1.06 1.03 1.02 1.03 1.04 1.06 1.10 1.13 1.15 1.17 1.19 1.18 1.17 1.17 1.17 1.16 1.16 1.15 1.14 1.14 1.12 1.10 1.07
1.23 1.22 1.19 1.16 1.15 1.14 1.13 1.12 1.12 1.11 1.09 1.09 1.09 1.05 1.06 1.07 1.06 1.08 1.06 1.03 1.02 1.02 1.03 1.04 1.07 1.09 1.09 1.09 1.11 1.13 1.13 1.12 1.11 1.10 1.10 1.10 1.10 1.10 1.10 1.10 1.06 1.04
1.22 1.20 1.19 1.17 1.17 1.15 1.16 1.14 1.12 1.11 1.09 1.06 1.07 1.05 1.04 1.02 1.04 1.05 1.07 1.05 1.03 1.04 1.04 1.04 1.05 1.06 1.07 1.08 1.09 1.10 1.10 1.09 1.09 1.09 1.10 1.10 1.10 1.11 1.12 1.12 1.11 1.10
1.23 1.23 1.22 1.20 1.19 1.18 1.16 1.14 1.13 1.11 1.10 1.09 1.09 1.05 1.02 1.01 1.01 1.02 1.04 1.07 1.06 1.05 1.05 1.08 1.07 1.05 1.05 1.07 1.08 1.08 1.08 1.06 1.06 1.05 1.06 1.07 1.09 1.10 1.11 1.10 1.11 1.12
1.24 1.25 1.25 1.22 1.20 1.17 1.15 1.13 1.12 1.11 1.11 1.10 1.08 1.05 1.04 1.03 1.04 1.05 1.04 1.05 1.07 1.07 1.06 1.09 1.07 1.04 1.04 1.04 1.04 1.04 1.05 1.02 1.03 1.03 1.03 1.02 1.03 1.06 1.08 1.10 1.11 1.14
1.25 1.24 1.22 1.21 1.19 1.15 1.13 1.13 1.12 1.11 1.09 1.07 1.05 1.05 1.05 1.06 1.07 1.08 1.07 1.05 1.04 1.05 1.06 1.07 1.06 1.05 1.04 1.04 1.04 1.02 1.01 1.01 1.02 1.01 1.01 1.01 1.00 1.00 1.02 1.06 1.10 1.14
1.23 1.21 1.22 1.18 1.17 1.16 1.16 1.14 1.12 1.12 1.10 1.07 1.06 1.06 1.06 1.08 1.09 1.07 1.07 1.07 1.06 1.04 1.04 1.05 1.04 1.03 1.02 1.02 1.01 1.01 1.02 1.00 0.98 0.98 1.01 1.01 1.00 0.99 0.96 0.99 1.06 1.14
1.19 1.20 1.18 1.17 1.18 1.16 1.16 1.15 1.15 1.14 1.10 1.07 1.06 1.06 1.08 1.10 1.09 1.08 1.08 1.08 1.09 1.09 1.08 1.06 1.05 1.03 1.02 1.01 1.00 1.00 1.01 1.01 1.01 1.00 1.00 1.01 1.01 1.01 1.01 1.04 1.07 1.14
1.18 1.17 1.16 1.17 1.17 1.17 1.19 1.19 1.17 1.14 1.11 1.08 1.06 1.09 1.11 1.09 1.08 1.09 1.09 1.10 1.09 1.06 1.05 1.06 1.06 1.05 1.04 1.03 1.01 1.00 1.01 1.03 1.04 1.04 1.03 1.03 1.05 1.06 1.07 1.10 1.14 1.19
1.29 1.26 1.21 1.20 1.21 1.22 1.22 1.19 1.16 1.11 1.10 1.12 1.13 1.14 1.12 1.11 1.12 1.10 1.10 1.10 1.09 1.07 1.05 1.06 1.05 1.05 1.04 1.03 1.03 1.03 1.04 1.06 1.07 1.08 1.11 1.12 1.12 1.13 1.15 1.18 1.23 1.28
1.38 1.36 1.33 1.33 1.31 1.27 1.23 1.19 1.15 1.12 1.13 1.15 1.17 1.14 1.13 1.10 1.09 1.08 1.08 1.09 1.09 1.09 1.06 1.03 1.03 1.03 1.03 1.03 1.03 1.05 1.07 1.10 1.13 1.16 1.18 1.18 1.19 1.20 1.22 1.25 1.31 1.38
1.43 1.41 1.40 1.40 1.38 1.36 1.30 1.25 1.23 1.21 1.19 1.22 1.22 1.22 1.24 1.24 1.23 1.22 1.16 1.12 1.11 1.11 1.08 1.03 1.04 1.05 1.04 1.04 1.04 1.06 1.11 1.14 1.17 1.18 1.19 1.19 1.19 1.21 1.24 1.30 1.38 1.43
1.49 1.46 1.45 1.45 1.45 1.42 1.39 1.39 1.38 1.38 1.38 1.39 1.33 1.30 1.27 1.25 1.21 1.21 1.21 1.17 1.15 1.15 1.12 1.06 1.05 1.06 1.06 1.06 1.07 1.10 1.14 1.15 1.17 1.19 1.19 1.18 1.17 1.19 1.24 1.30 1.38 1.44
1.57 1.56 1.53 1.53 1.54 1.50 1.50 1.53 1.55 1.57 1.55 1.56 1.46 1.41 1.36 1.33 1.31 1.26 1.24 1.22 1.19 1.18 1.18 1.11 1.07 1.10 1.12 1.11 1.11 1.13 1.15 1.15 1.17 1.17 1.16 1.17 1.16 1.20 1.25 1.30 1.37 1.44
1.62 1.64 1.65 1.65 1.64 1.65 1.67 1.66 1.67 1.67 1.70 1.71 1.67 1.63 1.57 1.58 1.54 1.46 1.41 1.38 1.32 1.28 1.29 1.25 1.19 1.19 1.20 1.19 1.18 1.19 1.20 1.21 1.21 1.18 1.14 1.13 1.15 1.17 1.25 1.31 1.37 1.46
1.66 1.67 1.69 1.70 1.71 1.75 1.77 1.77 1.80 1.79 1.77 1.75 1.75 1.76 1.73 1.73 1.70 1.66 1.60 1.57 1.58 1.53 1.46 1.41 1.35 1.31 1.31 1.29 1.27 1.27 1.27 1.29 1.29 1.22 1.13 1.13 1.17 1.19 1.22 1.30 1.38 1.46

ECMWFNIL_prec_pwat_051.txt.gz
Precipitable_Water
1.39 1.37 1.32 1.29 1.26 1.24 1.20 1.16 1.16 1.16 1.18 1.21 1.21 1.26 1.28 1.32 1.36 1.35 1.37 1.42 1.45 1.47 1.50 1.52 1.54 1.55 1.57 1.56 1.57 1.55 1.52 1.52 1.53 1.58 1.58 1.56 1.54 1.51 1.46 1.44 1.41 1.38
1.38 1.38 1.37 1.35 1.33 1.31 1.28 1.24 1.21 1.18 1.18 1.20 1.23 1.28 1.32 1.34 1.34 1.35 1.35 1.36 1.40 1.42 1.46 1.47 1.49 1.51 1.52 1.53 1.55 1.53 1.52 1.52 1.50 1.60 1.57 1.56 1.56 1.54 1.49 1.50 1.47 1.47
1.39 1.37 1.36 1.31 1.29 1.28 1.28 1.29 1.27 1.23 1.21 1.21 1.26 1.29 1.30 1.33 1.33 1.34 1.35 1.35 1.35 1.37 1.39 1.41 1.42 1.44 1.47 1.49 1.52 1.52 1.51 1.50 1.48 1.55 1.56 1.54 1.58 1.55 1.55 1.54 1.52 1.49
1.38 1.37 1.34 1.32 1.32 1.30 1.32 1.31 1.29 1.28 1.27 1.23 1.21 1.26 1.28 1.30 1.31 1.30 1.31 1.32 1.32 1.32 1.35 1.36 1.36 1.40 1.41 1.44 1.46 1.46 1.49 1.50 1.52 1.54 1.52 1.55 1.56 1.56 1.56 1.58 1.56 1.53
1.35 1.35 1.35 1.34 1.34 1.34 1.34 1.30 1.27 1.27 1.25 1.22 1.23 1.27 1.27 1.27 1.27 1.27 1.28 1.28 1.29 1.28 1.29 1.29 1.33 1.34 1.38 1.39 1.40 1.39 1.43 1.44 1.49 1.49 1.45 1.45 1.52 1.54 1.56 1.56 1.53 1.50
1.36 1.37 1.36 1.33 1.33 1.31 1.29 1.27 1.27 1.26 1.24 1.23 1.22 1.26 1.25 1.27 1.26 1.25 1.26 1.25 1.27 1.26 1.26 1.27 1.27 1.29 1.32 1.34 1.35 1.35 1.37 1.38 1.43 1.45 1.39 1.37 1.43 1.51 1.54 1.54 1.51 1.46
1.29 1.32 1.33 1.35 1.33 1.32 1.27 1.26 1.27 1.27 1.25 1.25 1.27 1.24 1.25 1.24 1.23 1.24 1.26 1.25 1.23 1.23 1.21 1.21 1.22 1.23 1.28 1.30 1.29 1.29 1.33 1.36 1.39 1.39 1.34 1.34 1.36 1.39 1.47 1.49 1.49 1.45
1.29 1.32 1.33 1.34 1.30 1.30 1.26 1.26 1.26 1.25 1.26 1.27 1.22 1.22 1.24 1.22 1.22 1.24 1.25 1.24 1.20 1.18 1.16 1.17 1.18 1.19 1.24 1.26 1.24 1.23 1.26 1.33 1.32 1.32 1.29 1.29 1.31 1.29 1.35 1.40 1.42 1.38
1.30 1.29 1.30 1.29 1.27 1.26 1.23 1.23 1.23 1.24 1.27 1.23 1.20 1.21 1.23 1.22 1.21 1.21 1.21 1.20 1.17 1.15 1.14 1.13 1.14 1.15 1.20 1.22 1.21 1.22 1.22 1.25 1.28 1.28 1.26 1.24 1.23 1.24 1.29 1.35 1.32 1.29
1.27 1.27 1.26 1.25 1.23 1.23 1.21 1.21 1.22 1.23 1.25 1.23 1.22 1.23 1.19 1.20 1.21 1.20 1.19 1.17 1.13 1.12 1.11 1.09 1.10 1.12 1.15 1.18 1.19 1.21 1.21 1.21 1.25 1.26 1.26 1.24 1.22 1.24 1.28 1.31 1.28 1.24
1.25 1.26 1.23 1.22 1.21 1.21 1.19 1.20 1.20 1.20 1.21 1.19 1.20 1.19 1.18 1.18 1.17 1.19 1.16 1.14 1.09 1.07 1.06 1.05 1.06 1.09 1.10 1.13 1.17 1.20 1.21 1.21 1.22 1.24 1.23 1.22 1.21 1.23 1.26 1.27 1.27 1.23
1.25 1.24 1.21 1.20 1.19 1.19 1.18 1.19 1.19 1.18 1.16 1.16 1.17 1.14 1.14 1.15 1.13 1.13 1.11 1.07 1.07 1.06 1.06 1.05 1.07 1.08 1.09 1.10 1.14 1.19 1.20 1.20 1.21 1.21 1.20 1.19 1.19 1.20 1.22 1.23 1.20 1.19
1.23 1.21 1.20 1.19 1.20 1.19 1.21 1.21 1.19 1.17 1.15 1.12 1.14 1.12 1.10 1.08 1.09 1.08 1.09 1.07 1.06 1.06 1.05 1.05 1.06 1.08 1.09 1.10 1.13 1.16 1.17 1.16 1.15 1.15 1.14 1.14 1.14 1.15 1.17 1.18 1.15 1.10
1.22 1.24 1.23 1.21 1.21 1.23 1.22 1.21 1.20 1.18 1.16 1.15 1.15 1.10 1.08 1.06 1.05 1.04 1.06 1.07 1.06 1.05 1.05 1.07 1.08 1.08 1.08 1.09 1.11 1.13 1.14 1.13 1.13 1.10 1.08 1.08 1.07 1.09 1.11 1.11 1.12 1.11
1.24 1.26 1.27 1.24 1.23 1.22 1.21 1.20 1.20 1.19 1.19 1.17 1.14 1.11 1.10 1.09 1.08 1.07 1.04 1.04 1.05 1.05 1.05 1.07 1.07 1.06 1.08 1.07 1.06 1.07 1.09 1.08 1.07 1.05 1.03 1.02 1.03 1.06 1.09 1.09 1.09 1.10
1.26 1.24 1.23 1.23 1.22 1.20 1.20 1.21 1.21 1.20 1.18 1.15 1.13 1.11 1.11 1.10 1.08 1.08 1.06 1.02 1.00 1.02 1.04 1.06 1.06 1.07 1.06 1.05 1.06 1.05 1.06 1.06 1.06 1.05 1.03 1.01 1.01 1.01 1.03 1.06 1.06 1.06
1.32 1.26 1.24 1.22 1.22 1.22 1.23 1.22 1.20 1.20 1.17 1.14 1.12 1.10 1.08 1.08 1.08 1.05 1.03 1.02 1.00 0.99 1.00 1.02 1.05 1.05 1.03 1.04 1.04 1.05 1.07 1.07 1.04 1.03 1.03 1.02 1.00 0.99 0.96 0.99 1.04 1.06
1.35 1.31 1.25 1.23 1.24 1.23 1.23 1.23 1.23 1.21 1.16 1.13 1.11 1.08 1.08 1.09 1.06 1.03 1.03 1.02 1.02 1.01 1.00 1.00 1.01 1.00 1.01 1.01 1.02 1.02 1.04 1.06 1.08 1.05 1.03 1.02 1.01 0.99 1.00 1.01 1.02 1.04
1.37 1.33 1.28 1.25 1.24 1.26 1.27 1.27 1.23 1.18 1.15 1.12 1.08 1.09 1.11 1.06 1.03 1.03 1.01 1.03 1.03 1.01 0.99 1.00 1.00 0.99 0.98 0.98 0.99 0.99 1.00 1.04 1.05 1.06 1.03 1.00 1.00 1.00 1.00 1.02 1.04 1.03
1.36 1.33 1.28 1.26 1.27 1.29 1.28 1.24 1.19 1.14 1.14 1.15 1.14 1.14 1.10 1.07 1.07 1.05 1.04 1.05 1.05 1.04 1.03 1.04 1.03 1.02 0.98 0.96 0.97 0.98 0.99 1.01 1.02 1.03 1.03 1.02 1.01 1.02 1.03 1.04 1.05 1.04
1.31 1.28 1.24 1.24 1.25 1.25 1.23 1.19 1.16 1.15 1.15 1.15 1.14 1.12 1.10 1.07 1.06 1.05 1.06 1.08 1.09 1.10 1.09 1.07 1.07 1.05 1.03 1.00 0.99 0.98 1.00 1.02 1.03 1.03 1.03 1.03 1.04 1.06 1.07 1.08 1.10 1.12
1.17 1.16 1.16 1.18 1.18 1.18 1.16 1.14 1.14 1.14 1.12 1.15 1.15 1.15 1.16 1.15 1.14 1.14 1.13 1.13 1.14 1.13 1.11 1.08 1.09 1.09 1.07 1.04 1.03 1.03 1.04 1.04 1.03 1.01 1.00 1.01 1.03 1.07 1.11 1.15 1.18 1.19
1.14 1.10 1.10 1.11 1.13 1.12 1.11 1.11 1.11 1.13 1.15 1.20 1.15 1.14 1.14 1.12 1.12 1.15 1.17 1.16 1.15 1.16 1.14 1.12 1.11 1.13 1.10 1.08 1.07 1.09 1.09 1.06 1.03 1.02 1.01 1.01 1.02 1.08 1.14 1.19 1.23 1.24
1.28 1.26 1.22 1.22 1.21 1.16 1.15 1.16 1.18 1.20 1.18 1.22 1.14 1.13 1.11 1.14 1.18 1.20 1.21 1.21 1.19 1.18 1.19 1.15 1.13 1.17 1.15 1.13 1.13 1.14 1.13 1.09 1.07 1.05 1.02 1.02 1.04 1.11 1.18 1.22 1.24 1.24
1.36 1.35 1.32 1.30 1.28 1.28 1.31 1.30 1.30 1.28 1.28 1.30 1.25 1.23 1.21 1.24 1.25 1.23 1.23 1.26 1.27 1.27 1.28 1.24 1.21 1.23 1.22 1.19 1.19 1.18 1.17 1.16 1.13 1.09 1.04 1.03 1.06 1.09 1.18 1.22 1.24 1.25
1.43 1.42 1.41 1.38 1.36 1.38 1.40 1.40 1.44 1.43 1.41 1.40 1.41 1.41 1.38 1.37 1.36 1.34 1.30 1.30 1.34 1.34 1.32 1.30 1.26 1.25 1.26 1.22 1.22 1.22 1.21 1.21 1.20 1.13 1.06 1.05 1.10 1.12 1.13 1.20 1.24 1.26

ECMWFNIL_prec_pwat_054.txt.gz
Precipitable_Water
1.46 1.44 1.39 1.36 1.32 1.28 1.24 1.20 1.19 1.17 1.17 1.18 1.17 1.23 1.30 1.41 1.47 1.51 1.54 1.55 1.54 1.54 1.58 1.59 1.62 1.62 1.62 1.61 1.61 1.59 1.58 1.54 1.52 1.58 1.58 1.58 1.58 1.56 1.53 1.49 1.48 1.45
1.47 1.47 1.44 1.41 1.37 1.35 1.30 1.28 1.24 1.21 1.20 1.17 1.18 1.27 1.36 1.40 1.46 1.44 1.47 1.48 1.51 1.50 1.56 1.59 1.61 1.61 1.60 1.59 1.60 1.57 1.55 1.54 1.51 1.58 1.55 1.56 1.57 1.57 1.54 1.52 1.49 1.50
1.47 1.45 1.44 1.38 1.33 1.29 1.28 1.30 1.31 1.27 1.23 1.21 1.20 1.24 1.35 1.41 1.42 1.44 1.43 1.43 1.43 1.47 1.52 1.56 1.60 1.60 1.60 1.59 1.60 1.58 1.55 1.53 1.49 1.55 1.55 1.54 1.58 1.58 1.59 1.57 1.54 1.51
1.43 1.45 1.43 1.41 1.38 1.34 1.34 1.33 1.33 1.30 1.25 1.23 1.20 1.23 1.29 1.38 1.40 1.41 1.39 1.38 1.39 1.41 1.48 1.53 1.53 1.57 1.59 1.59 1.58 1.54 1.56 1.56 1.56 1.56 1.55 1.57 1.57 1.58 1.59 1.59 1.56 1.56
1.40 1.42 1.45 1.46 1.44 1.42 1.42 1.36 1.32 1.29 1.23 1.20 1.23 1.26 1.29 1.31 1.34 1.36 1.37 1.38 1.35 1.36 1.39 1.43 1.48 1.48 1.51 1.52 1.54 1.50 1.52 1.52 1.53 1.50 1.49 1.52 1.55 1.54 1.55 1.56 1.54 1.50
1.40 1.42 1.45 1.46 1.45 1.42 1.41 1.37 1.34 1.32 1.28 1.23 1.23 1.29 1.29 1.30 1.29 1.29 1.33 1.34 1.35 1.31 1.32 1.36 1.38 1.40 1.42 1.44 1.46 1.45 1.47 1.47 1.49 1.49 1.43 1.41 1.48 1.55 1.54 1.54 1.52 1.48
1.33 1.37 1.41 1.45 1.43 1.43 1.39 1.38 1.37 1.35 1.34 1.31 1.32 1.29 1.31 1.29 1.27 1.26 1.29 1.30 1.29 1.31 1.27 1.29 1.33 1.34 1.37 1.39 1.40 1.39 1.40 1.42 1.45 1.48 1.43 1.42 1.42 1.45 1.50 1.51 1.48 1.48
1.32 1.35 1.38 1.42 1.39 1.40 1.37 1.37 1.37 1.36 1.37 1.37 1.32 1.33 1.33 1.29 1.28 1.28 1.27 1.28 1.26 1.25 1.27 1.29 1.30 1.31 1.31 1.33 1.33 1.32 1.33 1.38 1.35 1.34 1.35 1.37 1.39 1.37 1.40 1.43 1.44 1.41
1.33 1.34 1.35 1.35 1.35 1.35 1.34 1.35 1.36 1.36 1.37 1.33 1.31 1.32 1.34 1.30 1.29 1.28 1.28 1.27 1.24 1.24 1.26 1.26 1.27 1.28 1.28 1.27 1.29 1.29 1.27 1.29 1.31 1.30 1.29 1.30 1.32 1.32 1.36 1.41 1.39 1.37
1.29 1.32 1.31 1.31 1.29 1.31 1.31 1.33 1.34 1.34 1.35 1.31 1.30 1.32 1.30 1.29 1.28 1.28 1.28 1.26 1.23 1.23 1.24 1.23 1.23 1.21 1.22 1.24 1.21 1.22 1.25 1.25 1.24 1.27 1.29 1.29 1.30 1.34 1.38 1.40 1.38 1.37
1.26 1.28 1.27 1.27 1.25 1.27 1.28 1.31 1.32 1.33 1.34 1.29 1.28 1.26 1.28 1.27 1.25 1.26 1.25 1.24 1.21 1.20 1.20 1.19 1.18 1.17 1.14 1.14 1.17 1.20 1.21 1.21 1.22 1.24 1.25 1.26 1.28 1.31 1.35 1.38 1.39 1.38
1.25 1.25 1.25 1.24 1.23 1.24 1.26 1.30 1.32 1.32 1.33 1.30 1.27 1.23 1.23 1.23 1.21 1.20 1.19 1.18 1.19 1.20 1.20 1.18 1.17 1.16 1.13 1.11 1.12 1.16 1.17 1.17 1.20 1.22 1.23 1.24 1.25 1.27 1.31 1.34 1.34 1.34
1.23 1.22 1.24 1.24 1.25 1.25 1.28 1.30 1.29 1.30 1.31 1.29 1.26 1.22 1.19 1.17 1.19 1.17 1.18 1.16 1.18 1.19 1.18 1.17 1.16 1.15 1.13 1.11 1.10 1.11 1.14 1.13 1.12 1.16 1.19 1.21 1.23 1.23 1.26 1.30 1.31 1.30
1.23 1.25 1.25 1.26 1.27 1.28 1.28 1.28 1.28 1.28 1.30 1.31 1.29 1.21 1.18 1.16 1.15 1.14 1.16 1.17 1.17 1.16 1.17 1.17 1.16 1.14 1.13 1.13 1.11 1.10 1.09 1.10 1.09 1.09 1.11 1.16 1.19 1.21 1.22 1.22 1.24 1.25
1.28 1.30 1.30 1.29 1.29 1.28 1.27 1.27 1.26 1.27 1.28 1.28 1.26 1.21 1.20 1.18 1.18 1.17 1.15 1.14 1.15 1.15 1.14 1.14 1.13 1.12 1.13 1.12 1.10 1.09 1.08 1.05 1.06 1.07 1.06 1.09 1.14 1.18 1.20 1.18 1.16 1.17
1.33 1.30 1.27 1.27 1.26 1.25 1.25 1.26 1.27 1.26 1.25 1.23 1.22 1.19 1.18 1.18 1.17 1.17 1.15 1.12 1.10 1.10 1.10 1.11 1.09 1.11 1.10 1.07 1.09 1.08 1.06 1.03 1.05 1.05 1.07 1.09 1.12 1.11 1.12 1.15 1.16 1.15
1.36 1.31 1.29 1.24 1.23 1.24 1.25 1.26 1.26 1.26 1.25 1.22 1.21 1.18 1.16 1.16 1.14 1.12 1.10 1.12 1.10 1.07 1.06 1.06 1.06 1.06 1.04 1.01 1.00 1.02 1.05 1.06 1.01 1.01 1.05 1.08 1.09 1.06 1.03 1.05 1.09 1.12
1.40 1.35 1.28 1.24 1.25 1.23 1.24 1.25 1.27 1.26 1.23 1.21 1.19 1.17 1.17 1.18 1.13 1.11 1.11 1.12 1.12 1.10 1.07 1.05 1.05 1.05 1.01 0.98 0.96 0.96 0.98 1.01 1.05 1.02 1.03 1.06 1.06 1.03 1.02 1.02 1.03 1.05
1.43 1.39 1.33 1.27 1.24 1.24 1.26 1.27 1.25 1.23 1.20 1.19 1.16 1.19 1.20 1.15 1.12 1.13 1.12 1.12 1.11 1.07 1.05 1.06 1.06 1.07 1.01 0.97 0.95 0.95 0.95 0.97 1.00 1.03 1.04 1.04 1.05 1.04 1.03 1.04 1.04 1.03
1.44 1.41 1.38 1.34 1.30 1.28 1.26 1.23 1.21 1.17 1.18 1.20 1.22 1.23 1.18 1.14 1.15 1.13 1.13 1.11 1.09 1.08 1.05 1.06 1.07 1.09 1.03 0.98 0.97 0.96 0.97 0.99 1.00 1.01 1.03 1.05 1.07 1.08 1.08 1.07 1.07 1.04
1.46 1.43 1.41 1.42 1.39 1.31 1.25 1.20 1.17 1.18 1.19 1.21 1.20 1.18 1.15 1.13 1.13 1.12 1.12 1.12 1.11 1.10 1.07 1.04 1.05 1.08 1.04 1.01 0.99 0.99 1.00 1.03 1.06 1.06 1.05 1.05 1.07 1.09 1.09 1.10 1.11 1.11
1.46 1.42 1.41 1.43 1.42 1.37 1.27 1.19 1.19 1.18 1.17 1.21 1.21 1.22 1.22 1.22 1.20 1.18 1.14 1.12 1.12 1.10 1.06 1.03 1.05 1.07 1.05 1.03 1.01 1.02 1.05 1.08 1.09 1.06 1.03 1.04 1.05 1.07 1.09 1.12 1.13 1.13
1.49 1.43 1.40 1.40 1.41 1.37 1.30 1.24 1.21 1.21 1.23 1.27 1.21 1.19 1.19 1.17 1.16 1.15 1.16 1.14 1.11 1.09 1.05 1.04 1.05 1.09 1.07 1.05 1.04 1.06 1.08 1.09 1.08 1.07 1.04 1.02 1.02 1.05 1.10 1.12 1.14 1.15
1.48 1.44 1.39 1.38 1.38 1.34 1.31 1.29 1.29 1.29 1.27 1.28 1.19 1.16 1.15 1.17 1.18 1.16 1.16 1.14 1.11 1.09 1.09 1.05 1.05 1.12 1.11 1.08 1.09 1.10 1.11 1.10 1.10 1.07 1.04 1.02 1.02 1.05 1.09 1.11 1.13 1.14
1.42 1.41 1.39 1.37 1.34 1.34 1.35 1.31 1.29 1.27 1.29 1.31 1.26 1.22 1.18 1.19 1.18 1.14 1.14 1.15 1.14 1.14 1.14 1.10 1.10 1.17 1.17 1.13 1.12 1.13 1.15 1.17 1.15 1.11 1.06 1.04 1.03 1.02 1.07 1.10 1.12 1.14
1.31 1.31 1.32 1.32 1.31 1.33 1.36 1.34 1.34 1.34 1.31 1.26 1.24 1.22 1.17 1.16 1.16 1.14 1.11 1.13 1.16 1.17 1.18 1.16 1.15 1.20 1.21 1.17 1.15 1.15 1.16 1.18 1.19 1.14 1.10 1.07 1.07 1.05 1.05 1.10 1.12 1.15

ECMWFNIL_prec_pwat_057.txt.gz
Precipitable_Water
1.29 1.30 1.23 1.20 1.17 1.17 1.19 1.24 1.25 1.21 1.15 1.18 1.19 1.22 1.21 1.36 1.43 1.57 1.61 1.65 1.61 1.59 1.62 1.67 1.67 1.65 1.68 1.67 1.64 1.58 1.59 1.55 1.59 1.64 1.60 1.63 1.58 1.59 1.54 1.52 1.49 1.43
1.33 1.33 1.32 1.29 1.27 1.26 1.25 1.27 1.27 1.23 1.20 1.15 1.20 1.28 1.28 1.34 1.43 1.46 1.53 1.57 1.61 1.56 1.60 1.63 1.64 1.64 1.65 1.65 1.63 1.60 1.57 1.56 1.50 1.62 1.57 1.56 1.60 1.58 1.56 1.56 1.53 1.50
1.36 1.35 1.34 1.29 1.28 1.27 1.24 1.28 1.28 1.27 1.23 1.20 1.19 1.26 1.31 1.32 1.40 1.44 1.47 1.51 1.55 1.58 1.59 1.59 1.61 1.62 1.63 1.64 1.65 1.62 1.59 1.56 1.52 1.61 1.57 1.55 1.61 1.58 1.61 1.64 1.52 1.55
1.38 1.38 1.38 1.36 1.35 1.34 1.32 1.29 1.29 1.28 1.26 1.25 1.21 1.21 1.26 1.35 1.40 1.45 1.44 1.44 1.46 1.49 1.53 1.56 1.58 1.64 1.64 1.64 1.64 1.63 1.62 1.59 1.60 1.61 1.56 1.58 1.57 1.60 1.61 1.62 1.64 1.59
1.36 1.39 1.42 1.43 1.41 1.43 1.42 1.35 1.31 1.30 1.24 1.27 1.29 1.24 1.22 1.28 1.37 1.40 1.44 1.43 1.38 1.40 1.43 1.48 1.52 1.56 1.63 1.64 1.62 1.56 1.58 1.57 1.58 1.57 1.52 1.52 1.56 1.56 1.59 1.59 1.57 1.56
1.38 1.41 1.44 1.42 1.43 1.44 1.43 1.40 1.33 1.33 1.29 1.26 1.30 1.31 1.25 1.26 1.28 1.30 1.37 1.39 1.39 1.35 1.35 1.45 1.45 1.47 1.53 1.57 1.59 1.55 1.54 1.52 1.58 1.58 1.52 1.47 1.53 1.59 1.55 1.56 1.52 1.50
1.33 1.38 1.40 1.44 1.44 1.46 1.44 1.43 1.37 1.33 1.33 1.29 1.34 1.29 1.31 1.26 1.25 1.27 1.31 1.33 1.35 1.35 1.32 1.34 1.37 1.40 1.46 1.48 1.50 1.49 1.49 1.47 1.52 1.57 1.52 1.45 1.43 1.47 1.53 1.55 1.53 1.50
1.31 1.35 1.38 1.41 1.40 1.45 1.41 1.42 1.38 1.33 1.35 1.35 1.30 1.33 1.33 1.31 1.27 1.26 1.27 1.29 1.29 1.31 1.32 1.33 1.33 1.33 1.38 1.40 1.41 1.39 1.39 1.43 1.41 1.47 1.51 1.47 1.44 1.36 1.40 1.49 1.52 1.49
1.32 1.33 1.34 1.34 1.35 1.38 1.36 1.38 1.39 1.38 1.37 1.35 1.31 1.33 1.33 1.31 1.34 1.27 1.25 1.28 1.26 1.29 1.28 1.27 1.31 1.31 1.30 1.31 1.33 1.33 1.32 1.34 1.37 1.38 1.39 1.38 1.36 1.34 1.35 1.38 1.38 1.41
1.28 1.32 1.30 1.30 1.30 1.33 1.34 1.34 1.39 1.42 1.40 1.37 1.34 1.32 1.36 1.36 1.35 1.36 1.30 1.25 1.24 1.25 1.27 1.23 1.26 1.29 1.28 1.26 1.25 1.26 1.26 1.26 1.28 1.29 1.33 1.35 1.34 1.32 1.33 1.33 1.32 1.34
1.23 1.27 1.27 1.27 1.26 1.29 1.31 1.34 1.34 1.39 1.43 1.38 1.35 1.28 1.33 1.42 1.39 1.38 1.36 1.29 1.21 1.19 1.22 1.22 1.23 1.25 1.25 1.24 1.24 1.25 1.24 1.23 1.22 1.23 1.25 1.28 1.31 1.33 1.36 1.36 1.36 1.35
1.20 1.21 1.23 1.24 1.23 1.24 1.26 1.29 1.30 1.33 1.39 1.42 1.37 1.29 1.29 1.34 1.42 1.37 1.35 1.34 1.26 1.21 1.20 1.21 1.23 1.24 1.23 1.22 1.22 1.23 1.21 1.20 1.21 1.19 1.20 1.23 1.26 1.27 1.30 1.33 1.33 1.35
1.20 1.18 1.20 1.23 1.22 1.23 1.25 1.26 1.27 1.29 1.34 1.38 1.39 1.33 1.26 1.24 1.33 1.39 1.36 1.34 1.29 1.25 1.21 1.20 1.21 1.22 1.23 1.21 1.21 1.21 1.21 1.18 1.15 1.15 1.15 1.19 1.22 1.24 1.26 1.30 1.31 1.31
1.20 1.20 1.20 1.22 1.25 1.24 1.25 1.26 1.25 1.24 1.29 1.36 1.42 1.35 1.28 1.23 1.25 1.32 1.36 1.33 1.29 1.24 1.23 1.24 1.22 1.21 1.23 1.23 1.19 1.17 1.18 1.18 1.14 1.13 1.13 1.16 1.18 1.22 1.23 1.25 1.29 1.30
1.25 1.26 1.24 1.24 1.27 1.25 1.22 1.23 1.24 1.22 1.26 1.32 1.38 1.37 1.33 1.28 1.25 1.31 1.35 1.30 1.28 1.24 1.22 1.23 1.22 1.19 1.20 1.20 1.16 1.13 1.12 1.12 1.15 1.11 1.08 1.08 1.10 1.14 1.20 1.18 1.19 1.23
1.34 1.30 1.26 1.24 1.24 1.24 1.21 1.22 1.24 1.23 1.23 1.24 1.31 1.34 1.32 1.30 1.26 1.27 1.30 1.32 1.25 1.22 1.20 1.19 1.19 1.18 1.15 1.14 1.14 1.13 1.06 1.05 1.10 1.11 1.09 1.06 1.07 1.08 1.11 1.18 1.18 1.14
1.41 1.38 1.35 1.25 1.23 1.24 1.23 1.23 1.24 1.24 1.22 1.21 1.27 1.31 1.29 1.27 1.23 1.20 1.22 1.29 1.29 1.22 1.17 1.15 1.13 1.12 1.11 1.08 1.08 1.08 1.09 1.04 1.01 1.07 1.08 1.07 1.05 1.05 1.03 1.06 1.11 1.15
1.48 1.44 1.38 1.31 1.28 1.25 1.23 1.21 1.25 1.26 1.23 1.20 1.22 1.26 1.27 1.27 1.19 1.17 1.17 1.21 1.27 1.26 1.21 1.15 1.11 1.10 1.09 1.06 1.03 1.01 1.01 1.04 1.05 1.02 1.07 1.09 1.07 1.04 1.07 1.07 1.05 1.05
1.55 1.48 1.43 1.40 1.33 1.29 1.27 1.25 1.25 1.25 1.23 1.22 1.20 1.26 1.27 1.20 1.17 1.16 1.16 1.17 1.18 1.22 1.22 1.21 1.14 1.12 1.07 1.05 1.00 0.97 0.94 0.97 1.03 1.06 1.03 1.06 1.11 1.10 1.06 1.08 1.07 1.03
1.61 1.56 1.49 1.45 1.42 1.38 1.32 1.26 1.22 1.22 1.23 1.25 1.26 1.29 1.25 1.18 1.18 1.16 1.16 1.14 1.13 1.17 1.18 1.19 1.17 1.14 1.09 1.04 0.99 0.95 0.93 0.94 0.96 1.03 1.07 1.07 1.12 1.16 1.15 1.11 1.08 1.05
1.68 1.64 1.57 1.53 1.49 1.44 1.36 1.26 1.21 1.22 1.24 1.27 1.26 1.25 1.22 1.18 1.16 1.15 1.16 1.14 1.11 1.13 1.17 1.14 1.11 1.17 1.13 1.08 1.02 0.97 0.94 0.95 0.98 1.01 1.05 1.08 1.14 1.18 1.20 1.17 1.17 1.14
1.71 1.68 1.66 1.62 1.54 1.48 1.40 1.30 1.24 1.22 1.21 1.26 1.26 1.28 1.30 1.28 1.22 1.20 1.18 1.15 1.14 1.12 1.10 1.09 1.11 1.15 1.16 1.13 1.07 1.01 0.99 1.00 1.02 1.02 1.00 1.03 1.08 1.13 1.17 1.19 1.18 1.17
1.75 1.71 1.68 1.65 1.59 1.50 1.42 1.36 1.29 1.25 1.25 1.30 1.23 1.22 1.26 1.26 1.22 1.18 1.21 1.20 1.17 1.14 1.07 1.09 1.11 1.11 1.10 1.09 1.05 1.04 1.03 1.05 1.05 1.03 1.02 1.01 1.03 1.09 1.13 1.15 1.15 1.14
1.77 1.75 1.71 1.69 1.63 1.52 1.44 1.41 1.41 1.38 1.30 1.31 1.21 1.17 1.18 1.25 1.27 1.23 1.22 1.22 1.18 1.14 1.11 1.06 1.07 1.13 1.07 1.04 1.03 1.03 1.03 1.03 1.05 1.04 1.04 1.03 1.04 1.08 1.14 1.15 1.13 1.11
1.79 1.78 1.74 1.71 1.65 1.58 1.52 1.45 1.42 1.43 1.41 1.35 1.27 1.23 1.20 1.24 1.31 1.28 1.24 1.24 1.23 1.21 1.17 1.09 1.06 1.12 1.10 1.06 1.03 1.03 1.04 1.08 1.10 1.09 1.05 1.06 1.06 1.06 1.11 1.12 1.13 1.11
1.78 1.74 1.75 1.74 1.70 1.67 1.62 1.55 1.51 1.50 1.48 1.41 1.32 1.25 1.21 1.23 1.28 1.29 1.28 1.28 1.28 1.28 1.26 1.16 1.07 1.11 1.10 1.05 1.04 1.03 1.05 1.10 1.15 1.10 1.06 1.06 1.07 1.07 1.09 1.11 1.11 1.11

ECMWFNIL_prec_pwat_060.txt.gz
Precipitable_Water
0.91 0.88 0.86 0.84 0.85 0.84 0.93 1.01 1.03 1.00 1.00 1.03 1.04 1.07 1.11 1.23 1.35 1.45 1.51 1.56 1.52 1.51 1.59 1.63 1.60 1.59 1.59 1.57 1.55 1.53 1.57 1.53 1.59 1.59 1.57 1.61 1.60 1.69 1.61 1.49 1.37 1.36
0.95 0.92 0.90 0.88 0.88 0.89 0.93 1.03 1.06 1.04 1.03 1.04 1.09 1.15 1.14 1.21 1.26 1.40 1.43 1.53 1.57 1.51 1.55 1.58 1.60 1.59 1.59 1.56 1.52 1.47 1.47 1.50 1.49 1.57 1.52 1.56 1.59 1.64 1.63 1.60 1.51 1.44
1.07 1.02 0.95 0.90 0.89 0.92 0.92 1.01 1.07 1.11 1.11 1.08 1.12 1.20 1.20 1.23 1.23 1.31 1.36 1.44 1.51 1.55 1.52 1.54 1.56 1.56 1.55 1.56 1.55 1.49 1.44 1.45 1.42 1.54 1.52 1.50 1.59 1.58 1.65 1.63 1.52 1.49
1.15 1.13 1.06 1.00 1.00 1.00 0.99 1.01 1.07 1.15 1.17 1.14 1.11 1.18 1.24 1.25 1.26 1.27 1.29 1.33 1.42 1.49 1.52 1.51 1.51 1.54 1.52 1.52 1.54 1.53 1.51 1.49 1.48 1.51 1.50 1.50 1.52 1.57 1.63 1.66 1.61 1.55
1.19 1.19 1.18 1.15 1.14 1.14 1.10 1.06 1.09 1.16 1.15 1.18 1.17 1.15 1.20 1.26 1.27 1.29 1.28 1.28 1.35 1.40 1.46 1.47 1.49 1.49 1.51 1.50 1.51 1.50 1.53 1.51 1.51 1.49 1.45 1.44 1.48 1.49 1.56 1.62 1.59 1.59
1.25 1.24 1.26 1.22 1.21 1.20 1.19 1.14 1.14 1.18 1.17 1.19 1.18 1.17 1.16 1.24 1.26 1.27 1.28 1.28 1.31 1.35 1.36 1.38 1.43 1.45 1.48 1.49 1.50 1.49 1.48 1.47 1.52 1.48 1.41 1.41 1.43 1.49 1.50 1.54 1.53 1.52
1.23 1.23 1.25 1.27 1.24 1.26 1.24 1.23 1.21 1.22 1.24 1.22 1.23 1.19 1.17 1.17 1.24 1.24 1.28 1.30 1.31 1.33 1.31 1.29 1.33 1.35 1.41 1.43 1.44 1.44 1.45 1.43 1.47 1.49 1.45 1.41 1.41 1.45 1.48 1.49 1.48 1.43
1.24 1.23 1.26 1.27 1.24 1.26 1.25 1.29 1.27 1.25 1.29 1.27 1.24 1.24 1.23 1.18 1.21 1.25 1.29 1.29 1.31 1.31 1.30 1.31 1.32 1.33 1.35 1.37 1.35 1.35 1.38 1.41 1.39 1.41 1.39 1.42 1.44 1.37 1.40 1.44 1.46 1.43
1.29 1.24 1.24 1.26 1.23 1.26 1.25 1.29 1.29 1.28 1.33 1.29 1.27 1.27 1.28 1.22 1.20 1.21 1.25 1.26 1.25 1.27 1.27 1.30 1.34 1.33 1.33 1.32 1.31 1.29 1.29 1.31 1.30 1.32 1.29 1.29 1.34 1.35 1.33 1.33 1.34 1.37
1.25 1.28 1.24 1.23 1.21 1.22 1.24 1.29 1.34 1.32 1.34 1.34 1.31 1.32 1.27 1.25 1.23 1.22 1.25 1.25 1.21 1.24 1.24 1.24 1.30 1.32 1.32 1.30 1.25 1.22 1.21 1.22 1.26 1.26 1.27 1.28 1.28 1.29 1.29 1.30 1.27 1.23
1.21 1.21 1.20 1.19 1.18 1.21 1.24 1.29 1.33 1.36 1.35 1.34 1.33 1.29 1.30 1.25 1.24 1.26 1.27 1.26 1.21 1.21 1.21 1.20 1.25 1.25 1.24 1.24 1.24 1.22 1.18 1.17 1.18 1.19 1.19 1.21 1.24 1.25 1.26 1.26 1.24 1.22
1.15 1.16 1.16 1.16 1.16 1.18 1.22 1.26 1.31 1.35 1.33 1.33 1.33 1.26 1.30 1.28 1.24 1.26 1.27 1.26 1.23 1.22 1.23 1.18 1.20 1.22 1.20 1.19 1.21 1.21 1.20 1.17 1.15 1.15 1.14 1.15 1.17 1.18 1.21 1.24 1.21 1.21
1.10 1.10 1.13 1.15 1.16 1.18 1.23 1.27 1.29 1.32 1.32 1.28 1.30 1.28 1.26 1.28 1.26 1.27 1.30 1.30 1.26 1.24 1.24 1.22 1.19 1.20 1.20 1.19 1.20 1.21 1.18 1.15 1.14 1.13 1.11 1.12 1.12 1.14 1.18 1.19 1.18 1.17
1.12 1.09 1.12 1.15 1.17 1.19 1.21 1.25 1.26 1.29 1.30 1.29 1.29 1.28 1.25 1.27 1.28 1.25 1.30 1.33 1.32 1.28 1.27 1.28 1.24 1.21 1.21 1.20 1.19 1.19 1.17 1.16 1.16 1.14 1.11 1.08 1.09 1.11 1.13 1.16 1.15 1.15
1.20 1.19 1.19 1.20 1.17 1.16 1.19 1.22 1.23 1.25 1.26 1.28 1.27 1.27 1.30 1.27 1.32 1.33 1.29 1.30 1.34 1.33 1.31 1.32 1.29 1.24 1.23 1.21 1.17 1.15 1.15 1.14 1.13 1.12 1.11 1.08 1.07 1.08 1.12 1.15 1.17 1.16
1.31 1.25 1.21 1.20 1.17 1.15 1.16 1.19 1.22 1.23 1.25 1.26 1.25 1.25 1.29 1.30 1.28 1.35 1.34 1.28 1.28 1.33 1.36 1.35 1.31 1.30 1.26 1.22 1.15 1.10 1.10 1.11 1.13 1.10 1.08 1.07 1.04 1.04 1.07 1.10 1.09 1.13
1.42 1.33 1.27 1.20 1.17 1.16 1.16 1.17 1.20 1.22 1.23 1.24 1.25 1.23 1.26 1.30 1.28 1.28 1.34 1.34 1.28 1.30 1.32 1.33 1.33 1.32 1.28 1.21 1.15 1.10 1.07 1.05 1.08 1.09 1.09 1.07 1.07 1.06 1.01 1.05 1.08 1.07
1.50 1.42 1.33 1.27 1.22 1.18 1.14 1.14 1.18 1.20 1.21 1.22 1.23 1.21 1.21 1.27 1.26 1.24 1.28 1.34 1.32 1.33 1.33 1.33 1.31 1.32 1.29 1.24 1.19 1.13 1.07 1.02 1.03 1.07 1.09 1.08 1.06 1.06 1.07 1.05 1.05 1.07
1.61 1.50 1.40 1.35 1.29 1.23 1.20 1.17 1.16 1.17 1.18 1.18 1.20 1.23 1.22 1.21 1.21 1.23 1.23 1.29 1.31 1.29 1.30 1.33 1.31 1.31 1.28 1.24 1.20 1.15 1.10 1.04 1.01 0.99 1.03 1.06 1.05 1.05 1.05 1.06 1.03 0.99
1.68 1.60 1.49 1.42 1.38 1.34 1.27 1.20 1.15 1.14 1.15 1.18 1.20 1.25 1.23 1.20 1.21 1.20 1.21 1.21 1.25 1.26 1.24 1.28 1.29 1.32 1.29 1.24 1.18 1.14 1.10 1.07 1.03 1.01 0.99 1.01 1.05 1.07 1.07 1.06 1.06 1.03
1.71 1.66 1.59 1.52 1.48 1.43 1.36 1.25 1.18 1.16 1.16 1.16 1.16 1.17 1.19 1.19 1.19 1.19 1.20 1.21 1.21 1.25 1.23 1.19 1.23 1.25 1.25 1.25 1.21 1.15 1.10 1.07 1.05 1.06 1.05 1.02 1.05 1.11 1.12 1.09 1.09 1.09
1.72 1.69 1.66 1.61 1.55 1.51 1.44 1.35 1.27 1.21 1.16 1.16 1.16 1.17 1.22 1.25 1.25 1.24 1.21 1.19 1.19 1.20 1.22 1.19 1.19 1.21 1.20 1.19 1.18 1.16 1.13 1.10 1.06 1.02 1.01 1.04 1.08 1.11 1.13 1.16 1.16 1.12
1.74 1.70 1.68 1.66 1.63 1.56 1.50 1.45 1.38 1.31 1.28 1.26 1.17 1.17 1.19 1.21 1.22 1.23 1.26 1.23 1.19 1.18 1.16 1.17 1.18 1.19 1.19 1.17 1.14 1.13 1.12 1.11 1.08 1.03 0.97 0.93 0.99 1.10 1.15 1.18 1.17 1.15
1.75 1.73 1.69 1.69 1.68 1.61 1.57 1.55 1.52 1.47 1.39 1.35 1.24 1.20 1.20 1.23 1.25 1.24 1.26 1.24 1.20 1.17 1.15 1.10 1.14 1.18 1.17 1.16 1.14 1.12 1.12 1.12 1.10 1.05 0.98 0.93 0.94 1.03 1.13 1.16 1.16 1.15
1.78 1.76 1.74 1.72 1.69 1.68 1.67 1.62 1.60 1.56 1.53 1.49 1.37 1.32 1.32 1.35 1.32 1.25 1.21 1.23 1.22 1.19 1.16 1.11 1.09 1.16 1.16 1.14 1.12 1.12 1.13 1.16 1.15 1.11 1.02 0.97 0.96 0.96 1.03 1.08 1.11 1.12
1.82 1.78 1.77 1.75 1.75 1.77 1.79 1.76 1.74 1.69 1.63 1.57 1.50 1.42 1.37 1.39 1.38 1.31 1.25 1.21 1.23 1.22 1.20 1.15 1.08 1.13 1.13 1.12 1.10 1.10 1.13 1.17 1.17 1.11 1.02 0.97 0.96 0.95 0.94 0.97 1.01 1.05

ECMWFNIL_prec_pwat_063.txt.gz
Precipitable_Water
0.89 0.91 0.86 0.87 0.92 0.93 0.90 0.89 0.92 0.95 0.93 1.00 1.00 1.06 1.10 1.16 1.27 1.35 1.45 1.49 1.46 1.50 1.53 1.50 1.56 1.48 1.50 1.54 1.55 1.59 1.55 1.53 1.50 1.58 1.59 1.60 1.57 1.49 1.35 1.30 1.37 1.39
0.89 0.89 0.88 0.87 0.89 0.94 0.93 0.90 0.88 0.90 0.93 0.93 0.98 1.05 1.11 1.15 1.24 1.29 1.35 1.43 1.46 1.43 1.51 1.51 1.54 1.53 1.49 1.49 1.47 1.49 1.53 1.52 1.50 1.58 1.54 1.57 1.58 1.59 1.51 1.41 1.38 1.42
0.94 0.89 0.88 0.84 0.81 0.86 0.90 0.91 0.90 0.87 0.89 0.93 0.96 0.98 1.05 1.13 1.19 1.26 1.33 1.37 1.42 1.42 1.42 1.48 1.48 1.52 1.51 1.47 1.45 1.43 1.44 1.47 1.47 1.53 1.50 1.50 1.58 1.59 1.59 1.54 1.45 1.43
1.02 0.94 0.87 0.83 0.81 0.81 0.88 0.89 0.90 0.88 0.89 0.92 0.95 0.98 1.00 1.09 1.15 1.22 1.28 1.34 1.38 1.43 1.43 1.43 1.44 1.48 1.49 1.49 1.47 1.42 1.42 1.44 1.47 1.51 1.48 1.49 1.54 1.56 1.55 1.56 1.51 1.44
1.04 1.00 0.95 0.89 0.85 0.83 0.85 0.88 0.88 0.88 0.88 0.89 0.95 1.00 1.01 1.04 1.11 1.17 1.22 1.27 1.32 1.39 1.45 1.42 1.41 1.42 1.45 1.46 1.48 1.43 1.43 1.40 1.43 1.43 1.45 1.42 1.45 1.50 1.54 1.56 1.51 1.44
1.12 1.06 1.02 0.97 0.91 0.86 0.82 0.83 0.88 0.89 0.89 0.91 0.93 1.01 1.04 1.07 1.11 1.13 1.17 1.20 1.25 1.31 1.36 1.41 1.39 1.40 1.42 1.42 1.44 1.41 1.43 1.41 1.43 1.41 1.38 1.39 1.40 1.43 1.46 1.52 1.51 1.45
1.14 1.11 1.06 1.03 0.98 0.94 0.87 0.83 0.87 0.92 0.94 0.95 0.98 0.99 1.07 1.10 1.12 1.12 1.15 1.17 1.21 1.23 1.26 1.30 1.34 1.36 1.40 1.41 1.40 1.38 1.39 1.40 1.43 1.43 1.36 1.35 1.38 1.37 1.39 1.41 1.43 1.46
1.18 1.16 1.12 1.08 1.03 0.99 0.94 0.91 0.89 0.93 0.97 1.01 1.01 1.02 1.06 1.12 1.12 1.14 1.15 1.17 1.19 1.20 1.21 1.24 1.27 1.30 1.36 1.38 1.35 1.34 1.34 1.38 1.36 1.37 1.36 1.35 1.34 1.30 1.34 1.35 1.40 1.39
1.23 1.19 1.16 1.12 1.07 1.04 1.01 0.98 0.95 0.95 1.02 1.03 1.04 1.07 1.09 1.10 1.14 1.15 1.15 1.16 1.16 1.18 1.21 1.22 1.24 1.25 1.29 1.30 1.29 1.26 1.24 1.28 1.31 1.30 1.28 1.29 1.31 1.31 1.30 1.34 1.34 1.35
1.27 1.22 1.18 1.14 1.09 1.08 1.06 1.06 1.04 1.03 1.07 1.09 1.10 1.13 1.11 1.12 1.16 1.16 1.15 1.15 1.13 1.14 1.16 1.19 1.22 1.24 1.24 1.24 1.22 1.20 1.18 1.18 1.21 1.24 1.25 1.23 1.22 1.26 1.31 1.32 1.27 1.27
1.29 1.25 1.19 1.15 1.11 1.10 1.09 1.12 1.12 1.12 1.13 1.13 1.15 1.15 1.17 1.16 1.16 1.18 1.16 1.14 1.12 1.11 1.10 1.13 1.16 1.21 1.21 1.21 1.20 1.19 1.15 1.14 1.15 1.16 1.18 1.19 1.18 1.18 1.22 1.25 1.25 1.21
1.31 1.27 1.20 1.14 1.12 1.12 1.12 1.15 1.17 1.18 1.17 1.19 1.19 1.17 1.20 1.20 1.16 1.17 1.16 1.13 1.12 1.12 1.11 1.10 1.11 1.15 1.17 1.17 1.17 1.17 1.15 1.13 1.12 1.12 1.12 1.12 1.13 1.14 1.16 1.17 1.16 1.16
1.29 1.26 1.22 1.17 1.14 1.13 1.14 1.16 1.18 1.20 1.20 1.19 1.23 1.22 1.21 1.20 1.19 1.17 1.19 1.16 1.13 1.13 1.12 1.11 1.12 1.13 1.13 1.14 1.13 1.13 1.13 1.11 1.10 1.10 1.11 1.11 1.11 1.10 1.11 1.13 1.12 1.11
1.25 1.27 1.25 1.21 1.18 1.16 1.14 1.13 1.15 1.18 1.20 1.22 1.25 1.23 1.22 1.22 1.20 1.18 1.19 1.19 1.16 1.15 1.15 1.15 1.13 1.13 1.13 1.12 1.11 1.09 1.09 1.10 1.10 1.09 1.09 1.11 1.12 1.11 1.10 1.08 1.07 1.06
1.28 1.30 1.30 1.27 1.23 1.19 1.15 1.12 1.13 1.16 1.20 1.22 1.23 1.23 1.24 1.24 1.25 1.23 1.21 1.19 1.19 1.17 1.18 1.20 1.17 1.15 1.14 1.12 1.10 1.09 1.09 1.07 1.08 1.08 1.07 1.06 1.08 1.09 1.08 1.06 1.04 1.04
1.39 1.35 1.32 1.29 1.23 1.17 1.14 1.13 1.13 1.16 1.19 1.20 1.20 1.22 1.23 1.26 1.26 1.26 1.24 1.21 1.18 1.18 1.19 1.21 1.21 1.21 1.20 1.16 1.13 1.09 1.08 1.07 1.08 1.08 1.08 1.06 1.04 1.02 1.03 1.05 1.03 1.02
1.52 1.43 1.38 1.31 1.26 1.20 1.15 1.13 1.13 1.14 1.17 1.19 1.20 1.21 1.22 1.24 1.26 1.24 1.23 1.23 1.21 1.20 1.18 1.19 1.22 1.22 1.21 1.19 1.15 1.13 1.12 1.10 1.07 1.07 1.09 1.09 1.06 1.02 0.99 1.00 1.03 1.04
1.64 1.55 1.46 1.37 1.33 1.25 1.18 1.15 1.14 1.14 1.14 1.17 1.19 1.19 1.21 1.24 1.23 1.22 1.23 1.24 1.24 1.24 1.21 1.20 1.21 1.22 1.20 1.18 1.17 1.15 1.15 1.13 1.11 1.08 1.09 1.09 1.09 1.06 1.03 1.02 1.01 1.03
1.77 1.66 1.54 1.46 1.39 1.33 1.27 1.21 1.18 1.15 1.14 1.15 1.15 1.18 1.20 1.20 1.19 1.22 1.22 1.25 1.25 1.23 1.21 1.22 1.20 1.22 1.21 1.19 1.16 1.15 1.14 1.14 1.13 1.11 1.09 1.08 1.08 1.07 1.05 1.03 1.02 1.02
1.89 1.78 1.64 1.54 1.49 1.43 1.37 1.28 1.22 1.17 1.16 1.16 1.17 1.18 1.17 1.16 1.18 1.18 1.23 1.24 1.25 1.26 1.25 1.25 1.22 1.22 1.19 1.17 1.16 1.14 1.13 1.14 1.14 1.11 1.10 1.08 1.06 1.04 1.04 1.04 1.03 1.01
1.95 1.86 1.75 1.65 1.57 1.50 1.43 1.35 1.28 1.24 1.22 1.20 1.19 1.16 1.13 1.11 1.12 1.12 1.17 1.22 1.25 1.27 1.28 1.28 1.27 1.26 1.22 1.19 1.17 1.15 1.15 1.17 1.16 1.13 1.09 1.07 1.08 1.06 1.05 1.04 1.05 1.06
1.93 1.88 1.82 1.75 1.66 1.57 1.48 1.41 1.36 1.32 1.28 1.27 1.24 1.22 1.20 1.17 1.16 1.15 1.14 1.17 1.23 1.25 1.25 1.24 1.28 1.29 1.25 1.22 1.19 1.17 1.18 1.22 1.20 1.16 1.10 1.05 1.03 1.06 1.06 1.05 1.06 1.07
1.95 1.88 1.83 1.78 1.73 1.64 1.54 1.48 1.42 1.39 1.40 1.40 1.31 1.26 1.21 1.17 1.14 1.14 1.16 1.15 1.18 1.22 1.19 1.18 1.24 1.28 1.26 1.23 1.19 1.18 1.20 1.23 1.24 1.22 1.16 1.08 1.03 1.01 1.02 1.03 1.04 1.06
1.96 1.90 1.83 1.79 1.76 1.68 1.62 1.58 1.53 1.48 1.43 1.45 1.37 1.31 1.25 1.21 1.19 1.17 1.18 1.17 1.15 1.15 1.19 1.15 1.18 1.24 1.25 1.23 1.20 1.19 1.19 1.16 1.16 1.16 1.13 1.09 1.05 1.05 1.05 1.03 1.03 1.05
1.99 1.95 1.87 1.81 1.75 1.72 1.71 1.66 1.60 1.54 1.52 1.51 1.46 1.41 1.35 1.34 1.29 1.22 1.19 1.19 1.18 1.16 1.17 1.18 1.18 1.20 1.23 1.22 1.21 1.20 1.20 1.19 1.17 1.13 1.08 1.06 1.04 1.00 1.02 1.05 1.07 1.12
1.98 1.92 1.88 1.82 1.77 1.76 1.76 1.73 1.73 1.68 1.61 1.55 1.52 1.48 1.42 1.40 1.38 1.31 1.22 1.19 1.20 1.19 1.17 1.17 1.16 1.20 1.21 1.21 1.21 1.20 1.20 1.20 1.18 1.12 1.05 1.02 1.02 0.97 0.92 0.95 0.99 1.05

ECMWFNIL_prec_pwat_066.txt.gz
Precipitable_Water
1.01 1.01 1.00 1.00 1.00 1.01 1.00 0.95 0.96 0.98 0.99 1.03 1.03 1.08 1.10 1.18 1.34 1.42 1.46 1.49 1.49 1.46 1.44 1.43 1.48 1.50 1.54 1.54 1.49 1.49 1.52 1.54 1.54 1.55 1.49 1.40 1.29 1.24 1.22 1.22 1.23 1.23
0.95 1.00 1.01 0.99 0.97 1.00 1.01 0.99 0.95 0.95 0.95 0.99 1.01 1.06 1.11 1.15 1.22 1.33 1.40 1.44 1.47 1.45 1.46 1.44 1.45 1.45 1.46 1.49 1.49 1.46 1.48 1.51 1.49 1.57 1.51 1.48 1.42 1.32 1.23 1.25 1.28 1.33
0.90 0.94 0.98 0.96 0.92 0.92 0.96 1.01 0.99 0.96 0.95 0.97 1.01 1.04 1.08 1.13 1.17 1.22 1.29 1.39 1.43 1.44 1.46 1.48 1.46 1.45 1.44 1.44 1.47 1.47 1.46 1.47 1.46 1.52 1.52 1.50 1.50 1.42 1.31 1.28 1.32 1.36
0.89 0.88 0.91 0.94 0.95 0.90 0.91 0.94 0.98 0.98 0.98 0.99 0.98 1.00 1.02 1.08 1.13 1.17 1.20 1.29 1.34 1.40 1.44 1.47 1.46 1.47 1.44 1.42 1.42 1.42 1.45 1.47 1.49 1.52 1.50 1.52 1.53 1.50 1.43 1.37 1.38 1.41
0.95 0.89 0.88 0.90 0.94 0.95 0.92 0.88 0.89 0.92 0.94 0.94 0.98 1.00 1.00 1.02 1.06 1.11 1.16 1.22 1.28 1.33 1.40 1.42 1.45 1.45 1.45 1.42 1.41 1.38 1.40 1.43 1.49 1.49 1.46 1.44 1.49 1.50 1.48 1.44 1.35 1.33
1.05 1.00 0.92 0.87 0.87 0.91 0.93 0.88 0.84 0.85 0.86 0.89 0.92 0.97 0.97 0.99 1.01 1.03 1.08 1.14 1.24 1.29 1.35 1.39 1.40 1.42 1.44 1.43 1.42 1.38 1.38 1.36 1.42 1.44 1.41 1.38 1.40 1.48 1.47 1.45 1.41 1.33
1.04 1.02 1.00 0.97 0.90 0.87 0.86 0.85 0.83 0.81 0.81 0.82 0.88 0.90 0.93 0.95 0.97 0.98 1.01 1.06 1.15 1.23 1.29 1.35 1.37 1.36 1.40 1.42 1.41 1.38 1.38 1.37 1.37 1.38 1.35 1.35 1.38 1.39 1.44 1.43 1.40 1.36
1.13 1.08 1.03 1.00 0.96 0.91 0.85 0.83 0.83 0.82 0.82 0.83 0.82 0.84 0.88 0.86 0.87 0.92 0.97 1.02 1.08 1.15 1.23 1.30 1.36 1.37 1.37 1.38 1.36 1.36 1.36 1.39 1.36 1.34 1.30 1.30 1.34 1.31 1.35 1.38 1.38 1.36
1.26 1.18 1.10 1.02 0.97 0.94 0.90 0.86 0.85 0.84 0.85 0.82 0.81 0.82 0.86 0.85 0.84 0.86 0.90 0.97 1.03 1.08 1.14 1.20 1.27 1.32 1.37 1.36 1.34 1.33 1.32 1.33 1.35 1.33 1.30 1.26 1.24 1.26 1.29 1.33 1.30 1.30
1.34 1.29 1.21 1.11 1.01 0.96 0.92 0.91 0.89 0.88 0.90 0.87 0.84 0.84 0.83 0.86 0.87 0.86 0.88 0.93 0.98 1.03 1.07 1.11 1.17 1.23 1.28 1.33 1.33 1.32 1.31 1.31 1.33 1.32 1.31 1.29 1.27 1.25 1.26 1.28 1.26 1.23
1.37 1.35 1.27 1.20 1.10 1.04 0.97 0.96 0.95 0.93 0.95 0.93 0.90 0.88 0.87 0.87 0.89 0.91 0.91 0.93 0.96 1.00 1.03 1.07 1.11 1.16 1.18 1.22 1.28 1.32 1.32 1.31 1.31 1.30 1.29 1.28 1.28 1.28 1.28 1.26 1.25 1.21
1.36 1.36 1.31 1.25 1.20 1.13 1.06 1.02 1.01 0.99 0.96 0.98 0.99 0.94 0.93 0.92 0.90 0.92 0.93 0.93 0.97 1.00 1.03 1.06 1.10 1.14 1.15 1.16 1.20 1.24 1.27 1.29 1.28 1.25 1.25 1.26 1.27 1.27 1.27 1.28 1.25 1.24
1.39 1.35 1.33 1.31 1.28 1.23 1.18 1.12 1.07 1.04 1.02 0.98 1.01 1.01 0.99 0.97 0.96 0.95 0.98 0.98 0.98 1.01 1.02 1.04 1.07 1.12 1.14 1.17 1.20 1.22 1.23 1.23 1.22 1.22 1.21 1.21 1.22 1.23 1.23 1.23 1.23 1.23
1.42 1.41 1.39 1.37 1.35 1.33 1.27 1.21 1.15 1.11 1.07 1.05 1.04 1.03 1.03 1.02 1.01 0.99 1.01 1.04 1.03 1.04 1.05 1.07 1.07 1.09 1.11 1.14 1.18 1.21 1.21 1.20 1.20 1.18 1.16 1.16 1.16 1.18 1.20 1.19 1.18 1.17
1.47 1.49 1.49 1.45 1.42 1.38 1.33 1.27 1.21 1.18 1.15 1.12 1.09 1.07 1.07 1.07 1.07 1.06 1.04 1.05 1.07 1.08 1.09 1.11 1.10 1.08 1.10 1.10 1.11 1.14 1.18 1.17 1.18 1.17 1.14 1.11 1.10 1.11 1.15 1.17 1.16 1.15
1.59 1.58 1.53 1.50 1.44 1.37 1.34 1.32 1.28 1.23 1.20 1.17 1.15 1.14 1.13 1.13 1.12 1.13 1.11 1.08 1.07 1.09 1.11 1.13 1.12 1.12 1.11 1.11 1.12 1.10 1.09 1.09 1.12 1.13 1.13 1.11 1.08 1.07 1.09 1.13 1.13 1.12
1.82 1.74 1.69 1.57 1.48 1.43 1.37 1.33 1.30 1.27 1.23 1.20 1.19 1.19 1.18 1.18 1.18 1.16 1.14 1.13 1.12 1.11 1.12 1.13 1.13 1.13 1.11 1.10 1.11 1.12 1.12 1.08 1.05 1.05 1.09 1.10 1.09 1.07 1.03 1.05 1.08 1.10
1.68 1.77 1.71 1.67 1.62 1.52 1.42 1.36 1.32 1.29 1.24 1.22 1.21 1.21 1.22 1.24 1.22 1.19 1.18 1.17 1.16 1.15 1.15 1.14 1.14 1.14 1.13 1.11 1.11 1.12 1.12 1.10 1.07 1.05 1.06 1.06 1.06 1.06 1.06 1.05 1.04 1.05
1.42 1.36 1.36 1.46 1.59 1.59 1.54 1.45 1.35 1.28 1.24 1.22 1.20 1.23 1.26 1.24 1.21 1.21 1.20 1.20 1.19 1.16 1.14 1.16 1.17 1.18 1.17 1.14 1.13 1.13 1.14 1.15 1.13 1.10 1.07 1.06 1.06 1.05 1.05 1.04 1.03 1.02
1.65 1.39 1.18 1.22 1.44 1.57 1.58 1.51 1.41 1.29 1.24 1.23 1.24 1.26 1.26 1.24 1.25 1.23 1.22 1.21 1.19 1.17 1.16 1.17 1.18 1.20 1.19 1.18 1.16 1.15 1.15 1.18 1.18 1.15 1.12 1.10 1.08 1.08 1.06 1.04 1.03 1.01
1.88 1.75 1.51 1.36 1.39 1.53 1.57 1.54 1.46 1.36 1.29 1.27 1.25 1.23 1.23 1.22 1.22 1.22 1.22 1.22 1.21 1.20 1.18 1.16 1.19 1.22 1.22 1.21 1.19 1.19 1.19 1.20 1.21 1.21 1.19 1.16 1.14 1.13 1.12 1.09 1.08 1.06
1.84 1.80 1.71 1.60 1.48 1.50 1.56 1.54 1.52 1.46 1.35 1.31 1.28 1.26 1.27 1.29 1.30 1.29 1.26 1.24 1.24 1.23 1.19 1.15 1.17 1.22 1.23 1.22 1.21 1.20 1.21 1.23 1.23 1.23 1.20 1.17 1.15 1.15 1.15 1.15 1.14 1.11
1.76 1.69 1.69 1.69 1.64 1.55 1.52 1.56 1.57 1.55 1.50 1.44 1.32 1.27 1.25 1.26 1.26 1.27 1.28 1.26 1.24 1.24 1.20 1.15 1.15 1.21 1.24 1.24 1.23 1.23 1.24 1.24 1.23 1.23 1.21 1.17 1.13 1.13 1.14 1.15 1.15 1.14
1.83 1.77 1.71 1.71 1.71 1.64 1.60 1.61 1.67 1.69 1.64 1.57 1.40 1.30 1.25 1.25 1.28 1.29 1.30 1.29 1.26 1.23 1.22 1.17 1.14 1.18 1.21 1.23 1.24 1.26 1.26 1.23 1.23 1.21 1.17 1.15 1.11 1.12 1.13 1.13 1.14 1.15
1.84 1.80 1.77 1.77 1.75 1.72 1.72 1.71 1.71 1.71 1.74 1.71 1.57 1.47 1.38 1.37 1.36 1.32 1.31 1.32 1.30 1.27 1.26 1.22 1.18 1.18 1.20 1.21 1.23 1.26 1.28 1.28 1.25 1.22 1.16 1.12 1.11 1.08 1.12 1.12 1.12 1.14
1.84 1.78 1.77 1.78 1.77 1.81 1.84 1.83 1.86 1.86 1.82 1.76 1.69 1.60 1.49 1.45 1.43 1.39 1.34 1.32 1.33 1.31 1.28 1.27 1.22 1.21 1.21 1.21 1.22 1.25 1.29 1.31 1.31 1.23 1.14 1.09 1.09 1.07 1.05 1.10 1.11 1.09

ECMWFNIL_prec_pwat_069.txt.gz
Precipitable_Water
1.05 1.03 1.04 1.06 1.07 1.07 1.08 1.11 1.16 1.16 1.16 1.19 1.17 1.17 1.20 1.26 1.39 1.44 1.47 1.47 1.45 1.44 1.45 1.46 1.50 1.51 1.53 1.55 1.56 1.54 1.52 1.51 1.50 1.49 1.39 1.34 1.29 1.28 1.25 1.25 1.27 1.29
1.05 1.03 1.03 1.05 1.06 1.08 1.08 1.10 1.11 1.11 1.10 1.13 1.15 1.18 1.21 1.25 1.31 1.39 1.44 1.46 1.47 1.44 1.45 1.44 1.45 1.47 1.50 1.52 1.53 1.50 1.49 1.51 1.51 1.59 1.49 1.38 1.33 1.33 1.29 1.29 1.28 1.33
1.05 1.03 1.01 0.98 0.98 1.00 1.02 1.06 1.07 1.08 1.07 1.08 1.14 1.16 1.16 1.21 1.24 1.33 1.41 1.46 1.45 1.46 1.45 1.44 1.42 1.43 1.46 1.49 1.51 1.50 1.46 1.45 1.45 1.56 1.55 1.47 1.41 1.34 1.33 1.32 1.30 1.29
1.01 1.02 0.99 0.97 0.96 0.96 1.00 1.02 1.03 1.04 1.06 1.06 1.06 1.09 1.11 1.14 1.18 1.23 1.31 1.40 1.43 1.45 1.47 1.46 1.43 1.42 1.42 1.45 1.47 1.47 1.47 1.45 1.48 1.53 1.53 1.53 1.49 1.44 1.40 1.38 1.31 1.29
0.95 0.98 1.00 1.00 0.99 0.99 1.01 1.00 0.99 1.01 1.01 1.02 1.03 1.06 1.07 1.09 1.12 1.16 1.21 1.27 1.32 1.36 1.44 1.44 1.45 1.44 1.43 1.43 1.45 1.42 1.44 1.44 1.49 1.51 1.48 1.47 1.50 1.49 1.47 1.43 1.34 1.25
0.99 0.97 0.97 0.98 0.99 0.99 0.97 0.96 0.96 0.98 0.99 0.99 0.99 1.03 1.03 1.05 1.07 1.10 1.15 1.18 1.24 1.27 1.30 1.37 1.42 1.42 1.43 1.43 1.43 1.41 1.42 1.41 1.44 1.48 1.45 1.43 1.46 1.52 1.51 1.47 1.38 1.27
1.01 0.98 0.95 0.95 0.97 1.01 0.99 0.96 0.95 0.96 0.97 0.99 1.02 1.00 1.02 1.02 1.02 1.04 1.10 1.14 1.18 1.22 1.22 1.24 1.30 1.36 1.40 1.41 1.41 1.40 1.41 1.41 1.43 1.43 1.40 1.42 1.44 1.45 1.50 1.47 1.41 1.34
1.09 1.06 1.01 0.97 0.93 0.94 0.95 0.97 0.96 0.94 0.94 0.97 0.97 0.99 1.02 1.00 1.00 1.01 1.04 1.08 1.12 1.15 1.18 1.20 1.22 1.27 1.35 1.39 1.37 1.37 1.38 1.42 1.40 1.39 1.38 1.38 1.41 1.38 1.42 1.44 1.43 1.38
1.19 1.13 1.09 1.04 0.97 0.92 0.90 0.93 0.96 0.95 0.96 0.93 0.92 0.95 1.01 1.01 0.99 1.00 1.01 1.03 1.04 1.07 1.12 1.15 1.17 1.21 1.29 1.34 1.35 1.34 1.34 1.37 1.39 1.38 1.36 1.35 1.34 1.34 1.37 1.41 1.40 1.37
1.25 1.21 1.15 1.09 1.02 0.96 0.90 0.89 0.92 0.96 0.99 0.94 0.91 0.92 0.94 0.98 0.99 0.98 0.98 0.98 0.98 1.01 1.05 1.09 1.13 1.17 1.22 1.28 1.32 1.35 1.33 1.32 1.35 1.37 1.37 1.36 1.35 1.34 1.36 1.37 1.35 1.34
1.29 1.26 1.20 1.14 1.07 1.02 0.95 0.92 0.91 0.92 0.96 0.97 0.95 0.91 0.90 0.91 0.93 0.94 0.92 0.92 0.92 0.94 0.98 1.02 1.07 1.11 1.15 1.21 1.27 1.33 1.36 1.36 1.34 1.35 1.35 1.35 1.35 1.35 1.36 1.36 1.35 1.32
1.32 1.29 1.23 1.18 1.14 1.09 1.02 0.97 0.93 0.91 0.91 0.93 0.97 0.94 0.92 0.90 0.86 0.87 0.86 0.84 0.86 0.88 0.91 0.95 1.00 1.06 1.10 1.15 1.20 1.25 1.30 1.36 1.38 1.37 1.36 1.36 1.36 1.36 1.36 1.37 1.33 1.32
1.34 1.32 1.29 1.25 1.22 1.18 1.15 1.09 1.01 0.95 0.92 0.90 0.92 0.93 0.92 0.89 0.87 0.84 0.85 0.84 0.83 0.85 0.86 0.89 0.93 0.99 1.04 1.10 1.17 1.22 1.24 1.26 1.30 1.33 1.35 1.36 1.36 1.37 1.39 1.39 1.38 1.36
1.39 1.39 1.38 1.36 1.34 1.31 1.27 1.21 1.14 1.06 0.99 0.96 0.95 0.93 0.93 0.93 0.91 0.89 0.88 0.88 0.87 0.86 0.87 0.89 0.91 0.94 1.00 1.07 1.13 1.19 1.22 1.23 1.25 1.26 1.27 1.30 1.31 1.33 1.34 1.36 1.38 1.39
1.49 1.48 1.47 1.45 1.43 1.40 1.36 1.32 1.26 1.21 1.15 1.09 1.02 0.97 0.97 0.98 0.99 0.98 0.95 0.92 0.92 0.92 0.92 0.94 0.93 0.93 0.97 1.02 1.07 1.14 1.20 1.20 1.21 1.22 1.21 1.20 1.22 1.24 1.27 1.28 1.30 1.32
1.58 1.53 1.49 1.47 1.44 1.40 1.37 1.36 1.35 1.33 1.28 1.22 1.15 1.10 1.05 1.03 1.03 1.03 1.02 0.98 0.96 0.96 0.98 0.98 0.98 0.99 1.00 1.02 1.06 1.10 1.14 1.17 1.19 1.20 1.21 1.20 1.18 1.16 1.18 1.21 1.21 1.22
1.68 1.61 1.57 1.51 1.48 1.47 1.45 1.41 1.38 1.36 1.34 1.30 1.27 1.23 1.17 1.12 1.09 1.05 1.04 1.05 1.02 1.00 0.99 1.01 1.02 1.03 1.04 1.05 1.07 1.11 1.14 1.15 1.14 1.15 1.17 1.19 1.19 1.16 1.12 1.12 1.14 1.17
1.83 1.74 1.65 1.59 1.58 1.55 1.53 1.52 1.50 1.45 1.38 1.34 1.32 1.29 1.26 1.23 1.17 1.11 1.09 1.08 1.08 1.06 1.04 1.04 1.05 1.07 1.09 1.10 1.11 1.13 1.16 1.17 1.17 1.14 1.14 1.14 1.14 1.13 1.12 1.12 1.12 1.13
1.94 1.89 1.78 1.70 1.63 1.58 1.56 1.56 1.53 1.48 1.43 1.38 1.32 1.32 1.33 1.28 1.22 1.19 1.14 1.13 1.11 1.07 1.05 1.06 1.06 1.09 1.12 1.13 1.14 1.15 1.17 1.20 1.21 1.19 1.14 1.12 1.12 1.11 1.10 1.08 1.08 1.09
1.79 1.88 1.87 1.79 1.75 1.65 1.59 1.55 1.53 1.49 1.48 1.45 1.42 1.40 1.36 1.30 1.27 1.24 1.21 1.18 1.15 1.12 1.09 1.09 1.09 1.11 1.13 1.15 1.17 1.18 1.19 1.22 1.23 1.22 1.20 1.16 1.14 1.14 1.13 1.11 1.09 1.07
1.66 1.67 1.76 1.79 1.80 1.77 1.68 1.55 1.45 1.42 1.45 1.48 1.47 1.41 1.34 1.30 1.28 1.24 1.23 1.22 1.20 1.19 1.15 1.12 1.12 1.14 1.15 1.17 1.19 1.20 1.22 1.24 1.25 1.27 1.25 1.23 1.22 1.21 1.20 1.17 1.14 1.13
1.75 1.64 1.59 1.70 1.81 1.86 1.78 1.67 1.60 1.51 1.42 1.45 1.49 1.48 1.44 1.38 1.35 1.33 1.27 1.23 1.23 1.22 1.19 1.14 1.14 1.16 1.17 1.18 1.19 1.21 1.24 1.27 1.27 1.26 1.25 1.24 1.23 1.24 1.24 1.24 1.22 1.18
2.01 1.91 1.77 1.77 1.84 1.88 1.85 1.79 1.72 1.66 1.60 1.56 1.48 1.49 1.48 1.41 1.31 1.28 1.28 1.25 1.23 1.23 1.19 1.14 1.14 1.17 1.17 1.17 1.19 1.22 1.26 1.27 1.27 1.26 1.25 1.24 1.23 1.24 1.25 1.25 1.24 1.23
2.01 2.01 1.98 1.96 1.94 1.87 1.81 1.80 1.79 1.78 1.72 1.70 1.57 1.50 1.49 1.50 1.45 1.37 1.33 1.30 1.24 1.20 1.19 1.15 1.13 1.16 1.18 1.17 1.18 1.22 1.25 1.25 1.26 1.25 1.23 1.23 1.23 1.26 1.27 1.26 1.24 1.24
2.02 2.02 2.01 2.00 1.96 1.90 1.89 1.85 1.81 1.77 1.74 1.74 1.67 1.62 1.56 1.58 1.62 1.53 1.44 1.38 1.31 1.24 1.23 1.20 1.16 1.18 1.20 1.17 1.17 1.19 1.23 1.26 1.27 1.26 1.22 1.21 1.21 1.20 1.25 1.25 1.23 1.24
2.04 2.01 1.98 1.96 1.93 1.92 1.93 1.91 1.90 1.86 1.80 1.73 1.68 1.65 1.61 1.62 1.63 1.61 1.52 1.45 1.42 1.35 1.28 1.24 1.19 1.19 1.20 1.17 1.16 1.17 1.19 1.23 1.28 1.25 1.20 1.17 1.18 1.17 1.15 1.19 1.20 1.19

ECMWFNIL_prec_pwat_072.txt.gz
Precipitable_Water
1.13 1.12 1.09 1.12 1.12 1.11 1.11 1.14 1.23 1.25 1.28 1.30 1.26 1.27 1.28 1.34 1.41 1.45 1.48 1.51 1.52 1.51 1.54 1.56 1.60 1.60 1.62 1.64 1.65 1.62 1.59 1.57 1.55 1.52 1.44 1.41 1.37 1.33 1.29 1.29 1.31 1.33
1.10 1.09 1.08 1.10 1.12 1.14 1.12 1.13 1.18 1.21 1.23 1.26 1.27 1.29 1.32 1.32 1.35 1.39 1.43 1.46 1.50 1.50 1.53 1.54 1.56 1.58 1.59 1.59 1.61 1.59 1.58 1.57 1.55 1.61 1.51 1.44 1.40 1.37 1.32 1.33 1.33 1.36
1.12 1.08 1.06 1.02 1.02 1.06 1.07 1.10 1.14 1.18 1.20 1.24 1.28 1.29 1.27 1.30 1.29 1.32 1.37 1.41 1.45 1.49 1.50 1.52 1.52 1.54 1.55 1.56 1.58 1.58 1.55 1.54 1.52 1.60 1.60 1.54 1.52 1.45 1.43 1.41 1.37 1.34
1.09 1.09 1.05 1.03 1.03 1.01 1.06 1.07 1.10 1.13 1.18 1.20 1.20 1.23 1.24 1.26 1.27 1.27 1.30 1.35 1.37 1.43 1.49 1.51 1.50 1.51 1.51 1.52 1.52 1.52 1.54 1.54 1.55 1.58 1.58 1.61 1.59 1.55 1.50 1.47 1.43 1.40
1.02 1.05 1.06 1.06 1.05 1.03 1.04 1.04 1.05 1.09 1.10 1.13 1.19 1.23 1.23 1.21 1.20 1.20 1.23 1.28 1.33 1.36 1.43 1.46 1.49 1.48 1.50 1.49 1.48 1.45 1.48 1.48 1.54 1.55 1.52 1.52 1.59 1.58 1.57 1.53 1.47 1.41
1.07 1.05 1.06 1.05 1.06 1.04 0.99 0.98 1.00 1.04 1.06 1.08 1.11 1.18 1.19 1.21 1.18 1.15 1.16 1.15 1.20 1.25 1.29 1.36 1.41 1.45 1.47 1.47 1.47 1.43 1.43 1.43 1.48 1.50 1.48 1.46 1.51 1.58 1.58 1.55 1.49 1.41
1.13 1.07 1.04 1.04 1.05 1.05 1.01 0.97 0.98 1.00 1.03 1.05 1.11 1.11 1.15 1.15 1.14 1.13 1.12 1.12 1.13 1.15 1.16 1.17 1.21 1.28 1.38 1.43 1.43 1.40 1.41 1.41 1.44 1.45 1.42 1.43 1.46 1.48 1.54 1.53 1.50 1.45
1.24 1.19 1.12 1.06 1.01 1.01 0.99 0.98 0.96 0.96 0.98 1.02 1.02 1.06 1.11 1.09 1.10 1.11 1.11 1.10 1.09 1.10 1.13 1.14 1.17 1.19 1.24 1.30 1.33 1.36 1.38 1.41 1.40 1.40 1.38 1.38 1.41 1.39 1.45 1.48 1.47 1.43
1.35 1.28 1.21 1.13 1.04 0.98 0.95 0.96 0.96 0.96 0.99 0.98 0.99 1.01 1.07 1.09 1.09 1.10 1.10 1.10 1.09 1.09 1.11 1.12 1.14 1.15 1.20 1.22 1.24 1.28 1.31 1.36 1.38 1.38 1.35 1.33 1.33 1.34 1.38 1.43 1.41 1.39
1.39 1.35 1.28 1.20 1.10 1.04 0.95 0.92 0.93 0.93 0.96 0.96 0.97 1.00 1.01 1.05 1.09 1.10 1.11 1.10 1.08 1.08 1.09 1.09 1.11 1.13 1.16 1.18 1.18 1.21 1.23 1.28 1.34 1.36 1.35 1.35 1.34 1.34 1.36 1.38 1.37 1.36
1.40 1.39 1.33 1.26 1.17 1.11 1.03 0.99 0.95 0.92 0.92 0.91 0.93 0.94 0.97 1.01 1.05 1.09 1.09 1.08 1.06 1.06 1.07 1.07 1.07 1.08 1.09 1.10 1.13 1.16 1.19 1.22 1.27 1.32 1.35 1.34 1.34 1.35 1.36 1.36 1.35 1.33
1.41 1.39 1.35 1.31 1.28 1.22 1.14 1.09 1.06 1.02 0.96 0.93 0.90 0.88 0.91 0.95 0.98 1.03 1.04 1.04 1.05 1.06 1.07 1.07 1.07 1.07 1.06 1.06 1.07 1.10 1.13 1.17 1.22 1.25 1.30 1.34 1.34 1.34 1.34 1.34 1.31 1.32
1.45 1.42 1.40 1.39 1.38 1.34 1.31 1.24 1.17 1.12 1.07 1.01 0.99 0.93 0.89 0.88 0.91 0.94 0.99 1.00 1.02 1.05 1.05 1.05 1.06 1.06 1.06 1.05 1.06 1.07 1.08 1.08 1.12 1.18 1.23 1.26 1.30 1.33 1.35 1.35 1.33 1.32
1.51 1.50 1.49 1.48 1.47 1.46 1.42 1.37 1.31 1.24 1.17 1.13 1.10 1.03 0.96 0.91 0.88 0.88 0.91 0.95 0.97 0.99 1.01 1.05 1.05 1.03 1.03 1.04 1.04 1.05 1.05 1.04 1.05 1.08 1.14 1.20 1.24 1.28 1.32 1.33 1.34 1.33
1.57 1.58 1.57 1.55 1.52 1.49 1.46 1.42 1.39 1.35 1.30 1.24 1.17 1.11 1.07 1.02 0.98 0.95 0.91 0.91 0.94 0.96 0.97 0.99 0.99 0.97 0.98 0.98 0.99 1.01 1.04 1.02 1.02 1.03 1.06 1.11 1.17 1.22 1.26 1.29 1.32 1.32
1.60 1.60 1.58 1.56 1.54 1.49 1.46 1.46 1.44 1.42 1.38 1.32 1.25 1.19 1.14 1.11 1.07 1.03 0.98 0.94 0.92 0.93 0.95 0.95 0.94 0.94 0.94 0.94 0.96 0.98 1.00 1.01 1.02 1.02 1.03 1.06 1.10 1.14 1.18 1.22 1.24 1.26
1.64 1.62 1.61 1.56 1.53 1.52 1.52 1.51 1.48 1.47 1.44 1.40 1.36 1.32 1.25 1.20 1.16 1.10 1.06 1.03 0.99 0.96 0.95 0.95 0.95 0.95 0.94 0.94 0.95 0.97 1.00 1.01 1.00 1.00 1.02 1.04 1.07 1.09 1.08 1.12 1.17 1.22
1.65 1.65 1.64 1.59 1.54 1.48 1.46 1.47 1.50 1.50 1.47 1.45 1.42 1.38 1.36 1.33 1.26 1.19 1.16 1.13 1.11 1.08 1.04 1.01 1.00 1.00 0.99 0.98 0.98 0.99 1.01 1.03 1.04 1.03 1.03 1.03 1.04 1.05 1.07 1.09 1.11 1.15
1.55 1.54 1.57 1.60 1.60 1.56 1.52 1.48 1.45 1.44 1.44 1.44 1.41 1.41 1.42 1.38 1.33 1.29 1.24 1.22 1.18 1.14 1.10 1.09 1.07 1.07 1.06 1.05 1.04 1.04 1.05 1.07 1.08 1.08 1.06 1.05 1.05 1.05 1.05 1.06 1.08 1.09
1.73 1.58 1.48 1.51 1.59 1.63 1.64 1.60 1.52 1.43 1.40 1.41 1.43 1.46 1.45 1.42 1.40 1.36 1.33 1.28 1.24 1.20 1.16 1.15 1.13 1.12 1.11 1.10 1.09 1.09 1.09 1.11 1.11 1.11 1.11 1.10 1.08 1.07 1.07 1.07 1.07 1.07
1.92 1.84 1.71 1.62 1.60 1.63 1.66 1.66 1.65 1.59 1.51 1.46 1.42 1.40 1.40 1.41 1.42 1.41 1.41 1.39 1.35 1.30 1.24 1.20 1.17 1.16 1.15 1.13 1.11 1.11 1.11 1.13 1.15 1.15 1.15 1.14 1.14 1.14 1.12 1.11 1.10 1.10
2.08 2.01 1.90 1.80 1.72 1.67 1.64 1.64 1.65 1.63 1.61 1.60 1.53 1.48 1.47 1.47 1.48 1.48 1.44 1.42 1.41 1.37 1.31 1.24 1.22 1.21 1.19 1.16 1.13 1.12 1.13 1.15 1.15 1.15 1.14 1.15 1.15 1.16 1.17 1.16 1.16 1.15
2.15 2.10 2.03 1.94 1.85 1.76 1.66 1.60 1.60 1.62 1.63 1.69 1.64 1.58 1.51 1.46 1.42 1.42 1.43 1.43 1.42 1.42 1.37 1.28 1.24 1.24 1.22 1.19 1.16 1.15 1.15 1.15 1.15 1.14 1.14 1.14 1.14 1.17 1.19 1.20 1.19 1.19
2.11 2.10 2.05 1.99 1.93 1.86 1.79 1.75 1.72 1.70 1.69 1.73 1.67 1.63 1.58 1.54 1.52 1.50 1.50 1.48 1.44 1.42 1.42 1.34 1.27 1.27 1.26 1.22 1.20 1.18 1.17 1.15 1.15 1.13 1.12 1.14 1.15 1.19 1.22 1.22 1.22 1.22
2.11 2.07 2.01 1.97 1.93 1.92 1.91 1.84 1.79 1.74 1.72 1.74 1.72 1.71 1.67 1.67 1.64 1.56 1.51 1.50 1.47 1.45 1.45 1.41 1.35 1.32 1.31 1.25 1.21 1.19 1.18 1.18 1.15 1.12 1.09 1.11 1.13 1.14 1.19 1.21 1.21 1.24
2.11 2.09 2.05 1.99 1.93 1.95 1.98 1.94 1.93 1.89 1.85 1.81 1.78 1.77 1.74 1.71 1.67 1.59 1.49 1.45 1.47 1.47 1.45 1.43 1.38 1.37 1.36 1.29 1.23 1.20 1.18 1.18 1.17 1.11 1.06 1.06 1.10 1.11 1.11 1.16 1.20 1.21

ECMWFNIL_prec_pwat_078.txt.gz
Precipitable_Water
1.30 1.35 1.34 1.33 1.33 1.34 1.38 1.40 1.42 1.43 1.49 1.58 1.57 1.57 1.56 1.61 1.61 1.62 1.63 1.62 1.59 1.58 1.61 1.66 1.67 1.67 1.69 1.69 1.66 1.61 1.62 1.57 1.61 1.56 1.45 1.43 1.39 1.40 1.40 1.39 1.41 1.43
1.24 1.31 1.36 1.36 1.33 1.33 1.34 1.40 1.41 1.41 1.46 1.51 1.57 1.60 1.62 1.62 1.61 1.58 1.57 1.57 1.57 1.53 1.58 1.61 1.64 1.66 1.67 1.69 1.65 1.63 1.61 1.60 1.54 1.59 1.47 1.42 1.43 1.42 1.41 1.41 1.39 1.41
1.21 1.24 1.29 1.28 1.27 1.26 1.27 1.32 1.36 1.37 1.37 1.45 1.50 1.54 1.59 1.60 1.59 1.56 1.56 1.54 1.54 1.54 1.55 1.56 1.60 1.62 1.63 1.67 1.69 1.63 1.63 1.61 1.57 1.65 1.56 1.50 1.54 1.46 1.48 1.42 1.38 1.36
1.21 1.18 1.22 1.26 1.29 1.29 1.29 1.27 1.27 1.29 1.33 1.33 1.39 1.48 1.50 1.56 1.54 1.56 1.52 1.49 1.50 1.50 1.55 1.56 1.54 1.59 1.59 1.60 1.63 1.63 1.65 1.64 1.64 1.69 1.63 1.61 1.59 1.59 1.53 1.50 1.46 1.42
1.23 1.18 1.18 1.24 1.29 1.32 1.33 1.25 1.23 1.25 1.25 1.28 1.35 1.41 1.46 1.49 1.49 1.47 1.48 1.49 1.45 1.44 1.46 1.49 1.53 1.54 1.58 1.58 1.58 1.56 1.61 1.62 1.66 1.67 1.62 1.59 1.62 1.59 1.62 1.59 1.51 1.46
1.33 1.27 1.21 1.20 1.25 1.28 1.27 1.25 1.23 1.24 1.24 1.23 1.26 1.34 1.38 1.43 1.40 1.39 1.42 1.41 1.43 1.38 1.43 1.45 1.45 1.49 1.54 1.55 1.55 1.53 1.56 1.56 1.62 1.64 1.60 1.60 1.63 1.68 1.68 1.64 1.57 1.50
1.33 1.30 1.25 1.21 1.20 1.24 1.24 1.24 1.25 1.24 1.23 1.24 1.27 1.26 1.31 1.34 1.34 1.34 1.37 1.37 1.37 1.39 1.37 1.42 1.44 1.44 1.49 1.54 1.52 1.52 1.52 1.53 1.61 1.61 1.55 1.56 1.57 1.61 1.68 1.65 1.61 1.56
1.38 1.37 1.35 1.31 1.21 1.19 1.20 1.22 1.23 1.23 1.22 1.22 1.18 1.23 1.25 1.25 1.28 1.31 1.33 1.33 1.30 1.31 1.34 1.37 1.41 1.38 1.42 1.45 1.47 1.46 1.49 1.52 1.49 1.49 1.50 1.50 1.53 1.54 1.59 1.63 1.63 1.55
1.47 1.42 1.40 1.34 1.27 1.22 1.16 1.17 1.19 1.21 1.22 1.17 1.14 1.16 1.21 1.19 1.21 1.25 1.29 1.31 1.28 1.28 1.31 1.31 1.34 1.36 1.33 1.33 1.32 1.32 1.31 1.36 1.43 1.46 1.46 1.46 1.45 1.45 1.49 1.57 1.56 1.55
1.54 1.50 1.45 1.41 1.32 1.28 1.21 1.17 1.16 1.18 1.20 1.15 1.13 1.12 1.12 1.16 1.16 1.19 1.23 1.26 1.24 1.23 1.25 1.25 1.29 1.27 1.27 1.24 1.21 1.21 1.22 1.22 1.25 1.30 1.34 1.37 1.39 1.44 1.48 1.50 1.50 1.50
1.54 1.55 1.49 1.45 1.39 1.34 1.28 1.24 1.19 1.17 1.18 1.13 1.13 1.09 1.09 1.11 1.13 1.13 1.15 1.19 1.18 1.17 1.18 1.19 1.20 1.23 1.20 1.18 1.19 1.19 1.17 1.18 1.21 1.24 1.26 1.27 1.29 1.34 1.38 1.42 1.46 1.46
1.54 1.55 1.51 1.48 1.45 1.41 1.36 1.33 1.29 1.23 1.18 1.16 1.12 1.09 1.08 1.09 1.10 1.11 1.08 1.08 1.11 1.13 1.15 1.17 1.16 1.17 1.17 1.14 1.14 1.16 1.15 1.14 1.16 1.18 1.22 1.24 1.25 1.26 1.28 1.34 1.35 1.39
1.54 1.54 1.54 1.53 1.52 1.49 1.47 1.43 1.38 1.35 1.29 1.24 1.20 1.12 1.08 1.05 1.06 1.08 1.08 1.05 1.06 1.07 1.09 1.13 1.15 1.14 1.14 1.13 1.11 1.12 1.15 1.15 1.13 1.14 1.16 1.20 1.23 1.22 1.23 1.27 1.31 1.33
1.54 1.58 1.60 1.60 1.59 1.58 1.54 1.50 1.47 1.45 1.41 1.38 1.36 1.27 1.16 1.09 1.05 1.05 1.06 1.03 1.01 1.02 1.04 1.08 1.13 1.13 1.13 1.13 1.12 1.10 1.10 1.11 1.12 1.09 1.10 1.13 1.16 1.19 1.19 1.20 1.23 1.27
1.61 1.57 1.60 1.65 1.64 1.61 1.59 1.55 1.51 1.49 1.49 1.46 1.42 1.36 1.31 1.24 1.17 1.11 1.07 1.03 1.01 0.99 1.00 1.03 1.04 1.07 1.09 1.10 1.08 1.07 1.06 1.07 1.10 1.09 1.05 1.02 1.05 1.10 1.15 1.16 1.14 1.16
1.79 1.72 1.64 1.64 1.65 1.63 1.62 1.61 1.58 1.55 1.53 1.49 1.45 1.43 1.41 1.37 1.30 1.24 1.15 1.08 1.03 1.01 0.99 0.99 0.99 1.02 1.04 1.02 1.04 1.04 1.05 1.02 1.06 1.08 1.06 1.04 1.02 1.02 1.03 1.07 1.11 1.13
1.86 1.83 1.77 1.67 1.64 1.65 1.66 1.65 1.62 1.60 1.57 1.54 1.52 1.49 1.47 1.45 1.40 1.32 1.25 1.19 1.13 1.07 1.03 0.99 0.97 0.97 0.96 0.95 0.93 0.92 0.96 1.03 1.02 1.03 1.06 1.03 0.99 0.99 0.96 0.98 1.03 1.08
1.90 1.89 1.80 1.71 1.70 1.70 1.66 1.66 1.67 1.64 1.60 1.58 1.56 1.53 1.53 1.51 1.45 1.40 1.35 1.30 1.25 1.20 1.15 1.09 1.05 1.01 0.97 0.93 0.90 0.88 0.88 0.89 0.96 1.00 1.02 1.03 1.01 0.98 0.98 0.98 0.97 0.99
1.96 1.93 1.89 1.81 1.74 1.73 1.74 1.72 1.68 1.64 1.61 1.59 1.56 1.58 1.57 1.53 1.49 1.45 1.42 1.40 1.34 1.27 1.21 1.19 1.15 1.12 1.06 0.99 0.94 0.92 0.91 0.91 0.91 0.94 0.97 1.00 1.01 1.01 1.00 0.98 0.97 0.97
2.11 2.02 1.94 1.90 1.86 1.81 1.78 1.76 1.72 1.64 1.60 1.61 1.62 1.63 1.61 1.56 1.53 1.49 1.46 1.43 1.41 1.37 1.31 1.28 1.24 1.21 1.16 1.09 1.04 1.01 0.99 0.99 0.99 0.97 0.96 0.97 1.00 1.02 1.02 1.01 1.00 0.98
2.13 2.14 2.10 2.03 1.95 1.88 1.82 1.79 1.78 1.76 1.72 1.67 1.63 1.61 1.60 1.57 1.55 1.53 1.52 1.50 1.46 1.44 1.40 1.34 1.31 1.29 1.25 1.19 1.14 1.11 1.09 1.09 1.09 1.07 1.04 1.01 1.00 1.01 1.02 1.02 1.05 1.06
2.13 2.14 2.12 2.08 2.03 1.95 1.87 1.81 1.79 1.79 1.79 1.81 1.74 1.67 1.66 1.65 1.63 1.61 1.56 1.54 1.52 1.50 1.45 1.39 1.38 1.35 1.31 1.27 1.23 1.20 1.19 1.19 1.17 1.13 1.09 1.06 1.04 1.04 1.05 1.07 1.08 1.07
2.10 2.10 2.12 2.13 2.09 2.01 1.96 1.91 1.85 1.83 1.86 1.91 1.84 1.79 1.72 1.65 1.61 1.61 1.62 1.58 1.55 1.54 1.50 1.45 1.42 1.40 1.35 1.32 1.29 1.28 1.27 1.25 1.23 1.20 1.17 1.13 1.10 1.11 1.11 1.12 1.14 1.14
2.10 2.10 2.10 2.11 2.09 2.06 2.04 2.03 2.04 2.01 1.95 1.93 1.87 1.82 1.76 1.73 1.70 1.67 1.66 1.64 1.60 1.56 1.54 1.48 1.45 1.45 1.41 1.37 1.34 1.33 1.33 1.31 1.30 1.27 1.23 1.20 1.19 1.20 1.19 1.17 1.18 1.18
2.01 2.05 2.08 2.08 2.08 2.10 2.09 2.06 2.04 2.02 2.03 2.06 1.95 1.88 1.82 1.79 1.75 1.69 1.72 1.71 1.65 1.62 1.60 1.54 1.50 1.50 1.48 1.42 1.38 1.37 1.36 1.37 1.36 1.33 1.27 1.24 1.23 1.22 1.25 1.23 1.21 1.22
1.72 1.83 1.92 1.99 2.05 2.11 2.16 2.16 2.19 2.15 2.07 2.02 1.99 1.97 1.89 1.85 1.82 1.75 1.67 1.69 1.73 1.70 1.64 1.60 1.53 1.52 1.53 1.45 1.41 1.39 1.38 1.40 1.41 1.35 1.27 1.25 1.26 1.25 1.23 1.25 1.25 1.24

ECMWFNIL_prec_pwat_081.txt.gz
Precipitable_Water
1.38 1.41 1.45 1.47 1.46 1.46 1.49 1.48 1.50 1.51 1.65 1.71 1.60 1.59 1.61 1.62 1.73 1.72 1.74 1.70 1.62 1.62 1.64 1.68 1.68 1.69 1.73 1.71 1.66 1.72 1.71 1.66 1.73 1.60 1.55 1.47 1.44 1.46 1.44 1.46 1.49 1.51
1.34 1.39 1.44 1.45 1.45 1.46 1.49 1.52 1.51 1.50 1.50 1.65 1.68 1.66 1.66 1.64 1.61 1.66 1.65 1.66 1.60 1.56 1.62 1.65 1.67 1.67 1.71 1.73 1.65 1.63 1.66 1.62 1.62 1.69 1.51 1.46 1.47 1.50 1.50 1.47 1.45 1.48
1.30 1.33 1.37 1.36 1.38 1.38 1.41 1.48 1.52 1.50 1.52 1.54 1.69 1.71 1.67 1.66 1.60 1.57 1.60 1.59 1.57 1.55 1.55 1.62 1.63 1.65 1.66 1.73 1.70 1.62 1.66 1.58 1.59 1.68 1.50 1.50 1.55 1.52 1.58 1.49 1.43 1.41
1.30 1.29 1.33 1.34 1.37 1.40 1.38 1.40 1.44 1.44 1.50 1.52 1.53 1.64 1.68 1.69 1.65 1.58 1.56 1.54 1.55 1.56 1.58 1.55 1.59 1.64 1.62 1.66 1.69 1.61 1.69 1.62 1.61 1.71 1.60 1.56 1.55 1.60 1.60 1.53 1.53 1.47
1.30 1.27 1.29 1.34 1.36 1.42 1.41 1.35 1.34 1.38 1.36 1.43 1.50 1.55 1.55 1.62 1.60 1.61 1.55 1.50 1.48 1.50 1.56 1.56 1.55 1.60 1.60 1.60 1.64 1.62 1.66 1.63 1.62 1.57 1.59 1.51 1.56 1.53 1.59 1.60 1.52 1.50
1.38 1.32 1.27 1.31 1.36 1.36 1.38 1.35 1.33 1.33 1.30 1.31 1.37 1.44 1.50 1.50 1.52 1.53 1.55 1.50 1.45 1.43 1.46 1.51 1.54 1.53 1.56 1.55 1.55 1.54 1.63 1.67 1.70 1.59 1.53 1.50 1.54 1.58 1.61 1.55 1.49 1.48
1.36 1.35 1.31 1.26 1.29 1.34 1.33 1.35 1.35 1.31 1.31 1.30 1.33 1.33 1.40 1.44 1.43 1.45 1.46 1.48 1.49 1.42 1.42 1.47 1.48 1.50 1.53 1.56 1.50 1.49 1.54 1.61 1.67 1.63 1.54 1.57 1.52 1.58 1.65 1.63 1.57 1.50
1.38 1.39 1.36 1.31 1.21 1.27 1.27 1.31 1.32 1.29 1.29 1.27 1.26 1.29 1.31 1.36 1.42 1.41 1.38 1.41 1.40 1.43 1.38 1.43 1.49 1.47 1.50 1.54 1.54 1.48 1.46 1.51 1.52 1.61 1.62 1.49 1.54 1.48 1.51 1.58 1.58 1.50
1.42 1.43 1.40 1.32 1.23 1.19 1.20 1.23 1.28 1.31 1.29 1.23 1.20 1.23 1.27 1.29 1.33 1.38 1.37 1.38 1.34 1.34 1.37 1.37 1.41 1.42 1.43 1.45 1.50 1.51 1.47 1.52 1.54 1.49 1.47 1.44 1.43 1.44 1.49 1.53 1.51 1.50
1.43 1.43 1.44 1.39 1.28 1.23 1.18 1.17 1.23 1.27 1.31 1.23 1.18 1.16 1.21 1.24 1.28 1.30 1.33 1.34 1.31 1.28 1.30 1.30 1.33 1.36 1.38 1.37 1.37 1.40 1.39 1.39 1.43 1.46 1.48 1.49 1.48 1.49 1.48 1.44 1.48 1.51
1.48 1.43 1.40 1.40 1.36 1.31 1.24 1.21 1.18 1.21 1.27 1.25 1.20 1.13 1.12 1.20 1.21 1.23 1.26 1.28 1.27 1.26 1.24 1.25 1.25 1.28 1.31 1.34 1.34 1.33 1.31 1.26 1.24 1.23 1.28 1.32 1.35 1.37 1.41 1.46 1.48 1.45
1.53 1.50 1.43 1.40 1.40 1.37 1.34 1.29 1.25 1.20 1.23 1.25 1.21 1.16 1.10 1.10 1.19 1.16 1.13 1.18 1.24 1.28 1.28 1.26 1.25 1.23 1.23 1.25 1.27 1.27 1.24 1.22 1.23 1.22 1.23 1.23 1.24 1.24 1.27 1.31 1.32 1.38
1.56 1.53 1.54 1.48 1.45 1.44 1.41 1.37 1.33 1.27 1.21 1.22 1.23 1.19 1.14 1.07 1.09 1.16 1.13 1.09 1.14 1.19 1.23 1.25 1.25 1.22 1.20 1.18 1.16 1.18 1.20 1.18 1.16 1.17 1.18 1.21 1.23 1.23 1.25 1.28 1.27 1.26
1.60 1.61 1.58 1.55 1.54 1.53 1.49 1.46 1.41 1.38 1.30 1.27 1.27 1.23 1.16 1.11 1.08 1.11 1.16 1.11 1.10 1.11 1.14 1.18 1.21 1.22 1.21 1.19 1.15 1.10 1.11 1.15 1.13 1.12 1.14 1.16 1.18 1.22 1.22 1.22 1.25 1.27
1.75 1.73 1.69 1.64 1.59 1.57 1.57 1.53 1.50 1.45 1.41 1.37 1.33 1.33 1.28 1.17 1.12 1.10 1.14 1.16 1.12 1.10 1.09 1.09 1.11 1.15 1.17 1.18 1.15 1.12 1.06 1.06 1.11 1.10 1.08 1.09 1.13 1.17 1.21 1.18 1.15 1.18
1.81 1.80 1.77 1.77 1.71 1.62 1.60 1.60 1.56 1.52 1.50 1.46 1.38 1.40 1.41 1.35 1.27 1.20 1.14 1.16 1.14 1.11 1.08 1.05 1.02 1.06 1.14 1.14 1.16 1.13 1.08 1.02 1.05 1.09 1.11 1.09 1.07 1.05 1.06 1.12 1.15 1.12
2.07 1.97 1.91 1.83 1.81 1.81 1.73 1.67 1.65 1.61 1.57 1.54 1.51 1.49 1.46 1.45 1.42 1.35 1.27 1.22 1.20 1.18 1.13 1.04 0.99 0.98 1.02 1.09 1.09 1.09 1.09 1.07 1.00 1.03 1.10 1.11 1.09 1.07 1.05 1.02 1.02 1.06
2.10 2.05 2.04 1.96 1.91 1.83 1.81 1.76 1.72 1.67 1.62 1.58 1.56 1.54 1.52 1.51 1.49 1.43 1.40 1.34 1.28 1.25 1.21 1.17 1.09 1.01 0.99 1.02 1.04 1.03 1.00 1.00 1.04 1.01 0.99 1.04 1.09 1.06 1.05 1.04 1.00 0.97
2.08 2.04 2.02 1.99 1.95 1.92 1.84 1.81 1.79 1.72 1.66 1.60 1.58 1.59 1.58 1.55 1.50 1.49 1.46 1.44 1.35 1.28 1.25 1.25 1.23 1.19 1.11 1.04 1.01 1.00 0.98 0.94 0.90 0.95 0.97 0.98 1.01 1.06 1.06 1.02 1.01 1.00
2.03 2.04 2.06 2.07 2.10 2.07 1.98 1.88 1.83 1.80 1.79 1.83 1.74 1.70 1.66 1.60 1.57 1.53 1.49 1.47 1.45 1.37 1.29 1.26 1.27 1.28 1.27 1.21 1.13 1.06 1.01 0.97 0.92 0.88 0.87 0.88 0.93 0.98 1.04 1.08 1.06 0.99
2.01 2.05 2.06 2.07 2.11 2.12 2.10 2.11 2.05 1.92 1.86 1.85 1.88 1.88 1.76 1.67 1.62 1.58 1.58 1.55 1.50 1.47 1.40 1.32 1.28 1.27 1.27 1.26 1.22 1.15 1.09 1.06 1.04 1.01 0.97 0.93 0.90 0.91 0.94 1.01 1.08 1.11
2.02 2.06 2.09 2.11 2.11 2.14 2.08 2.03 2.05 2.04 1.94 2.04 2.04 1.98 1.97 1.90 1.87 1.77 1.64 1.58 1.56 1.53 1.47 1.42 1.37 1.34 1.31 1.28 1.26 1.21 1.19 1.18 1.16 1.12 1.07 1.04 1.01 0.96 0.93 0.94 0.97 1.03
1.94 1.96 2.03 2.09 2.16 2.13 2.04 2.02 2.06 2.01 1.96 1.98 1.91 1.86 1.79 1.75 1.79 1.81 1.73 1.63 1.57 1.56 1.50 1.45 1.43 1.43 1.39 1.34 1.30 1.30 1.28 1.26 1.23 1.21 1.17 1.13 1.09 1.08 1.04 1.01 0.99 0.98
1.91 1.93 1.93 1.98 2.06 2.09 2.15 2.15 2.17 2.13 2.09 2.08 1.95 1.89 1.88 1.88 1.86 1.84 1.87 1.82 1.72 1.61 1.55 1.49 1.47 1.49 1.46 1.41 1.38 1.36 1.34 1.32 1.31 1.27 1.23 1.20 1.18 1.18 1.17 1.14 1.10 1.05
1.90 1.91 1.94 1.96 1.99 2.05 2.18 2.18 2.17 2.14 2.16 2.17 2.09 2.04 1.97 1.94 1.86 1.77 1.78 1.82 1.78 1.70 1.67 1.62 1.56 1.54 1.54 1.49 1.45 1.41 1.39 1.40 1.39 1.34 1.29 1.26 1.23 1.21 1.23 1.22 1.20 1.17
1.55 1.69 1.77 1.82 1.91 2.00 2.08 2.15 2.19 2.13 2.13 2.15 2.16 2.14 2.07 2.00 1.95 1.87 1.79 1.76 1.76 1.75 1.76 1.77 1.69 1.60 1.59 1.54 1.49 1.45 1.42 1.44 1.45 1.38 1.31 1.29 1.30 1.27 1.25 1.27 1.28 1.27

ECMWFNIL_prec_pwat_084.txt.gz
Precipitable_Water
1.38 1.38 1.40 1.45 1.49 1.51 1.55 1.53 1.53 1.58 1.70 1.74 1.54 1.65 1.62 1.67 1.78 1.79 1.64 1.60 1.56 1.65 1.67 1.65 1.68 1.65 1.79 1.76 1.65 1.67 1.64 1.50 1.65 1.53 1.47 1.42 1.39 1.45 1.42 1.40 1.36 1.42
1.37 1.36 1.38 1.46 1.48 1.48 1.53 1.54 1.51 1.54 1.61 1.68 1.67 1.64 1.65 1.57 1.70 1.69 1.60 1.57 1.52 1.50 1.54 1.58 1.53 1.60 1.63 1.60 1.57 1.63 1.63 1.58 1.65 1.62 1.41 1.37 1.40 1.42 1.41 1.42 1.39 1.45
1.36 1.33 1.34 1.38 1.40 1.40 1.43 1.48 1.50 1.52 1.57 1.65 1.74 1.71 1.63 1.62 1.62 1.63 1.62 1.61 1.45 1.45 1.52 1.52 1.54 1.55 1.60 1.70 1.54 1.52 1.56 1.57 1.60 1.65 1.44 1.39 1.38 1.44 1.43 1.44 1.40 1.39
1.30 1.31 1.30 1.33 1.39 1.37 1.41 1.43 1.45 1.47 1.51 1.57 1.72 1.77 1.65 1.71 1.58 1.54 1.58 1.57 1.49 1.44 1.44 1.47 1.53 1.51 1.54 1.64 1.61 1.63 1.60 1.58 1.65 1.68 1.44 1.46 1.49 1.53 1.53 1.49 1.41 1.40
1.26 1.29 1.29 1.29 1.34 1.39 1.38 1.38 1.39 1.41 1.45 1.50 1.60 1.77 1.70 1.68 1.55 1.50 1.51 1.45 1.51 1.46 1.46 1.43 1.48 1.50 1.57 1.56 1.70 1.62 1.64 1.57 1.56 1.65 1.61 1.50 1.52 1.58 1.67 1.56 1.47 1.41
1.30 1.29 1.27 1.25 1.28 1.35 1.31 1.32 1.34 1.40 1.40 1.46 1.48 1.61 1.66 1.68 1.61 1.55 1.48 1.42 1.43 1.45 1.50 1.46 1.41 1.48 1.50 1.48 1.57 1.56 1.57 1.55 1.62 1.49 1.52 1.51 1.50 1.53 1.62 1.61 1.55 1.48
1.29 1.26 1.24 1.26 1.24 1.29 1.33 1.31 1.30 1.36 1.34 1.38 1.47 1.47 1.55 1.56 1.59 1.55 1.54 1.50 1.41 1.38 1.44 1.47 1.45 1.45 1.54 1.49 1.47 1.47 1.55 1.61 1.63 1.51 1.41 1.45 1.43 1.54 1.60 1.61 1.52 1.47
1.34 1.29 1.23 1.24 1.20 1.21 1.28 1.33 1.31 1.30 1.33 1.28 1.33 1.36 1.41 1.45 1.46 1.48 1.51 1.51 1.46 1.38 1.38 1.44 1.46 1.46 1.45 1.44 1.39 1.39 1.40 1.51 1.58 1.55 1.46 1.41 1.44 1.41 1.53 1.62 1.63 1.51
1.46 1.36 1.25 1.19 1.15 1.15 1.18 1.29 1.34 1.31 1.35 1.28 1.25 1.30 1.30 1.34 1.39 1.38 1.42 1.44 1.41 1.44 1.37 1.36 1.43 1.43 1.44 1.44 1.45 1.40 1.35 1.41 1.46 1.47 1.49 1.47 1.39 1.41 1.42 1.47 1.51 1.51
1.62 1.48 1.37 1.24 1.14 1.13 1.12 1.20 1.30 1.32 1.33 1.28 1.24 1.29 1.26 1.25 1.31 1.36 1.37 1.35 1.33 1.34 1.37 1.32 1.38 1.40 1.40 1.41 1.44 1.46 1.43 1.38 1.45 1.48 1.45 1.43 1.38 1.39 1.40 1.42 1.42 1.43
1.67 1.58 1.52 1.37 1.24 1.15 1.13 1.14 1.21 1.29 1.32 1.26 1.23 1.22 1.28 1.26 1.24 1.30 1.32 1.32 1.30 1.29 1.28 1.26 1.30 1.33 1.33 1.34 1.36 1.39 1.43 1.43 1.42 1.43 1.43 1.41 1.40 1.42 1.43 1.43 1.40 1.39
1.89 1.74 1.59 1.50 1.39 1.31 1.23 1.22 1.20 1.22 1.29 1.30 1.27 1.20 1.23 1.28 1.25 1.23 1.27 1.25 1.26 1.28 1.26 1.25 1.25 1.28 1.29 1.29 1.31 1.32 1.32 1.34 1.34 1.32 1.31 1.32 1.33 1.34 1.36 1.36 1.35 1.38
1.89 1.98 1.84 1.61 1.50 1.45 1.42 1.32 1.28 1.24 1.23 1.27 1.29 1.25 1.20 1.21 1.28 1.24 1.25 1.25 1.22 1.23 1.23 1.23 1.23 1.24 1.25 1.25 1.26 1.31 1.31 1.27 1.24 1.21 1.16 1.16 1.17 1.19 1.22 1.22 1.22 1.24
2.03 2.05 2.08 2.01 1.88 1.70 1.50 1.43 1.41 1.36 1.30 1.30 1.32 1.27 1.25 1.20 1.21 1.28 1.26 1.25 1.26 1.21 1.22 1.25 1.24 1.22 1.24 1.26 1.21 1.23 1.29 1.28 1.22 1.17 1.16 1.13 1.13 1.14 1.15 1.17 1.20 1.21
2.02 2.04 1.98 2.00 1.93 1.74 1.76 1.62 1.47 1.47 1.48 1.42 1.40 1.36 1.32 1.27 1.21 1.25 1.32 1.26 1.25 1.26 1.24 1.25 1.24 1.22 1.23 1.22 1.20 1.16 1.17 1.19 1.20 1.16 1.13 1.14 1.14 1.14 1.15 1.15 1.15 1.19
2.04 2.01 2.07 1.94 1.85 1.84 1.79 1.72 1.66 1.60 1.58 1.59 1.56 1.55 1.44 1.36 1.29 1.24 1.30 1.34 1.29 1.27 1.26 1.25 1.23 1.25 1.24 1.21 1.19 1.15 1.10 1.06 1.08 1.11 1.11 1.10 1.10 1.10 1.12 1.16 1.17 1.14
2.15 2.13 2.05 1.93 2.00 2.00 1.96 2.02 1.86 1.60 1.52 1.62 1.75 1.77 1.59 1.53 1.42 1.32 1.25 1.28 1.35 1.31 1.27 1.23 1.21 1.18 1.19 1.21 1.19 1.17 1.14 1.06 0.97 1.00 1.05 1.05 1.05 1.05 1.04 1.05 1.09 1.14
2.14 2.12 2.09 2.03 1.98 1.95 1.93 2.06 2.05 1.86 1.72 1.65 1.57 1.63 1.73 1.69 1.57 1.49 1.41 1.33 1.32 1.34 1.36 1.32 1.26 1.18 1.11 1.12 1.13 1.13 1.12 1.11 1.07 0.97 0.97 1.00 1.01 1.00 1.01 1.02 1.00 1.00
2.18 2.14 2.11 2.08 2.05 2.03 2.01 1.95 1.92 1.93 1.89 1.82 1.78 1.78 1.66 1.54 1.57 1.62 1.51 1.45 1.37 1.36 1.36 1.42 1.40 1.31 1.23 1.14 1.11 1.08 1.05 1.05 1.05 1.03 0.96 0.91 0.94 0.98 0.99 1.00 1.01 1.01
2.05 2.11 2.12 2.15 2.11 2.09 2.04 2.02 1.98 1.91 1.92 1.91 1.84 1.90 1.89 1.78 1.72 1.63 1.61 1.60 1.48 1.35 1.35 1.42 1.40 1.39 1.35 1.26 1.19 1.14 1.11 1.07 1.01 0.97 0.95 0.94 0.93 0.94 0.97 1.00 1.01 1.00
1.99 2.05 2.09 2.09 2.15 2.13 2.07 2.01 1.99 1.98 1.95 1.87 1.75 1.70 1.73 1.82 1.86 1.83 1.85 1.83 1.75 1.62 1.47 1.37 1.36 1.38 1.36 1.30 1.26 1.21 1.19 1.18 1.14 1.06 0.97 0.92 0.90 0.93 0.95 0.96 1.00 1.03
1.95 1.98 2.06 2.12 2.13 2.12 2.08 2.04 2.01 2.01 1.99 1.99 1.91 1.86 1.82 1.78 1.77 1.79 1.76 1.83 1.91 1.86 1.72 1.55 1.46 1.41 1.37 1.35 1.32 1.25 1.21 1.19 1.17 1.14 1.07 1.01 0.95 0.89 0.87 0.89 0.90 0.93
1.82 1.89 1.95 2.01 2.07 2.05 2.00 2.01 2.05 2.06 2.08 2.11 2.01 1.98 1.92 1.83 1.74 1.71 1.68 1.65 1.72 1.81 1.82 1.75 1.67 1.62 1.54 1.45 1.38 1.36 1.33 1.28 1.24 1.21 1.15 1.09 1.05 1.03 0.99 0.94 0.91 0.89
1.76 1.82 1.85 1.91 1.94 1.96 1.97 1.99 2.07 2.12 2.12 2.17 2.10 2.05 1.99 1.96 1.96 1.90 1.85 1.80 1.79 1.82 1.85 1.84 1.84 1.85 1.77 1.64 1.54 1.47 1.40 1.35 1.33 1.31 1.26 1.23 1.19 1.19 1.19 1.17 1.15 1.11
1.54 1.62 1.68 1.75 1.82 1.87 1.94 1.95 1.98 2.00 2.08 2.14 2.15 2.14 2.09 2.08 2.03 1.97 1.96 1.98 1.97 1.92 1.92 1.92 1.92 1.92 1.92 1.88 1.79 1.68 1.57 1.50 1.45 1.40 1.35 1.31 1.30 1.29 1.32 1.30 1.28 1.28
1.42 1.42 1.45 1.49 1.61 1.78 1.94 2.00 2.04 2.00 2.01 2.06 2.07 2.09 2.08 2.09 2.11 2.09 2.02 2.00 2.03 2.02 2.00 1.97 1.91 1.91 2.00 2.03 1.95 1.84 1.75 1.68 1.60 1.52 1.42 1.38 1.40 1.37 1.34 1.36 1.36 1.35

ECMWFNIL_prec_pwat_087.txt.gz
Precipitable_Water
1.36 1.42 1.39 1.46 1.51 1.59 1.59 1.59 1.65 1.70 1.68 1.67 1.61 1.67 1.70 1.72 1.74 1.71 1.63 1.62 1.70 1.69 1.71 1.67 1.67 1.75 1.74 1.70 1.72 1.65 1.64 1.55 1.47 1.49 1.41 1.43 1.41 1.44 1.41 1.34 1.34 1.35
1.32 1.40 1.41 1.48 1.52 1.59 1.63 1.59 1.59 1.67 1.69 1.66 1.63 1.67 1.73 1.77 1.77 1.75 1.67 1.54 1.57 1.61 1.65 1.68 1.70 1.73 1.71 1.68 1.67 1.66 1.61 1.55 1.53 1.54 1.38 1.38 1.38 1.41 1.40 1.37 1.33 1.38
1.31 1.34 1.36 1.40 1.48 1.51 1.58 1.59 1.58 1.62 1.67 1.72 1.70 1.69 1.68 1.73 1.77 1.68 1.64 1.57 1.49 1.54 1.57 1.60 1.59 1.62 1.68 1.66 1.63 1.65 1.58 1.52 1.61 1.57 1.42 1.38 1.38 1.39 1.42 1.42 1.39 1.32
1.34 1.34 1.33 1.38 1.47 1.50 1.56 1.56 1.56 1.57 1.61 1.67 1.68 1.72 1.69 1.67 1.66 1.64 1.60 1.62 1.49 1.47 1.53 1.53 1.52 1.55 1.59 1.65 1.57 1.55 1.58 1.53 1.65 1.62 1.42 1.38 1.37 1.40 1.42 1.42 1.43 1.38
1.33 1.36 1.35 1.34 1.41 1.50 1.52 1.51 1.51 1.53 1.55 1.58 1.68 1.73 1.72 1.67 1.60 1.59 1.57 1.59 1.53 1.45 1.47 1.48 1.51 1.50 1.56 1.63 1.58 1.49 1.51 1.51 1.59 1.62 1.45 1.37 1.38 1.42 1.48 1.45 1.39 1.36
1.33 1.37 1.38 1.33 1.34 1.41 1.43 1.43 1.48 1.50 1.52 1.51 1.57 1.71 1.71 1.71 1.63 1.55 1.54 1.52 1.50 1.47 1.44 1.46 1.46 1.49 1.55 1.54 1.58 1.55 1.60 1.49 1.53 1.57 1.53 1.42 1.45 1.51 1.57 1.55 1.42 1.35
1.26 1.31 1.34 1.36 1.33 1.36 1.37 1.39 1.45 1.48 1.47 1.51 1.54 1.61 1.71 1.71 1.64 1.57 1.54 1.48 1.46 1.44 1.46 1.42 1.39 1.42 1.51 1.48 1.49 1.52 1.59 1.53 1.55 1.48 1.49 1.48 1.48 1.48 1.58 1.59 1.50 1.44
1.27 1.28 1.32 1.36 1.31 1.32 1.31 1.34 1.40 1.44 1.45 1.50 1.49 1.52 1.63 1.66 1.64 1.62 1.58 1.52 1.43 1.39 1.43 1.47 1.42 1.38 1.44 1.45 1.42 1.41 1.49 1.57 1.59 1.51 1.42 1.42 1.43 1.46 1.52 1.62 1.57 1.45
1.37 1.32 1.31 1.30 1.27 1.29 1.28 1.30 1.36 1.42 1.45 1.42 1.47 1.49 1.55 1.59 1.63 1.62 1.60 1.57 1.50 1.43 1.38 1.44 1.46 1.42 1.44 1.44 1.39 1.35 1.34 1.42 1.52 1.56 1.47 1.40 1.39 1.38 1.42 1.52 1.55 1.51
1.56 1.51 1.41 1.29 1.23 1.25 1.26 1.27 1.32 1.37 1.42 1.39 1.41 1.46 1.44 1.46 1.50 1.54 1.56 1.53 1.49 1.46 1.41 1.39 1.43 1.44 1.44 1.43 1.41 1.39 1.34 1.31 1.38 1.49 1.51 1.47 1.42 1.40 1.39 1.40 1.42 1.45
1.71 1.65 1.50 1.39 1.31 1.28 1.25 1.23 1.26 1.31 1.37 1.37 1.37 1.37 1.41 1.40 1.41 1.43 1.43 1.45 1.41 1.39 1.41 1.39 1.39 1.41 1.39 1.39 1.40 1.42 1.41 1.38 1.35 1.41 1.49 1.49 1.47 1.45 1.43 1.41 1.39 1.37
1.66 1.69 1.77 1.62 1.39 1.29 1.28 1.29 1.24 1.24 1.29 1.33 1.35 1.30 1.35 1.36 1.35 1.37 1.34 1.34 1.38 1.38 1.38 1.38 1.38 1.38 1.36 1.35 1.35 1.38 1.40 1.41 1.40 1.38 1.43 1.47 1.47 1.44 1.41 1.43 1.41 1.40
1.74 1.72 1.76 1.74 1.72 1.53 1.42 1.34 1.34 1.30 1.26 1.27 1.29 1.29 1.26 1.29 1.31 1.32 1.34 1.31 1.30 1.31 1.32 1.35 1.36 1.35 1.33 1.33 1.32 1.31 1.33 1.34 1.33 1.33 1.33 1.37 1.40 1.39 1.37 1.37 1.37 1.38
1.88 1.92 1.91 1.83 1.81 1.82 1.67 1.54 1.46 1.46 1.38 1.34 1.29 1.28 1.22 1.23 1.27 1.27 1.30 1.31 1.29 1.27 1.26 1.28 1.29 1.30 1.30 1.30 1.28 1.26 1.26 1.26 1.27 1.26 1.24 1.23 1.23 1.24 1.23 1.22 1.22 1.23
2.02 1.99 1.95 1.92 1.89 1.81 1.82 1.75 1.62 1.59 1.56 1.54 1.41 1.31 1.28 1.28 1.28 1.28 1.27 1.26 1.27 1.25 1.25 1.25 1.21 1.18 1.20 1.22 1.22 1.21 1.20 1.18 1.20 1.21 1.22 1.20 1.17 1.13 1.13 1.13 1.14 1.16
2.05 2.01 1.96 1.95 1.94 1.89 1.84 1.85 1.78 1.66 1.64 1.64 1.60 1.54 1.45 1.39 1.33 1.33 1.31 1.28 1.25 1.26 1.26 1.24 1.20 1.19 1.15 1.13 1.15 1.15 1.15 1.12 1.14 1.14 1.14 1.14 1.13 1.11 1.11 1.13 1.15 1.16
2.11 2.12 2.11 1.98 1.97 1.96 1.89 1.87 1.84 1.78 1.69 1.64 1.64 1.64 1.60 1.55 1.51 1.47 1.41 1.36 1.30 1.30 1.30 1.28 1.28 1.26 1.21 1.17 1.14 1.13 1.14 1.11 1.06 1.06 1.08 1.07 1.06 1.06 1.04 1.07 1.11 1.14
2.11 2.09 2.04 1.96 1.94 1.91 1.92 1.94 1.94 1.87 1.78 1.72 1.66 1.58 1.58 1.61 1.59 1.58 1.56 1.54 1.46 1.38 1.33 1.34 1.35 1.34 1.30 1.28 1.25 1.22 1.20 1.17 1.14 1.06 1.03 1.04 1.03 1.01 1.00 1.00 1.01 1.05
2.15 2.13 2.08 2.03 2.01 2.01 1.96 1.91 1.92 1.91 1.89 1.84 1.77 1.73 1.64 1.56 1.58 1.62 1.65 1.66 1.59 1.55 1.51 1.50 1.46 1.44 1.41 1.39 1.37 1.34 1.30 1.27 1.22 1.16 1.08 1.02 1.03 1.03 1.02 0.99 0.97 0.95
2.06 2.04 2.03 2.02 2.02 2.03 2.02 1.94 1.90 1.93 2.00 2.03 2.00 1.91 1.78 1.69 1.65 1.63 1.66 1.66 1.63 1.61 1.61 1.62 1.63 1.62 1.60 1.56 1.53 1.50 1.45 1.42 1.37 1.29 1.20 1.12 1.05 1.00 0.99 1.00 1.00 0.98
2.03 2.04 2.04 2.04 2.06 2.06 2.03 1.99 1.96 1.97 1.98 2.04 2.05 1.99 1.90 1.82 1.77 1.74 1.74 1.74 1.72 1.70 1.66 1.63 1.69 1.75 1.73 1.70 1.66 1.63 1.60 1.56 1.50 1.45 1.41 1.36 1.29 1.20 1.09 1.01 0.99 0.99
1.92 1.95 1.96 1.99 2.00 1.98 1.96 1.97 1.97 1.99 2.00 2.02 2.03 2.06 2.05 2.00 1.96 1.94 1.87 1.83 1.82 1.79 1.74 1.69 1.70 1.80 1.86 1.80 1.77 1.71 1.68 1.64 1.57 1.49 1.44 1.41 1.38 1.36 1.31 1.25 1.18 1.10
1.91 1.91 1.91 1.94 1.95 1.93 1.94 1.98 2.02 2.04 2.05 2.08 2.02 2.03 2.01 2.01 2.02 2.00 1.97 1.91 1.87 1.85 1.81 1.79 1.84 1.92 1.85 1.82 1.77 1.68 1.58 1.54 1.53 1.52 1.49 1.45 1.40 1.38 1.36 1.33 1.31 1.27
1.73 1.77 1.79 1.83 1.88 1.92 1.97 2.05 2.09 2.10 2.06 2.11 2.06 2.03 2.00 2.01 2.03 2.01 1.99 1.93 1.85 1.84 1.88 1.84 1.88 1.88 1.88 1.90 1.83 1.74 1.67 1.59 1.49 1.40 1.46 1.44 1.36 1.42 1.43 1.39 1.35 1.32
1.45 1.49 1.51 1.57 1.72 1.85 1.97 2.00 2.05 2.05 2.06 2.10 2.09 2.10 2.10 2.11 2.10 2.08 2.08 2.08 2.04 1.99 2.00 1.97 1.90 1.86 1.85 1.77 1.78 1.84 1.84 1.83 1.77 1.65 1.47 1.41 1.39 1.33 1.35 1.39 1.40 1.42
1.31 1.35 1.37 1.39 1.44 1.53 1.71 1.82 1.91 1.95 1.98 2.03 2.08 2.12 2.13 2.15 2.14 2.11 2.07 2.09 2.14 2.13 2.11 2.10 2.02 1.96 1.94 1.92 1.97 2.02 2.02 2.01 1.98 1.89 1.81 1.79 1.77 1.65 1.50 1.46 1.42 1.42

ECMWFNIL_prec_pwat_090.txt.gz
Precipitable_Water
1.39 1.44 1.45 1.46 1.48 1.51 1.57 1.60 1.66 1.66 1.65 1.66 1.61 1.60 1.59 1.61 1.65 1.61 1.62 1.67 1.70 1.73 1.77 1.72 1.70 1.73 1.72 1.68 1.62 1.57 1.50 1.43 1.43 1.45 1.42 1.45 1.45 1.44 1.39 1.38 1.40 1.39
1.33 1.39 1.42 1.47 1.48 1.52 1.55 1.59 1.61 1.66 1.65 1.68 1.69 1.70 1.70 1.67 1.68 1.64 1.61 1.67 1.75 1.75 1.81 1.72 1.68 1.73 1.75 1.73 1.65 1.56 1.54 1.48 1.42 1.47 1.42 1.39 1.40 1.44 1.41 1.40 1.40 1.43
1.27 1.31 1.35 1.38 1.43 1.47 1.53 1.59 1.60 1.65 1.69 1.69 1.72 1.73 1.70 1.74 1.72 1.69 1.65 1.59 1.64 1.69 1.69 1.68 1.66 1.70 1.72 1.71 1.69 1.61 1.57 1.55 1.47 1.47 1.44 1.36 1.36 1.37 1.41 1.43 1.42 1.44
1.21 1.26 1.30 1.35 1.42 1.46 1.53 1.58 1.59 1.61 1.68 1.66 1.65 1.67 1.67 1.71 1.73 1.70 1.61 1.56 1.50 1.50 1.56 1.60 1.62 1.67 1.69 1.67 1.66 1.62 1.59 1.61 1.62 1.56 1.49 1.44 1.41 1.41 1.40 1.44 1.45 1.42
1.20 1.24 1.29 1.32 1.39 1.46 1.52 1.52 1.54 1.56 1.59 1.62 1.66 1.68 1.63 1.62 1.60 1.59 1.54 1.50 1.46 1.42 1.45 1.51 1.56 1.57 1.63 1.63 1.61 1.58 1.62 1.60 1.64 1.58 1.51 1.44 1.44 1.42 1.41 1.44 1.44 1.42
1.29 1.27 1.30 1.31 1.34 1.40 1.44 1.46 1.50 1.53 1.55 1.53 1.58 1.67 1.62 1.60 1.55 1.51 1.48 1.44 1.45 1.41 1.42 1.46 1.50 1.53 1.58 1.65 1.61 1.59 1.61 1.55 1.55 1.56 1.49 1.43 1.42 1.45 1.46 1.45 1.44 1.41
1.31 1.29 1.28 1.33 1.32 1.36 1.41 1.45 1.49 1.52 1.53 1.51 1.55 1.61 1.64 1.61 1.56 1.51 1.47 1.43 1.43 1.42 1.41 1.42 1.46 1.50 1.55 1.60 1.60 1.57 1.63 1.55 1.53 1.55 1.50 1.46 1.46 1.47 1.54 1.55 1.55 1.48
1.31 1.34 1.33 1.34 1.31 1.31 1.35 1.41 1.45 1.50 1.52 1.52 1.47 1.54 1.63 1.63 1.61 1.58 1.51 1.47 1.41 1.41 1.45 1.43 1.43 1.47 1.55 1.53 1.51 1.49 1.56 1.63 1.58 1.51 1.49 1.47 1.50 1.45 1.51 1.57 1.61 1.56
1.34 1.33 1.36 1.37 1.34 1.32 1.29 1.34 1.41 1.47 1.52 1.49 1.47 1.48 1.55 1.60 1.63 1.61 1.57 1.53 1.45 1.41 1.42 1.43 1.42 1.44 1.49 1.49 1.46 1.44 1.46 1.54 1.61 1.59 1.50 1.45 1.42 1.43 1.44 1.51 1.55 1.55
1.38 1.37 1.36 1.35 1.33 1.33 1.30 1.31 1.38 1.43 1.49 1.49 1.49 1.49 1.49 1.53 1.59 1.60 1.58 1.55 1.50 1.45 1.40 1.38 1.39 1.43 1.46 1.46 1.42 1.39 1.37 1.37 1.43 1.51 1.56 1.54 1.48 1.44 1.42 1.42 1.42 1.45
1.50 1.48 1.40 1.33 1.32 1.34 1.33 1.35 1.38 1.43 1.47 1.48 1.50 1.49 1.50 1.53 1.54 1.57 1.54 1.50 1.46 1.45 1.42 1.38 1.36 1.38 1.39 1.41 1.42 1.41 1.39 1.35 1.34 1.35 1.39 1.46 1.50 1.49 1.48 1.45 1.42 1.39
1.57 1.37 1.37 1.47 1.44 1.37 1.34 1.34 1.36 1.40 1.46 1.50 1.51 1.49 1.49 1.52 1.50 1.48 1.45 1.42 1.41 1.41 1.40 1.38 1.39 1.39 1.38 1.37 1.37 1.38 1.38 1.37 1.35 1.33 1.33 1.36 1.40 1.45 1.47 1.48 1.44 1.42
1.77 1.61 1.55 1.53 1.55 1.48 1.42 1.39 1.37 1.38 1.39 1.44 1.52 1.48 1.45 1.44 1.47 1.46 1.46 1.40 1.38 1.37 1.35 1.35 1.36 1.37 1.36 1.36 1.35 1.35 1.33 1.31 1.30 1.30 1.32 1.33 1.35 1.39 1.43 1.46 1.45 1.44
1.92 1.86 1.82 1.82 1.77 1.72 1.51 1.43 1.41 1.38 1.35 1.37 1.44 1.48 1.47 1.42 1.39 1.38 1.41 1.41 1.39 1.36 1.34 1.35 1.35 1.35 1.36 1.36 1.34 1.31 1.29 1.27 1.26 1.24 1.25 1.27 1.30 1.32 1.34 1.37 1.39 1.39
2.01 1.95 1.95 1.90 1.84 1.82 1.71 1.54 1.42 1.38 1.34 1.31 1.32 1.34 1.44 1.47 1.45 1.39 1.35 1.33 1.34 1.35 1.34 1.35 1.32 1.30 1.31 1.33 1.33 1.31 1.30 1.25 1.23 1.22 1.20 1.19 1.23 1.26 1.28 1.27 1.27 1.27
1.97 2.01 1.98 1.97 1.91 1.90 1.85 1.79 1.68 1.54 1.43 1.37 1.33 1.32 1.32 1.38 1.44 1.46 1.41 1.36 1.33 1.32 1.32 1.33 1.32 1.33 1.32 1.31 1.29 1.25 1.24 1.23 1.23 1.21 1.19 1.18 1.18 1.20 1.24 1.27 1.24 1.21
2.00 2.01 2.02 1.99 1.97 1.94 1.95 1.90 1.90 1.85 1.70 1.58 1.52 1.45 1.37 1.36 1.39 1.41 1.43 1.42 1.40 1.38 1.36 1.35 1.35 1.35 1.35 1.34 1.33 1.32 1.28 1.22 1.16 1.13 1.15 1.16 1.16 1.15 1.14 1.19 1.23 1.26
2.06 2.03 2.00 2.03 2.07 2.04 2.02 1.96 1.93 1.92 1.87 1.77 1.68 1.63 1.59 1.53 1.46 1.44 1.44 1.43 1.40 1.40 1.40 1.40 1.40 1.41 1.39 1.38 1.38 1.37 1.36 1.34 1.31 1.24 1.18 1.12 1.10 1.09 1.10 1.12 1.14 1.17
2.12 2.09 2.03 2.03 2.08 2.11 2.10 2.04 1.98 1.93 1.89 1.86 1.79 1.76 1.73 1.64 1.59 1.59 1.60 1.62 1.55 1.46 1.41 1.41 1.41 1.44 1.43 1.43 1.44 1.44 1.42 1.41 1.38 1.35 1.30 1.26 1.20 1.12 1.05 1.02 1.03 1.04
2.10 2.06 2.04 2.05 2.09 2.10 2.05 1.99 1.95 1.95 1.98 1.99 1.97 1.91 1.79 1.72 1.67 1.64 1.66 1.67 1.69 1.67 1.63 1.59 1.52 1.46 1.41 1.40 1.41 1.42 1.43 1.42 1.39 1.36 1.34 1.32 1.30 1.28 1.25 1.19 1.14 1.09
2.05 2.05 2.05 2.06 2.07 2.07 2.05 2.02 1.99 2.00 2.02 2.05 2.04 1.99 1.91 1.83 1.77 1.68 1.65 1.65 1.66 1.68 1.68 1.66 1.66 1.65 1.60 1.55 1.52 1.50 1.50 1.50 1.48 1.45 1.41 1.38 1.36 1.34 1.32 1.29 1.26 1.22
2.03 2.03 2.03 2.04 2.05 2.05 2.03 2.03 2.04 2.04 2.03 2.08 2.05 2.02 2.02 2.01 1.99 1.93 1.80 1.72 1.71 1.70 1.66 1.63 1.67 1.69 1.70 1.70 1.68 1.64 1.63 1.62 1.61 1.58 1.55 1.53 1.50 1.49 1.45 1.43 1.40 1.35
1.84 1.89 1.94 1.97 2.00 2.02 2.03 2.07 2.07 2.06 2.08 2.12 2.03 1.99 1.98 2.02 2.05 2.05 2.02 1.92 1.85 1.80 1.74 1.69 1.69 1.73 1.77 1.78 1.78 1.77 1.73 1.67 1.62 1.57 1.53 1.48 1.45 1.46 1.47 1.46 1.46 1.44
1.71 1.74 1.78 1.82 1.87 1.90 1.94 2.00 2.07 2.09 2.08 2.11 2.05 2.02 2.01 2.05 2.10 2.12 2.13 2.10 2.02 1.97 1.97 1.85 1.80 1.85 1.85 1.84 1.85 1.85 1.82 1.78 1.76 1.70 1.64 1.58 1.54 1.52 1.50 1.47 1.46 1.45
1.64 1.73 1.75 1.71 1.68 1.70 1.80 1.87 1.92 1.97 2.01 2.08 2.08 2.07 2.08 2.10 2.10 2.11 2.11 2.10 2.13 2.13 2.14 2.07 2.00 1.99 1.97 1.93 1.90 1.87 1.84 1.80 1.74 1.69 1.62 1.58 1.55 1.52 1.54 1.51 1.50 1.52
1.43 1.46 1.52 1.54 1.55 1.60 1.64 1.69 1.79 1.80 1.81 1.90 1.96 2.02 2.02 2.05 2.08 2.07 2.08 2.11 2.15 2.10 2.08 2.07 2.04 2.08 2.12 2.05 1.93 1.88 1.86 1.85 1.82 1.71 1.64 1.63 1.63 1.61 1.58 1.58 1.57 1.56

ECMWFNIL_prec_pwat_093.txt.gz
Precipitable_Water
1.45 1.49 1.49 1.50 1.51 1.56 1.64 1.70 1.77 1.70 1.66 1.66 1.61 1.64 1.62 1.60 1.63 1.62 1.64 1.65 1.64 1.66 1.69 1.73 1.72 1.65 1.64 1.64 1.64 1.63 1.63 1.58 1.53 1.48 1.47 1.50 1.49 1.45 1.41 1.45 1.47 1.46
1.43 1.46 1.50 1.53 1.53 1.57 1.61 1.68 1.72 1.72 1.67 1.66 1.64 1.66 1.65 1.65 1.64 1.63 1.63 1.63 1.65 1.66 1.71 1.72 1.73 1.68 1.64 1.62 1.63 1.59 1.56 1.53 1.46 1.50 1.44 1.45 1.48 1.50 1.46 1.46 1.45 1.48
1.39 1.41 1.45 1.48 1.50 1.51 1.55 1.62 1.66 1.69 1.69 1.69 1.71 1.71 1.69 1.70 1.66 1.65 1.63 1.64 1.67 1.68 1.76 1.76 1.71 1.71 1.70 1.70 1.66 1.60 1.53 1.49 1.45 1.50 1.46 1.42 1.47 1.46 1.47 1.47 1.45 1.47
1.33 1.37 1.41 1.47 1.53 1.52 1.55 1.58 1.60 1.64 1.69 1.69 1.69 1.74 1.75 1.74 1.71 1.66 1.63 1.63 1.63 1.68 1.74 1.77 1.69 1.70 1.71 1.70 1.70 1.64 1.59 1.55 1.56 1.55 1.47 1.46 1.44 1.44 1.44 1.47 1.45 1.45
1.27 1.30 1.37 1.43 1.49 1.53 1.54 1.53 1.56 1.59 1.62 1.67 1.71 1.75 1.75 1.74 1.72 1.69 1.64 1.57 1.54 1.55 1.62 1.63 1.65 1.65 1.70 1.67 1.68 1.61 1.59 1.54 1.57 1.56 1.47 1.41 1.44 1.41 1.44 1.45 1.42 1.39
1.32 1.30 1.32 1.36 1.42 1.47 1.49 1.49 1.53 1.58 1.60 1.64 1.66 1.71 1.70 1.72 1.71 1.68 1.64 1.57 1.53 1.47 1.45 1.47 1.51 1.56 1.61 1.61 1.59 1.54 1.55 1.51 1.54 1.54 1.44 1.38 1.39 1.44 1.45 1.44 1.40 1.36
1.33 1.30 1.27 1.31 1.35 1.42 1.46 1.50 1.53 1.58 1.61 1.65 1.69 1.66 1.69 1.69 1.67 1.63 1.61 1.57 1.53 1.46 1.39 1.36 1.39 1.44 1.52 1.57 1.54 1.50 1.54 1.50 1.51 1.49 1.38 1.33 1.34 1.37 1.45 1.46 1.44 1.41
1.35 1.34 1.29 1.27 1.28 1.35 1.41 1.48 1.53 1.57 1.62 1.66 1.64 1.66 1.67 1.67 1.66 1.64 1.61 1.57 1.52 1.47 1.42 1.38 1.39 1.40 1.45 1.52 1.54 1.49 1.51 1.55 1.46 1.43 1.39 1.34 1.36 1.34 1.42 1.47 1.49 1.49
1.35 1.35 1.33 1.29 1.25 1.28 1.33 1.41 1.48 1.55 1.62 1.62 1.62 1.63 1.67 1.66 1.67 1.68 1.65 1.60 1.53 1.48 1.46 1.43 1.41 1.39 1.42 1.47 1.49 1.46 1.45 1.48 1.49 1.44 1.42 1.35 1.34 1.36 1.41 1.48 1.49 1.49
1.31 1.36 1.35 1.33 1.27 1.27 1.27 1.34 1.42 1.48 1.57 1.59 1.61 1.62 1.61 1.65 1.68 1.69 1.68 1.64 1.57 1.51 1.47 1.45 1.43 1.41 1.40 1.41 1.41 1.42 1.41 1.44 1.48 1.47 1.46 1.43 1.38 1.36 1.38 1.41 1.42 1.43
1.31 1.31 1.28 1.27 1.26 1.27 1.24 1.29 1.36 1.42 1.47 1.50 1.55 1.56 1.57 1.59 1.62 1.65 1.64 1.63 1.59 1.56 1.50 1.47 1.45 1.44 1.40 1.40 1.41 1.43 1.41 1.40 1.39 1.42 1.44 1.44 1.45 1.45 1.46 1.44 1.42 1.39
1.34 1.29 1.24 1.23 1.24 1.27 1.28 1.29 1.33 1.37 1.40 1.44 1.48 1.51 1.53 1.53 1.52 1.54 1.55 1.54 1.56 1.57 1.56 1.53 1.52 1.50 1.45 1.40 1.39 1.41 1.43 1.41 1.39 1.38 1.39 1.40 1.41 1.43 1.44 1.47 1.47 1.46
1.49 1.38 1.32 1.27 1.27 1.28 1.31 1.32 1.29 1.30 1.34 1.38 1.45 1.47 1.48 1.48 1.48 1.47 1.50 1.49 1.49 1.50 1.50 1.50 1.50 1.51 1.49 1.47 1.43 1.41 1.41 1.41 1.40 1.40 1.40 1.41 1.41 1.44 1.46 1.47 1.48 1.48
1.75 1.71 1.60 1.45 1.37 1.35 1.32 1.31 1.29 1.26 1.26 1.32 1.37 1.38 1.39 1.41 1.42 1.43 1.46 1.45 1.42 1.42 1.44 1.44 1.42 1.41 1.42 1.43 1.43 1.42 1.41 1.39 1.38 1.36 1.35 1.36 1.37 1.38 1.40 1.42 1.44 1.45
1.91 1.90 1.88 1.75 1.53 1.40 1.36 1.34 1.30 1.26 1.25 1.26 1.29 1.34 1.37 1.38 1.40 1.40 1.40 1.40 1.40 1.38 1.37 1.39 1.39 1.38 1.39 1.38 1.35 1.34 1.34 1.32 1.32 1.30 1.28 1.25 1.25 1.26 1.29 1.31 1.34 1.36
1.99 1.97 1.94 1.91 1.77 1.57 1.50 1.48 1.42 1.34 1.28 1.24 1.23 1.28 1.34 1.38 1.37 1.37 1.38 1.37 1.38 1.39 1.39 1.37 1.35 1.38 1.38 1.39 1.40 1.37 1.35 1.32 1.30 1.27 1.24 1.21 1.18 1.16 1.17 1.19 1.22 1.28
2.06 2.00 1.99 1.93 1.90 1.84 1.79 1.73 1.65 1.55 1.40 1.29 1.25 1.23 1.24 1.31 1.35 1.34 1.34 1.35 1.36 1.36 1.37 1.37 1.35 1.35 1.35 1.37 1.38 1.39 1.39 1.37 1.33 1.32 1.33 1.30 1.25 1.19 1.12 1.13 1.16 1.19
2.13 2.09 2.03 2.00 1.97 1.93 1.91 1.90 1.84 1.76 1.64 1.50 1.37 1.28 1.25 1.25 1.25 1.28 1.32 1.34 1.36 1.38 1.38 1.39 1.38 1.37 1.37 1.37 1.38 1.38 1.40 1.40 1.39 1.35 1.34 1.32 1.30 1.25 1.21 1.17 1.14 1.14
2.14 2.11 2.07 2.05 2.04 2.05 2.03 1.98 1.89 1.84 1.82 1.76 1.64 1.56 1.46 1.34 1.30 1.28 1.27 1.31 1.33 1.34 1.37 1.42 1.44 1.46 1.44 1.43 1.42 1.41 1.42 1.44 1.42 1.40 1.36 1.32 1.30 1.27 1.24 1.21 1.20 1.17
2.15 2.16 2.13 2.12 2.13 2.11 2.09 2.04 1.99 1.93 1.91 1.91 1.88 1.84 1.74 1.65 1.58 1.49 1.45 1.41 1.40 1.40 1.41 1.44 1.46 1.51 1.52 1.51 1.50 1.47 1.45 1.46 1.46 1.45 1.41 1.38 1.34 1.32 1.29 1.26 1.25 1.22
2.10 2.12 2.13 2.16 2.15 2.12 2.12 2.07 2.07 2.08 2.06 2.05 2.01 1.95 1.88 1.82 1.78 1.71 1.66 1.61 1.55 1.52 1.49 1.49 1.53 1.56 1.56 1.56 1.56 1.56 1.55 1.52 1.49 1.47 1.45 1.43 1.42 1.41 1.38 1.35 1.33 1.31
2.03 2.04 2.07 2.07 2.08 2.07 2.10 2.09 2.04 2.05 2.05 2.09 2.08 2.04 2.02 1.98 1.95 1.88 1.76 1.69 1.67 1.65 1.62 1.60 1.65 1.66 1.65 1.64 1.62 1.61 1.60 1.57 1.54 1.51 1.48 1.48 1.49 1.51 1.53 1.53 1.51 1.47
1.91 1.92 1.96 1.98 2.00 2.00 1.99 2.02 2.04 2.03 2.06 2.10 2.04 2.03 2.01 1.99 1.96 1.95 1.95 1.87 1.80 1.77 1.74 1.74 1.78 1.82 1.82 1.80 1.78 1.76 1.72 1.69 1.65 1.62 1.59 1.57 1.55 1.58 1.60 1.61 1.60 1.59
1.78 1.78 1.82 1.88 1.90 1.89 1.89 1.95 2.01 2.04 2.03 2.06 2.01 1.99 1.97 2.00 2.05 2.02 2.04 2.06 1.98 1.92 1.87 1.78 1.75 1.77 1.76 1.77 1.79 1.82 1.81 1.76 1.74 1.69 1.66 1.64 1.64 1.66 1.67 1.67 1.67 1.68
1.65 1.65 1.71 1.71 1.80 1.85 1.90 1.94 1.94 1.94 1.99 2.00 2.03 2.03 2.01 2.06 2.07 2.03 2.01 2.06 2.10 2.08 2.03 1.94 1.89 1.90 1.91 1.89 1.88 1.86 1.83 1.81 1.77 1.72 1.66 1.66 1.67 1.68 1.73 1.73 1.72 1.73
1.49 1.50 1.51 1.55 1.62 1.65 1.69 1.74 1.81 1.86 1.92 1.95 1.94 1.94 1.92 1.97 2.01 2.03 2.00 2.02 2.07 2.08 2.10 2.10 2.06 2.05 2.06 2.02 1.98 1.96 1.94 1.89 1.84 1.73 1.66 1.66 1.68 1.66 1.64 1.70 1.73 1.73

ECMWFNIL_prec_pwat_096.txt.gz
Precipitable_Water
1.46 1.51 1.56 1.60 1.62 1.63 1.69 1.75 1.79 1.74 1.71 1.68 1.63 1.65 1.64 1.66 1.66 1.63 1.63 1.65 1.67 1.68 1.69 1.69 1.70 1.68 1.67 1.66 1.64 1.59 1.58 1.59 1.62 1.62 1.55 1.53 1.49 1.46 1.43 1.43 1.46 1.46
1.42 1.46 1.51 1.57 1.60 1.63 1.66 1.75 1.82 1.80 1.74 1.71 1.67 1.69 1.70 1.67 1.65 1.63 1.60 1.60 1.62 1.63 1.68 1.71 1.72 1.70 1.67 1.65 1.65 1.59 1.57 1.58 1.55 1.60 1.49 1.45 1.49 1.50 1.47 1.46 1.46 1.49
1.42 1.44 1.45 1.45 1.50 1.56 1.60 1.69 1.78 1.82 1.77 1.74 1.72 1.70 1.69 1.68 1.65 1.64 1.63 1.62 1.62 1.62 1.65 1.68 1.69 1.70 1.69 1.65 1.62 1.59 1.56 1.53 1.48 1.53 1.48 1.43 1.48 1.49 1.51 1.51 1.49 1.48
1.37 1.42 1.44 1.44 1.48 1.52 1.60 1.64 1.69 1.76 1.78 1.74 1.70 1.71 1.72 1.71 1.67 1.64 1.62 1.62 1.63 1.65 1.68 1.71 1.68 1.69 1.70 1.69 1.67 1.62 1.59 1.55 1.53 1.52 1.47 1.48 1.48 1.49 1.51 1.54 1.53 1.49
1.30 1.35 1.41 1.45 1.46 1.49 1.56 1.58 1.61 1.66 1.69 1.72 1.76 1.76 1.74 1.73 1.70 1.67 1.64 1.62 1.62 1.64 1.69 1.72 1.73 1.69 1.70 1.70 1.70 1.63 1.62 1.59 1.60 1.58 1.51 1.45 1.47 1.46 1.49 1.50 1.49 1.46
1.31 1.32 1.34 1.38 1.43 1.44 1.45 1.49 1.55 1.60 1.63 1.67 1.72 1.78 1.78 1.78 1.75 1.71 1.68 1.62 1.57 1.55 1.59 1.65 1.67 1.68 1.69 1.71 1.70 1.64 1.63 1.59 1.60 1.60 1.54 1.48 1.46 1.47 1.45 1.45 1.43 1.42
1.26 1.29 1.29 1.33 1.37 1.41 1.41 1.44 1.50 1.55 1.59 1.64 1.73 1.73 1.78 1.76 1.73 1.73 1.73 1.68 1.60 1.55 1.51 1.51 1.53 1.58 1.63 1.65 1.63 1.58 1.57 1.56 1.57 1.58 1.53 1.49 1.43 1.40 1.41 1.40 1.40 1.40
1.26 1.30 1.32 1.33 1.31 1.35 1.36 1.40 1.45 1.49 1.55 1.61 1.63 1.69 1.74 1.73 1.70 1.73 1.74 1.70 1.63 1.57 1.53 1.49 1.48 1.49 1.55 1.59 1.58 1.55 1.53 1.57 1.54 1.52 1.50 1.45 1.40 1.32 1.36 1.39 1.41 1.39
1.28 1.30 1.32 1.32 1.29 1.29 1.31 1.35 1.40 1.47 1.55 1.54 1.58 1.63 1.70 1.70 1.70 1.70 1.70 1.67 1.62 1.59 1.56 1.52 1.48 1.47 1.50 1.53 1.56 1.56 1.53 1.57 1.58 1.54 1.49 1.44 1.37 1.35 1.37 1.44 1.43 1.44
1.29 1.30 1.30 1.32 1.30 1.29 1.27 1.31 1.37 1.43 1.53 1.54 1.56 1.62 1.63 1.67 1.69 1.68 1.67 1.64 1.60 1.57 1.55 1.54 1.52 1.50 1.50 1.51 1.54 1.55 1.53 1.54 1.56 1.54 1.50 1.48 1.43 1.41 1.41 1.41 1.41 1.41
1.36 1.33 1.28 1.29 1.31 1.33 1.29 1.29 1.32 1.38 1.48 1.52 1.55 1.56 1.61 1.64 1.65 1.67 1.65 1.63 1.57 1.54 1.52 1.51 1.52 1.52 1.49 1.51 1.54 1.56 1.53 1.52 1.55 1.55 1.51 1.49 1.47 1.46 1.47 1.44 1.43 1.40
1.48 1.41 1.33 1.29 1.31 1.33 1.33 1.31 1.30 1.32 1.39 1.48 1.53 1.53 1.57 1.61 1.60 1.62 1.63 1.61 1.58 1.56 1.53 1.50 1.51 1.51 1.49 1.49 1.51 1.53 1.51 1.50 1.52 1.53 1.52 1.49 1.48 1.47 1.47 1.46 1.42 1.41
1.62 1.53 1.47 1.37 1.33 1.34 1.38 1.36 1.33 1.31 1.33 1.39 1.48 1.50 1.51 1.52 1.56 1.58 1.63 1.61 1.58 1.56 1.53 1.51 1.50 1.50 1.49 1.49 1.50 1.51 1.49 1.45 1.44 1.45 1.46 1.47 1.48 1.48 1.48 1.48 1.47 1.46
1.81 1.77 1.68 1.58 1.49 1.45 1.41 1.38 1.38 1.35 1.33 1.37 1.45 1.47 1.47 1.48 1.50 1.53 1.58 1.61 1.59 1.55 1.53 1.52 1.49 1.47 1.47 1.47 1.48 1.48 1.47 1.45 1.44 1.40 1.39 1.42 1.44 1.47 1.48 1.48 1.48 1.47
1.99 1.90 1.84 1.78 1.71 1.62 1.51 1.45 1.41 1.40 1.40 1.39 1.39 1.44 1.48 1.51 1.53 1.55 1.56 1.55 1.57 1.55 1.52 1.51 1.45 1.41 1.42 1.42 1.41 1.42 1.43 1.41 1.41 1.40 1.38 1.37 1.37 1.39 1.40 1.40 1.41 1.41
2.08 1.95 1.86 1.83 1.72 1.70 1.67 1.61 1.53 1.48 1.47 1.43 1.39 1.39 1.43 1.48 1.49 1.52 1.52 1.52 1.51 1.52 1.52 1.50 1.45 1.42 1.39 1.39 1.41 1.40 1.40 1.39 1.39 1.39 1.37 1.34 1.31 1.29 1.29 1.30 1.30 1.31
2.12 2.08 1.95 1.82 1.82 1.74 1.75 1.73 1.64 1.62 1.56 1.50 1.45 1.39 1.37 1.42 1.45 1.44 1.46 1.49 1.49 1.50 1.49 1.48 1.47 1.45 1.41 1.39 1.38 1.39 1.40 1.39 1.36 1.36 1.37 1.35 1.32 1.28 1.23 1.25 1.27 1.29
2.15 2.15 2.08 2.00 1.94 1.90 1.85 1.81 1.80 1.69 1.65 1.58 1.54 1.47 1.42 1.41 1.40 1.42 1.45 1.46 1.47 1.48 1.47 1.47 1.47 1.47 1.44 1.41 1.38 1.37 1.38 1.36 1.35 1.32 1.32 1.31 1.30 1.28 1.27 1.26 1.25 1.26
2.10 2.08 2.08 2.09 2.05 1.97 1.95 1.97 1.93 1.78 1.75 1.72 1.70 1.69 1.64 1.50 1.42 1.41 1.41 1.44 1.43 1.42 1.42 1.45 1.45 1.47 1.46 1.44 1.41 1.38 1.36 1.35 1.32 1.31 1.27 1.26 1.27 1.28 1.28 1.28 1.28 1.27
2.16 2.14 2.13 2.14 2.12 2.06 2.00 1.98 1.98 1.94 1.90 1.86 1.83 1.74 1.70 1.59 1.50 1.42 1.41 1.42 1.44 1.44 1.43 1.44 1.45 1.49 1.49 1.48 1.47 1.45 1.42 1.39 1.35 1.33 1.30 1.28 1.28 1.29 1.29 1.29 1.30 1.30
2.13 2.15 2.14 2.15 2.14 2.10 2.05 2.00 1.96 1.98 1.99 1.96 1.88 1.85 1.86 1.74 1.56 1.50 1.49 1.48 1.46 1.46 1.44 1.44 1.47 1.51 1.51 1.51 1.50 1.49 1.48 1.45 1.44 1.41 1.37 1.35 1.36 1.37 1.37 1.38 1.40 1.41
2.04 2.06 2.08 2.10 2.09 2.07 2.04 2.00 1.98 1.99 1.99 2.00 1.97 1.93 1.94 1.95 1.87 1.74 1.64 1.59 1.56 1.53 1.48 1.43 1.47 1.50 1.53 1.54 1.53 1.52 1.51 1.50 1.49 1.47 1.44 1.44 1.44 1.45 1.46 1.48 1.49 1.49
1.98 1.97 1.99 2.00 2.01 2.00 2.01 2.01 1.98 1.98 2.03 2.08 2.02 1.98 1.95 1.97 1.95 1.95 1.92 1.83 1.76 1.74 1.68 1.61 1.59 1.60 1.59 1.58 1.58 1.59 1.57 1.54 1.51 1.49 1.47 1.46 1.48 1.52 1.54 1.55 1.57 1.58
1.86 1.92 1.90 1.93 1.96 1.96 1.96 1.96 1.99 2.01 1.98 2.06 2.03 2.04 2.03 2.04 2.05 2.04 2.06 1.99 1.88 1.80 1.79 1.73 1.71 1.73 1.72 1.70 1.69 1.69 1.69 1.66 1.65 1.61 1.59 1.59 1.62 1.67 1.70 1.71 1.73 1.74
1.76 1.77 1.81 1.85 1.84 1.87 1.91 1.95 1.98 2.00 2.05 2.07 2.02 2.01 2.02 2.07 2.08 2.08 2.07 2.06 2.05 1.97 1.92 1.85 1.83 1.83 1.81 1.82 1.84 1.83 1.82 1.81 1.78 1.74 1.70 1.71 1.72 1.74 1.79 1.79 1.79 1.81
1.58 1.62 1.67 1.69 1.70 1.72 1.80 1.85 1.90 1.96 1.99 1.98 1.99 2.01 1.99 2.01 2.07 2.04 2.01 2.03 2.09 2.05 1.98 1.91 1.86 1.85 1.87 1.90 1.92 1.91 1.89 1.87 1.84 1.74 1.68 1.70 1.73 1.73 1.72 1.77 1.80 1.81

ECMWFNIL_prec_pwat_099.txt.gz
Precipitable_Water
1.51 1.55 1.59 1.62 1.68 1.75 1.79 1.78 1.78 1.75 1.75 1.74 1.71 1.72 1.71 1.71 1.69 1.65 1.66 1.70 1.69 1.67 1.65 1.64 1.65 1.63 1.63 1.63 1.61 1.56 1.54 1.55 1.60 1.67 1.67 1.64 1.57 1.52 1.47 1.49 1.50 1.48
1.45 1.49 1.55 1.60 1.64 1.71 1.77 1.81 1.82 1.79 1.77 1.75 1.75 1.77 1.77 1.76 1.74 1.69 1.66 1.66 1.68 1.68 1.71 1.71 1.70 1.70 1.68 1.66 1.64 1.58 1.56 1.58 1.59 1.68 1.63 1.58 1.57 1.54 1.49 1.49 1.46 1.47
1.46 1.44 1.45 1.48 1.52 1.61 1.67 1.76 1.80 1.83 1.81 1.79 1.77 1.77 1.76 1.76 1.74 1.70 1.67 1.64 1.63 1.66 1.69 1.73 1.73 1.74 1.73 1.69 1.66 1.62 1.58 1.59 1.58 1.64 1.62 1.56 1.56 1.51 1.54 1.55 1.50 1.47
1.45 1.45 1.43 1.43 1.49 1.54 1.63 1.66 1.72 1.80 1.84 1.79 1.73 1.74 1.76 1.75 1.71 1.68 1.66 1.65 1.64 1.64 1.67 1.70 1.72 1.75 1.73 1.71 1.67 1.62 1.61 1.60 1.62 1.63 1.56 1.55 1.52 1.51 1.53 1.56 1.55 1.53
1.39 1.44 1.46 1.46 1.47 1.51 1.57 1.58 1.61 1.70 1.77 1.80 1.78 1.76 1.74 1.73 1.70 1.67 1.65 1.64 1.66 1.65 1.67 1.68 1.73 1.76 1.76 1.72 1.70 1.63 1.62 1.59 1.61 1.58 1.52 1.48 1.51 1.49 1.51 1.53 1.52 1.51
1.38 1.42 1.45 1.46 1.47 1.47 1.47 1.50 1.58 1.64 1.70 1.75 1.76 1.79 1.77 1.76 1.73 1.70 1.68 1.63 1.64 1.66 1.68 1.70 1.73 1.76 1.75 1.74 1.72 1.68 1.64 1.59 1.61 1.59 1.53 1.49 1.50 1.53 1.51 1.51 1.50 1.46
1.33 1.36 1.38 1.43 1.44 1.47 1.46 1.47 1.53 1.61 1.66 1.71 1.77 1.75 1.79 1.78 1.76 1.75 1.73 1.69 1.66 1.63 1.63 1.66 1.69 1.71 1.75 1.73 1.71 1.69 1.67 1.63 1.63 1.60 1.54 1.55 1.54 1.51 1.51 1.48 1.47 1.45
1.34 1.37 1.38 1.39 1.37 1.42 1.44 1.46 1.47 1.52 1.60 1.65 1.64 1.71 1.77 1.77 1.78 1.79 1.78 1.76 1.71 1.63 1.58 1.57 1.58 1.61 1.68 1.68 1.64 1.63 1.63 1.62 1.57 1.55 1.53 1.54 1.55 1.46 1.46 1.45 1.43 1.41
1.36 1.36 1.38 1.37 1.35 1.36 1.37 1.42 1.46 1.49 1.54 1.55 1.57 1.65 1.73 1.76 1.78 1.78 1.78 1.78 1.76 1.71 1.63 1.56 1.52 1.50 1.55 1.56 1.56 1.56 1.54 1.54 1.57 1.56 1.52 1.51 1.48 1.44 1.42 1.45 1.42 1.41
1.31 1.33 1.35 1.37 1.36 1.36 1.33 1.37 1.42 1.46 1.50 1.50 1.53 1.60 1.65 1.73 1.77 1.79 1.78 1.77 1.75 1.72 1.66 1.60 1.55 1.50 1.49 1.49 1.50 1.52 1.52 1.51 1.55 1.58 1.58 1.55 1.52 1.47 1.46 1.48 1.46 1.45
1.37 1.33 1.30 1.32 1.35 1.38 1.36 1.37 1.38 1.41 1.44 1.44 1.49 1.53 1.60 1.67 1.72 1.77 1.76 1.75 1.71 1.68 1.64 1.60 1.57 1.55 1.50 1.49 1.49 1.52 1.53 1.52 1.54 1.58 1.59 1.58 1.57 1.54 1.52 1.50 1.50 1.49
1.51 1.44 1.38 1.36 1.36 1.37 1.39 1.40 1.41 1.40 1.39 1.41 1.45 1.50 1.56 1.62 1.66 1.70 1.71 1.70 1.70 1.69 1.66 1.62 1.60 1.57 1.54 1.53 1.52 1.54 1.55 1.55 1.54 1.54 1.56 1.58 1.57 1.57 1.55 1.54 1.50 1.52
1.65 1.58 1.52 1.47 1.44 1.41 1.41 1.41 1.41 1.43 1.41 1.39 1.43 1.47 1.53 1.57 1.62 1.64 1.69 1.68 1.69 1.69 1.67 1.64 1.60 1.57 1.55 1.54 1.55 1.55 1.56 1.54 1.52 1.52 1.54 1.55 1.55 1.56 1.56 1.56 1.54 1.52
1.80 1.78 1.70 1.60 1.55 1.52 1.47 1.44 1.44 1.45 1.44 1.42 1.42 1.43 1.48 1.54 1.57 1.60 1.65 1.66 1.66 1.67 1.68 1.67 1.63 1.57 1.54 1.55 1.55 1.55 1.54 1.53 1.52 1.50 1.49 1.49 1.48 1.50 1.52 1.52 1.53 1.53
1.96 1.90 1.89 1.82 1.70 1.61 1.54 1.50 1.50 1.52 1.51 1.46 1.41 1.40 1.46 1.53 1.57 1.60 1.60 1.61 1.63 1.65 1.66 1.66 1.62 1.57 1.54 1.52 1.50 1.51 1.52 1.50 1.50 1.48 1.46 1.44 1.42 1.42 1.44 1.45 1.46 1.47
2.07 2.00 1.94 1.93 1.84 1.72 1.65 1.57 1.51 1.52 1.52 1.48 1.42 1.40 1.42 1.48 1.54 1.58 1.59 1.58 1.59 1.62 1.64 1.64 1.61 1.59 1.55 1.50 1.49 1.50 1.51 1.50 1.49 1.47 1.45 1.41 1.37 1.34 1.35 1.37 1.38 1.39
2.08 2.04 1.99 1.96 1.98 1.90 1.77 1.65 1.57 1.53 1.50 1.45 1.41 1.40 1.37 1.39 1.43 1.47 1.49 1.53 1.55 1.57 1.58 1.58 1.58 1.57 1.53 1.48 1.45 1.46 1.49 1.50 1.48 1.47 1.47 1.44 1.40 1.36 1.31 1.32 1.34 1.36
2.11 2.08 2.05 2.04 2.02 2.01 1.95 1.84 1.72 1.61 1.53 1.46 1.39 1.37 1.40 1.40 1.35 1.35 1.40 1.45 1.49 1.52 1.54 1.55 1.56 1.57 1.54 1.50 1.46 1.44 1.46 1.47 1.49 1.47 1.45 1.43 1.41 1.38 1.37 1.36 1.35 1.36
2.17 2.14 2.08 2.06 2.08 2.06 2.04 2.01 1.91 1.82 1.72 1.59 1.48 1.44 1.43 1.43 1.41 1.34 1.35 1.42 1.45 1.48 1.50 1.55 1.55 1.58 1.55 1.53 1.50 1.47 1.45 1.45 1.45 1.46 1.43 1.41 1.40 1.39 1.38 1.38 1.38 1.37
2.18 2.16 2.12 2.12 2.11 2.11 2.11 2.07 1.98 1.89 1.89 1.85 1.74 1.63 1.52 1.49 1.50 1.45 1.39 1.37 1.40 1.44 1.49 1.54 1.58 1.59 1.59 1.56 1.53 1.50 1.47 1.46 1.45 1.44 1.43 1.41 1.40 1.39 1.38 1.37 1.38 1.35
2.17 2.15 2.14 2.15 2.15 2.15 2.15 2.12 2.07 1.99 1.94 1.92 1.89 1.82 1.70 1.62 1.62 1.60 1.57 1.51 1.46 1.45 1.47 1.51 1.53 1.58 1.59 1.59 1.57 1.53 1.50 1.47 1.46 1.44 1.42 1.42 1.44 1.44 1.43 1.42 1.42 1.41
2.10 2.13 2.13 2.13 2.11 2.10 2.12 2.12 2.12 2.09 1.99 1.96 1.93 1.93 1.91 1.84 1.78 1.78 1.76 1.66 1.59 1.55 1.55 1.48 1.55 1.58 1.60 1.60 1.61 1.60 1.58 1.54 1.52 1.49 1.45 1.44 1.43 1.44 1.44 1.45 1.45 1.43
2.04 2.05 2.04 2.05 2.07 2.07 2.08 2.12 2.11 2.08 2.08 2.09 2.00 1.96 1.94 1.93 1.90 1.85 1.80 1.72 1.68 1.63 1.56 1.55 1.55 1.60 1.63 1.65 1.65 1.65 1.64 1.61 1.57 1.54 1.52 1.50 1.49 1.51 1.52 1.52 1.52 1.53
1.96 2.00 2.02 2.08 2.08 2.06 2.09 2.13 2.17 2.17 2.10 2.13 2.05 2.01 1.98 1.99 2.01 1.95 1.92 1.90 1.89 1.86 1.76 1.69 1.64 1.65 1.63 1.65 1.68 1.69 1.68 1.64 1.62 1.57 1.55 1.55 1.57 1.61 1.64 1.65 1.66 1.65
1.85 1.88 1.91 1.90 1.97 2.04 2.07 2.06 2.08 2.08 2.12 2.13 2.10 2.07 2.05 2.07 2.07 2.03 2.02 2.06 2.06 2.02 1.96 1.84 1.75 1.72 1.72 1.69 1.66 1.70 1.73 1.72 1.67 1.62 1.56 1.57 1.59 1.61 1.67 1.69 1.72 1.73
1.69 1.71 1.75 1.75 1.78 1.86 1.97 2.03 2.07 2.05 2.04 2.06 2.06 2.07 2.05 2.04 2.02 2.03 2.03 2.04 2.04 2.02 2.00 1.94 1.84 1.79 1.78 1.82 1.84 1.78 1.76 1.79 1.82 1.72 1.65 1.65 1.67 1.67 1.67 1.72 1.77 1.80

ECMWFNIL_prec_pwat_102.txt.gz
Precipitable_Water
1.62 1.65 1.68 1.71 1.79 1.84 1.87 1.81 1.81 1.79 1.76 1.79 1.76 1.75 1.71 1.73 1.69 1.68 1.67 1.69 1.68 1.65 1.64 1.64 1.66 1.63 1.62 1.57 1.55 1.54 1.57 1.53 1.62 1.66 1.59 1.60 1.60 1.55 1.53 1.50 1.49 1.44
1.56 1.62 1.66 1.70 1.74 1.82 1.86 1.88 1.85 1.82 1.81 1.80 1.82 1.84 1.84 1.80 1.74 1.70 1.69 1.69 1.70 1.67 1.69 1.67 1.67 1.66 1.64 1.64 1.61 1.56 1.56 1.56 1.50 1.63 1.59 1.60 1.56 1.54 1.49 1.49 1.47 1.52
1.53 1.55 1.59 1.61 1.64 1.70 1.77 1.86 1.88 1.86 1.84 1.85 1.84 1.81 1.82 1.78 1.77 1.73 1.73 1.70 1.70 1.73 1.70 1.72 1.73 1.70 1.69 1.71 1.70 1.60 1.58 1.56 1.51 1.63 1.62 1.59 1.61 1.57 1.55 1.56 1.55 1.52
1.53 1.55 1.57 1.58 1.63 1.67 1.72 1.79 1.82 1.83 1.89 1.84 1.80 1.82 1.80 1.82 1.76 1.75 1.73 1.67 1.69 1.71 1.76 1.75 1.74 1.75 1.74 1.74 1.71 1.64 1.65 1.61 1.60 1.65 1.62 1.60 1.58 1.56 1.58 1.55 1.54 1.55
1.53 1.54 1.57 1.57 1.60 1.65 1.69 1.70 1.74 1.80 1.80 1.87 1.86 1.83 1.77 1.75 1.72 1.74 1.69 1.65 1.62 1.66 1.68 1.69 1.73 1.75 1.77 1.76 1.70 1.63 1.67 1.63 1.65 1.61 1.55 1.53 1.58 1.54 1.53 1.56 1.56 1.50
1.53 1.55 1.57 1.56 1.57 1.58 1.58 1.62 1.65 1.73 1.77 1.83 1.86 1.88 1.80 1.76 1.74 1.70 1.69 1.64 1.62 1.59 1.64 1.67 1.69 1.72 1.74 1.76 1.69 1.65 1.67 1.63 1.71 1.66 1.56 1.52 1.53 1.60 1.57 1.59 1.52 1.46
1.44 1.48 1.51 1.55 1.54 1.55 1.55 1.56 1.62 1.66 1.72 1.80 1.88 1.86 1.86 1.80 1.74 1.72 1.70 1.66 1.67 1.66 1.63 1.66 1.67 1.68 1.74 1.76 1.71 1.68 1.66 1.65 1.77 1.73 1.59 1.57 1.55 1.55 1.60 1.58 1.51 1.49
1.41 1.44 1.46 1.50 1.50 1.51 1.49 1.52 1.55 1.59 1.67 1.74 1.76 1.82 1.83 1.81 1.80 1.78 1.73 1.72 1.66 1.65 1.64 1.66 1.68 1.67 1.73 1.71 1.69 1.67 1.64 1.70 1.66 1.61 1.57 1.56 1.62 1.58 1.56 1.56 1.54 1.45
1.42 1.41 1.42 1.42 1.43 1.44 1.45 1.48 1.51 1.54 1.61 1.64 1.66 1.74 1.80 1.80 1.83 1.83 1.83 1.77 1.71 1.69 1.65 1.62 1.63 1.65 1.65 1.67 1.68 1.67 1.64 1.66 1.71 1.69 1.61 1.55 1.55 1.54 1.51 1.53 1.47 1.41
1.42 1.43 1.42 1.42 1.38 1.40 1.40 1.43 1.48 1.53 1.56 1.56 1.59 1.65 1.72 1.76 1.80 1.85 1.87 1.81 1.74 1.71 1.67 1.63 1.60 1.55 1.56 1.57 1.58 1.60 1.60 1.58 1.57 1.58 1.59 1.58 1.57 1.58 1.56 1.53 1.48 1.45
1.45 1.44 1.40 1.41 1.41 1.41 1.39 1.41 1.42 1.46 1.53 1.51 1.52 1.52 1.61 1.72 1.74 1.80 1.85 1.81 1.75 1.74 1.72 1.67 1.62 1.58 1.52 1.52 1.54 1.55 1.54 1.53 1.54 1.53 1.55 1.57 1.58 1.58 1.56 1.52 1.50 1.49
1.52 1.46 1.41 1.40 1.39 1.41 1.44 1.46 1.46 1.43 1.46 1.53 1.50 1.49 1.53 1.63 1.70 1.71 1.74 1.77 1.77 1.79 1.79 1.75 1.68 1.63 1.57 1.53 1.52 1.53 1.52 1.52 1.55 1.53 1.55 1.57 1.58 1.59 1.55 1.53 1.50 1.51
1.61 1.54 1.48 1.45 1.43 1.43 1.45 1.49 1.51 1.52 1.48 1.48 1.52 1.46 1.47 1.51 1.62 1.66 1.71 1.72 1.75 1.75 1.76 1.75 1.70 1.64 1.59 1.53 1.50 1.53 1.56 1.57 1.58 1.57 1.55 1.56 1.58 1.57 1.57 1.55 1.52 1.51
1.80 1.74 1.66 1.59 1.56 1.53 1.49 1.49 1.51 1.53 1.55 1.54 1.54 1.49 1.43 1.45 1.52 1.63 1.68 1.69 1.72 1.73 1.74 1.74 1.70 1.64 1.58 1.54 1.52 1.52 1.54 1.55 1.56 1.57 1.58 1.56 1.57 1.58 1.58 1.59 1.60 1.58
1.94 1.94 1.86 1.78 1.68 1.63 1.59 1.52 1.50 1.52 1.54 1.57 1.57 1.53 1.48 1.45 1.47 1.57 1.66 1.66 1.67 1.69 1.70 1.70 1.67 1.64 1.61 1.56 1.49 1.48 1.50 1.54 1.55 1.56 1.53 1.53 1.53 1.53 1.55 1.53 1.52 1.55
1.94 1.97 1.98 1.93 1.83 1.74 1.70 1.65 1.58 1.52 1.50 1.52 1.57 1.57 1.52 1.48 1.45 1.49 1.56 1.61 1.61 1.63 1.64 1.64 1.64 1.66 1.67 1.59 1.55 1.54 1.54 1.51 1.54 1.55 1.55 1.54 1.51 1.46 1.46 1.47 1.46 1.46
2.04 2.00 2.04 2.05 2.00 1.92 1.87 1.82 1.72 1.65 1.55 1.52 1.54 1.58 1.57 1.53 1.47 1.46 1.47 1.53 1.57 1.58 1.58 1.58 1.61 1.66 1.68 1.61 1.55 1.46 1.46 1.52 1.51 1.52 1.51 1.48 1.45 1.43 1.40 1.42 1.44 1.44
2.10 2.07 2.06 2.07 2.08 2.02 1.96 1.93 1.90 1.84 1.73 1.61 1.54 1.54 1.59 1.60 1.55 1.48 1.47 1.49 1.53 1.57 1.57 1.60 1.63 1.68 1.69 1.62 1.55 1.50 1.47 1.46 1.50 1.51 1.51 1.48 1.46 1.43 1.43 1.42 1.41 1.42
2.11 2.08 2.05 2.07 2.08 2.08 2.08 2.04 1.96 1.93 1.89 1.78 1.62 1.59 1.62 1.58 1.55 1.52 1.48 1.48 1.51 1.52 1.54 1.61 1.67 1.80 1.71 1.64 1.59 1.56 1.51 1.48 1.47 1.51 1.54 1.54 1.54 1.52 1.48 1.47 1.47 1.45
2.15 2.13 2.10 2.11 2.13 2.12 2.11 2.08 2.04 1.97 1.99 1.95 1.85 1.75 1.68 1.66 1.62 1.57 1.60 1.55 1.49 1.48 1.51 1.59 1.67 1.67 1.67 1.63 1.60 1.58 1.54 1.51 1.48 1.47 1.48 1.50 1.53 1.54 1.53 1.51 1.49 1.47
2.14 2.14 2.14 2.16 2.17 2.17 2.15 2.11 2.08 2.06 2.02 1.99 1.98 1.91 1.82 1.76 1.74 1.68 1.69 1.63 1.53 1.47 1.45 1.53 1.53 1.60 1.59 1.57 1.56 1.56 1.56 1.54 1.53 1.50 1.49 1.49 1.50 1.53 1.53 1.52 1.54 1.52
2.09 2.12 2.14 2.18 2.19 2.20 2.16 2.12 2.10 2.11 2.09 2.08 2.05 2.03 2.01 1.97 1.92 1.86 1.79 1.72 1.71 1.63 1.57 1.53 1.47 1.52 1.54 1.53 1.53 1.55 1.56 1.57 1.57 1.53 1.51 1.52 1.55 1.58 1.60 1.62 1.59 1.56
2.06 2.08 2.09 2.12 2.19 2.19 2.18 2.17 2.14 2.13 2.13 2.15 2.04 2.03 2.00 1.98 1.97 1.98 1.99 1.93 1.84 1.79 1.76 1.56 1.45 1.45 1.47 1.48 1.49 1.53 1.54 1.59 1.60 1.61 1.61 1.57 1.60 1.63 1.62 1.58 1.56 1.56
1.98 2.03 2.05 2.08 2.09 2.10 2.11 2.16 2.18 2.18 2.15 2.18 2.07 2.02 2.02 2.03 2.05 2.04 2.09 2.04 1.97 1.97 1.81 1.61 1.55 1.54 1.51 1.50 1.49 1.51 1.55 1.62 1.63 1.61 1.63 1.64 1.66 1.68 1.68 1.67 1.65 1.59
1.89 1.92 1.98 1.99 2.01 2.02 2.06 2.08 2.10 2.12 2.17 2.20 2.14 2.11 2.11 2.12 2.10 2.02 2.03 2.09 2.12 2.04 2.00 1.84 1.74 1.70 1.65 1.62 1.60 1.58 1.56 1.62 1.65 1.63 1.61 1.62 1.67 1.69 1.74 1.74 1.74 1.74
1.74 1.78 1.83 1.88 1.92 1.98 2.01 2.03 2.07 2.06 2.14 2.14 2.17 2.17 2.14 2.15 2.10 2.01 1.95 2.05 2.09 2.06 1.97 1.94 1.89 1.84 1.81 1.77 1.73 1.72 1.73 1.74 1.74 1.62 1.59 1.61 1.64 1.65 1.68 1.72 1.76 1.76

ECMWFNIL_prec_pwat_105.txt.gz
Precipitable_Water
1.74 1.75 1.75 1.78 1.81 1.85 1.85 1.79 1.81 1.76 1.75 1.82 1.72 1.69 1.74 1.68 1.70 1.73 1.65 1.69 1.62 1.63 1.67 1.71 1.70 1.65 1.63 1.58 1.57 1.56 1.66 1.57 1.72 1.74 1.62 1.61 1.67 1.58 1.59 1.52 1.48 1.41
1.66 1.69 1.71 1.75 1.82 1.87 1.89 1.88 1.83 1.86 1.76 1.83 1.90 1.93 1.79 1.83 1.73 1.73 1.72 1.70 1.69 1.66 1.70 1.69 1.68 1.66 1.66 1.64 1.58 1.52 1.54 1.59 1.50 1.73 1.65 1.60 1.56 1.60 1.55 1.50 1.47 1.53
1.62 1.64 1.64 1.64 1.73 1.78 1.84 1.87 1.91 1.83 1.83 1.80 1.82 1.87 1.87 1.82 1.82 1.74 1.72 1.70 1.69 1.69 1.67 1.69 1.70 1.67 1.68 1.74 1.77 1.61 1.58 1.52 1.52 1.71 1.69 1.64 1.62 1.61 1.63 1.63 1.60 1.53
1.58 1.61 1.62 1.60 1.74 1.83 1.80 1.85 1.88 1.82 1.86 1.85 1.83 1.85 1.83 1.88 1.83 1.79 1.76 1.69 1.73 1.77 1.76 1.72 1.71 1.71 1.69 1.71 1.72 1.60 1.67 1.62 1.60 1.62 1.70 1.62 1.59 1.60 1.63 1.58 1.62 1.66
1.55 1.55 1.60 1.62 1.64 1.74 1.79 1.79 1.84 1.84 1.83 1.89 1.85 1.88 1.73 1.90 1.82 1.84 1.75 1.69 1.71 1.71 1.75 1.75 1.73 1.73 1.75 1.71 1.68 1.60 1.65 1.65 1.60 1.62 1.56 1.55 1.58 1.57 1.53 1.57 1.62 1.57
1.58 1.57 1.57 1.60 1.65 1.66 1.71 1.74 1.75 1.82 1.78 1.87 1.84 1.88 1.82 1.78 1.75 1.77 1.79 1.73 1.66 1.64 1.67 1.66 1.70 1.67 1.75 1.73 1.70 1.62 1.71 1.58 1.70 1.67 1.58 1.53 1.57 1.64 1.61 1.61 1.56 1.48
1.58 1.56 1.54 1.55 1.58 1.61 1.64 1.68 1.73 1.74 1.77 1.82 1.90 1.85 1.87 1.81 1.70 1.76 1.78 1.73 1.75 1.66 1.66 1.73 1.72 1.77 1.70 1.79 1.69 1.63 1.62 1.65 1.69 1.79 1.63 1.57 1.56 1.54 1.63 1.66 1.64 1.53
1.55 1.60 1.56 1.55 1.52 1.55 1.52 1.59 1.68 1.63 1.69 1.72 1.76 1.82 1.86 1.84 1.79 1.78 1.76 1.75 1.73 1.74 1.72 1.75 1.73 1.71 1.79 1.81 1.76 1.67 1.62 1.60 1.59 1.64 1.59 1.50 1.58 1.56 1.54 1.58 1.60 1.47
1.52 1.53 1.54 1.50 1.49 1.51 1.50 1.51 1.54 1.63 1.68 1.64 1.67 1.74 1.78 1.83 1.84 1.80 1.80 1.77 1.74 1.74 1.73 1.73 1.76 1.66 1.69 1.72 1.72 1.70 1.62 1.66 1.72 1.74 1.61 1.57 1.47 1.48 1.51 1.54 1.50 1.45
1.48 1.49 1.51 1.51 1.46 1.47 1.49 1.50 1.51 1.55 1.60 1.63 1.63 1.70 1.79 1.74 1.81 1.80 1.83 1.81 1.75 1.76 1.78 1.68 1.73 1.68 1.66 1.63 1.67 1.71 1.69 1.61 1.73 1.74 1.70 1.64 1.58 1.58 1.57 1.55 1.51 1.50
1.50 1.46 1.43 1.47 1.48 1.46 1.45 1.49 1.50 1.55 1.61 1.60 1.60 1.62 1.70 1.78 1.75 1.78 1.81 1.82 1.73 1.74 1.76 1.70 1.68 1.68 1.61 1.60 1.62 1.61 1.64 1.62 1.64 1.62 1.61 1.59 1.58 1.57 1.58 1.57 1.55 1.51
1.57 1.53 1.47 1.43 1.45 1.48 1.46 1.45 1.46 1.46 1.51 1.60 1.61 1.57 1.58 1.68 1.76 1.72 1.74 1.76 1.73 1.76 1.77 1.75 1.75 1.71 1.67 1.60 1.59 1.62 1.59 1.58 1.60 1.58 1.59 1.56 1.54 1.54 1.54 1.53 1.48 1.45
1.58 1.60 1.57 1.51 1.46 1.45 1.47 1.49 1.48 1.48 1.46 1.49 1.59 1.58 1.55 1.55 1.69 1.75 1.73 1.75 1.73 1.74 1.77 1.80 1.78 1.78 1.74 1.67 1.58 1.57 1.60 1.56 1.55 1.57 1.56 1.57 1.54 1.57 1.60 1.61 1.56 1.51
1.66 1.65 1.61 1.61 1.56 1.52 1.51 1.50 1.49 1.52 1.52 1.53 1.56 1.56 1.52 1.52 1.53 1.69 1.78 1.74 1.75 1.71 1.74 1.81 1.79 1.75 1.77 1.71 1.65 1.55 1.55 1.55 1.53 1.54 1.59 1.59 1.62 1.60 1.59 1.61 1.61 1.57
1.77 1.76 1.74 1.70 1.65 1.60 1.55 1.52 1.55 1.56 1.57 1.56 1.56 1.56 1.57 1.55 1.51 1.54 1.68 1.74 1.75 1.73 1.70 1.72 1.76 1.73 1.84 1.86 1.65 1.63 1.56 1.52 1.54 1.52 1.50 1.58 1.61 1.62 1.61 1.55 1.57 1.62
1.84 1.83 1.85 1.85 1.75 1.71 1.68 1.61 1.60 1.60 1.60 1.60 1.60 1.61 1.63 1.64 1.57 1.53 1.57 1.67 1.71 1.72 1.71 1.69 1.71 1.75 1.75 1.85 1.76 1.63 1.75 1.53 1.54 1.54 1.55 1.56 1.57 1.53 1.57 1.60 1.57 1.53
1.98 1.93 1.90 1.87 1.93 1.89 1.83 1.82 1.80 1.76 1.70 1.69 1.64 1.61 1.59 1.63 1.60 1.54 1.51 1.57 1.65 1.68 1.69 1.67 1.68 1.73 1.73 1.79 1.73 1.67 1.66 1.61 1.53 1.57 1.57 1.54 1.54 1.52 1.46 1.49 1.51 1.53
2.12 2.09 2.09 1.98 1.99 2.06 2.09 2.01 1.97 1.90 1.85 1.79 1.69 1.64 1.63 1.63 1.58 1.53 1.51 1.53 1.58 1.66 1.66 1.67 1.68 1.74 1.72 1.76 1.72 1.66 1.63 1.56 1.54 1.54 1.57 1.56 1.50 1.45 1.48 1.44 1.43 1.42
2.04 2.09 2.11 2.12 2.11 2.11 2.12 2.10 2.06 2.03 2.00 1.91 1.85 1.84 1.81 1.70 1.60 1.55 1.53 1.54 1.53 1.56 1.60 1.72 1.77 1.72 1.79 1.77 1.74 1.69 1.63 1.56 1.49 1.50 1.52 1.57 1.58 1.57 1.52 1.49 1.48 1.50
2.07 2.08 2.11 2.15 2.14 2.16 2.17 2.17 2.14 2.06 2.04 2.02 2.00 2.01 1.96 1.89 1.84 1.72 1.73 1.70 1.59 1.52 1.58 1.73 1.73 1.78 1.79 1.84 1.75 1.70 1.64 1.58 1.55 1.51 1.50 1.54 1.59 1.62 1.62 1.65 1.61 1.53
2.09 2.08 2.13 2.09 2.16 2.16 2.12 2.09 2.11 2.13 2.09 2.06 2.03 1.98 1.99 1.94 1.88 1.80 1.82 1.79 1.70 1.71 1.75 1.80 1.72 1.79 1.77 1.77 1.77 1.71 1.68 1.62 1.61 1.55 1.52 1.54 1.51 1.52 1.61 1.63 1.64 1.83
2.08 2.09 2.05 2.07 2.10 2.16 2.14 2.11 2.09 2.09 2.09 2.11 2.04 2.01 2.06 2.07 2.03 1.96 1.87 1.89 1.84 1.82 1.83 1.92 1.86 1.91 1.86 1.75 1.71 1.68 1.65 1.61 1.58 1.57 1.51 1.54 1.58 1.58 1.63 1.71 1.64 1.61
1.94 1.94 1.96 2.04 2.12 2.14 2.13 2.13 2.12 2.11 2.15 2.20 2.11 2.04 2.04 2.08 2.07 2.04 2.03 1.88 1.85 1.91 1.79 1.69 1.84 1.93 1.84 1.77 1.72 1.66 1.58 1.56 1.56 1.55 1.57 1.58 1.53 1.63 1.69 1.75 1.80 1.82
1.93 1.94 1.96 1.99 2.03 2.02 2.08 2.14 2.16 2.20 2.20 2.20 2.14 2.12 2.10 2.16 2.16 2.09 2.11 2.03 1.93 1.87 1.85 1.69 1.77 1.91 1.89 1.81 1.75 1.69 1.61 1.57 1.59 1.59 1.60 1.64 1.65 1.70 1.82 1.86 1.96 2.01
1.87 1.89 1.90 1.93 1.96 2.00 2.05 2.08 2.12 2.18 2.23 2.24 2.21 2.18 2.13 2.19 2.21 2.14 2.10 2.11 2.15 2.08 1.96 1.87 1.83 1.92 1.94 1.85 1.75 1.70 1.63 1.58 1.62 1.60 1.60 1.70 1.77 1.90 2.05 1.93 1.97 1.89
1.77 1.79 1.82 1.85 1.85 1.91 1.97 2.01 2.06 2.09 2.13 2.16 2.19 2.19 2.17 2.20 2.19 2.18 2.12 2.13 2.18 2.15 2.04 1.93 1.84 1.83 1.87 1.90 1.89 1.84 1.73 1.64 1.68 1.62 1.52 1.54 1.71 1.73 1.65 1.74 1.93 2.01

ECMWFNIL_prec_pwat_108.txt.gz
Precipitable_Water
1.74 1.82 1.76 1.78 1.75 1.74 1.79 1.79 1.81 1.76 1.78 1.77 1.65 1.63 1.67 1.65 1.70 1.65 1.61 1.63 1.56 1.58 1.63 1.63 1.61 1.58 1.59 1.58 1.59 1.58 1.70 1.65 1.69 1.79 1.61 1.55 1.53 1.51 1.57 1.56 1.47 1.42
1.69 1.71 1.78 1.79 1.80 1.92 1.97 1.92 1.85 1.82 1.82 1.79 1.81 1.83 1.75 1.77 1.68 1.77 1.64 1.65 1.61 1.56 1.61 1.62 1.61 1.58 1.54 1.56 1.53 1.47 1.48 1.56 1.60 1.75 1.60 1.53 1.51 1.57 1.60 1.62 1.55 1.53
1.76 1.73 1.74 1.75 1.77 1.76 1.75 1.82 1.87 1.89 1.95 1.85 1.87 1.88 1.88 1.81 1.74 1.71 1.72 1.70 1.65 1.60 1.60 1.62 1.61 1.58 1.57 1.58 1.62 1.53 1.45 1.48 1.48 1.61 1.63 1.65 1.59 1.54 1.57 1.61 1.62 1.60
1.65 1.68 1.76 1.77 1.86 1.76 1.77 1.88 1.86 1.87 1.88 1.84 1.83 1.88 1.85 1.88 1.85 1.75 1.69 1.68 1.66 1.65 1.68 1.64 1.63 1.62 1.59 1.60 1.61 1.56 1.54 1.58 1.57 1.56 1.61 1.62 1.61 1.59 1.64 1.64 1.61 1.70
1.56 1.62 1.75 1.85 1.82 1.92 1.90 1.94 1.92 1.89 1.80 1.79 1.87 1.86 1.83 1.81 1.86 1.84 1.72 1.66 1.67 1.66 1.72 1.68 1.65 1.68 1.66 1.61 1.63 1.54 1.51 1.56 1.58 1.52 1.52 1.55 1.55 1.49 1.51 1.59 1.59 1.60
1.50 1.53 1.58 1.63 1.76 1.69 1.73 1.77 1.85 1.83 1.82 1.85 1.89 1.85 1.84 1.83 1.76 1.80 1.80 1.75 1.65 1.67 1.75 1.80 1.71 1.69 1.69 1.65 1.63 1.59 1.52 1.55 1.62 1.62 1.55 1.44 1.44 1.54 1.56 1.58 1.50 1.48
1.48 1.50 1.49 1.53 1.64 1.71 1.67 1.78 1.82 1.85 1.84 1.85 1.90 1.85 1.88 1.83 1.81 1.79 1.78 1.78 1.75 1.66 1.68 1.72 1.73 1.70 1.75 1.78 1.71 1.63 1.59 1.53 1.63 1.59 1.60 1.53 1.52 1.48 1.53 1.62 1.65 1.60
1.55 1.53 1.51 1.50 1.49 1.59 1.67 1.72 1.70 1.78 1.79 1.76 1.81 1.84 1.83 1.85 1.84 1.80 1.76 1.82 1.79 1.73 1.72 1.71 1.77 1.71 1.68 1.74 1.72 1.70 1.63 1.59 1.60 1.54 1.56 1.61 1.52 1.47 1.50 1.48 1.57 1.56
1.60 1.58 1.55 1.50 1.47 1.49 1.52 1.56 1.62 1.75 1.80 1.71 1.74 1.73 1.80 1.85 1.89 1.85 1.85 1.82 1.80 1.79 1.76 1.74 1.80 1.78 1.71 1.66 1.67 1.71 1.69 1.63 1.67 1.64 1.56 1.48 1.41 1.42 1.49 1.56 1.45 1.42
1.52 1.54 1.54 1.53 1.52 1.52 1.49 1.53 1.55 1.63 1.72 1.68 1.73 1.71 1.69 1.86 1.88 1.85 1.91 1.85 1.79 1.78 1.79 1.74 1.69 1.73 1.73 1.65 1.63 1.66 1.67 1.64 1.65 1.70 1.73 1.65 1.59 1.54 1.51 1.47 1.43 1.44
1.48 1.48 1.47 1.48 1.50 1.55 1.50 1.51 1.55 1.56 1.62 1.65 1.66 1.69 1.72 1.80 1.79 1.82 1.82 1.84 1.78 1.74 1.82 1.73 1.75 1.78 1.70 1.70 1.69 1.71 1.68 1.68 1.64 1.63 1.64 1.65 1.65 1.62 1.61 1.61 1.57 1.51
1.57 1.53 1.46 1.43 1.44 1.50 1.51 1.51 1.53 1.54 1.55 1.62 1.64 1.64 1.70 1.77 1.68 1.79 1.87 1.84 1.78 1.80 1.81 1.81 1.79 1.76 1.72 1.64 1.65 1.69 1.73 1.71 1.68 1.64 1.64 1.65 1.60 1.60 1.63 1.56 1.54 1.55
1.57 1.58 1.58 1.52 1.48 1.46 1.51 1.52 1.52 1.53 1.52 1.54 1.62 1.65 1.66 1.65 1.66 1.70 1.83 1.81 1.81 1.75 1.76 1.80 1.80 1.77 1.73 1.72 1.66 1.66 1.66 1.65 1.61 1.58 1.58 1.56 1.59 1.59 1.59 1.62 1.55 1.48
1.68 1.64 1.62 1.63 1.62 1.58 1.53 1.49 1.51 1.55 1.57 1.57 1.57 1.61 1.61 1.63 1.61 1.69 1.80 1.77 1.81 1.76 1.77 1.75 1.81 1.81 1.76 1.78 1.72 1.68 1.64 1.67 1.65 1.56 1.59 1.57 1.54 1.58 1.58 1.61 1.64 1.66
1.75 1.81 1.86 1.80 1.63 1.60 1.60 1.57 1.53 1.55 1.59 1.60 1.59 1.63 1.65 1.61 1.63 1.59 1.71 1.83 1.83 1.85 1.79 1.82 1.86 1.83 1.82 1.79 1.72 1.68 1.68 1.66 1.68 1.62 1.57 1.52 1.54 1.55 1.56 1.59 1.62 1.70
1.85 1.90 1.85 1.81 1.70 1.64 1.62 1.66 1.66 1.61 1.61 1.63 1.61 1.60 1.64 1.68 1.64 1.61 1.55 1.63 1.80 1.83 1.91 1.83 1.82 1.90 1.90 1.83 1.75 1.73 1.72 1.74 1.75 1.73 1.68 1.61 1.51 1.53 1.57 1.62 1.71 1.69
1.91 1.88 1.87 1.81 1.78 1.66 1.54 1.68 1.68 1.75 1.77 1.78 1.72 1.70 1.67 1.70 1.67 1.63 1.54 1.54 1.58 1.78 1.91 1.85 1.85 1.85 1.90 1.90 1.83 1.79 1.82 1.75 1.63 1.65 1.74 1.71 1.60 1.54 1.50 1.56 1.56 1.67
1.99 1.95 1.90 1.90 1.88 1.85 1.80 1.69 1.60 1.60 1.76 1.88 1.97 1.84 1.83 1.76 1.68 1.62 1.61 1.57 1.57 1.59 1.66 1.81 1.91 1.88 1.86 1.92 1.90 1.84 1.81 1.74 1.67 1.64 1.68 1.71 1.71 1.67 1.57 1.53 1.54 1.56
1.99 1.96 1.95 1.92 1.95 1.94 1.91 1.92 1.87 1.72 1.64 1.62 1.64 1.88 2.02 1.98 1.80 1.70 1.69 1.70 1.61 1.62 1.70 1.72 1.76 1.85 1.86 1.80 1.84 1.87 1.83 1.77 1.71 1.68 1.67 1.70 1.69 1.74 1.68 1.63 1.62 1.63
1.97 1.95 1.94 1.95 1.97 2.01 2.01 1.98 1.97 1.92 1.88 1.82 1.78 1.82 1.95 2.02 1.99 1.92 1.94 1.88 1.85 1.81 1.70 1.66 1.66 1.73 1.83 1.88 1.86 1.85 1.86 1.83 1.77 1.67 1.60 1.61 1.72 1.69 1.67 1.71 1.78 1.78
2.01 1.99 1.98 2.01 2.04 2.04 2.05 2.04 2.01 2.02 2.03 2.04 1.93 1.91 1.95 2.02 2.06 1.99 1.91 1.92 1.95 1.97 1.99 1.85 1.81 1.83 1.81 1.83 1.89 1.95 1.94 1.86 1.77 1.70 1.60 1.58 1.61 1.68 1.74 1.72 1.75 1.75
2.00 2.02 2.03 2.03 2.04 2.04 2.02 2.03 2.06 2.11 2.13 2.18 2.15 2.14 2.13 2.10 2.11 2.08 1.96 1.93 1.91 1.92 1.97 1.88 1.89 1.95 1.93 1.90 1.89 1.86 1.86 1.87 1.84 1.77 1.68 1.61 1.67 1.67 1.71 1.76 1.74 1.74
1.90 1.92 1.93 1.95 1.99 1.98 1.98 2.02 2.06 2.11 2.15 2.21 2.12 2.11 2.15 2.14 2.12 2.12 2.11 2.04 1.99 2.01 2.07 2.01 1.93 1.90 1.90 1.92 1.91 1.89 1.85 1.81 1.83 1.82 1.80 1.74 1.62 1.64 1.71 1.73 1.80 1.87
1.82 1.81 1.81 1.86 1.92 1.93 1.96 2.01 2.07 2.11 2.12 2.18 2.12 2.10 2.09 2.10 2.14 2.14 2.12 2.09 2.07 2.02 2.01 1.95 1.93 1.91 1.87 1.89 1.93 1.96 1.96 1.92 1.89 1.88 1.77 1.74 1.73 1.69 1.71 1.69 1.69 1.75
1.84 1.84 1.83 1.85 1.87 1.91 1.96 1.99 2.02 2.04 2.11 2.17 2.17 2.16 2.15 2.16 2.16 2.14 2.15 2.16 2.14 2.09 2.03 1.92 1.86 1.87 1.90 1.87 1.88 1.91 1.96 1.99 1.96 1.82 1.72 1.70 1.66 1.66 1.70 1.75 1.75 1.76
1.82 1.82 1.81 1.82 1.84 1.88 1.93 1.95 1.98 2.00 2.05 2.03 2.09 2.14 2.14 2.16 2.17 2.14 2.13 2.17 2.17 2.13 2.08 2.03 1.94 1.92 1.91 1.89 1.89 1.92 1.96 2.00 1.96 1.83 1.69 1.64 1.64 1.65 1.68 1.68 1.69 1.66

ECMWFNIL_prec_pwat_111.txt.gz
Precipitable_Water
1.68 1.73 1.76 1.76 1.74 1.74 1.73 1.67 1.66 1.64 1.64 1.65 1.59 1.56 1.57 1.57 1.61 1.54 1.53 1.55 1.53 1.53 1.61 1.61 1.61 1.58 1.59 1.62 1.65 1.67 1.75 1.67 1.63 1.66 1.57 1.57 1.50 1.50 1.48 1.48 1.50 1.46
1.67 1.71 1.75 1.76 1.77 1.79 1.79 1.76 1.73 1.74 1.72 1.74 1.72 1.66 1.67 1.68 1.66 1.66 1.63 1.58 1.57 1.54 1.58 1.61 1.62 1.58 1.57 1.57 1.56 1.54 1.60 1.66 1.60 1.78 1.67 1.56 1.53 1.55 1.56 1.57 1.53 1.49
1.66 1.68 1.67 1.69 1.73 1.76 1.83 1.87 1.86 1.82 1.78 1.80 1.81 1.76 1.74 1.75 1.72 1.66 1.69 1.68 1.62 1.60 1.58 1.60 1.61 1.61 1.57 1.56 1.59 1.52 1.45 1.48 1.51 1.65 1.64 1.57 1.57 1.54 1.58 1.63 1.62 1.57
1.61 1.64 1.66 1.69 1.73 1.75 1.82 1.82 1.86 1.87 1.86 1.83 1.78 1.79 1.80 1.81 1.77 1.71 1.71 1.74 1.68 1.64 1.63 1.63 1.62 1.61 1.59 1.58 1.60 1.59 1.52 1.45 1.48 1.55 1.60 1.68 1.68 1.60 1.60 1.63 1.66 1.69
1.53 1.60 1.64 1.68 1.73 1.74 1.78 1.76 1.80 1.80 1.80 1.82 1.84 1.86 1.86 1.83 1.80 1.79 1.75 1.68 1.69 1.68 1.67 1.66 1.65 1.64 1.63 1.58 1.59 1.57 1.54 1.51 1.56 1.57 1.51 1.53 1.62 1.61 1.59 1.62 1.61 1.60
1.53 1.59 1.59 1.62 1.73 1.75 1.71 1.74 1.81 1.81 1.80 1.79 1.78 1.86 1.84 1.82 1.78 1.84 1.83 1.74 1.70 1.66 1.68 1.69 1.68 1.66 1.67 1.66 1.64 1.59 1.55 1.52 1.56 1.57 1.52 1.47 1.51 1.58 1.56 1.57 1.56 1.51
1.49 1.52 1.52 1.56 1.59 1.70 1.68 1.69 1.74 1.80 1.83 1.82 1.87 1.85 1.85 1.81 1.77 1.77 1.78 1.79 1.77 1.68 1.65 1.69 1.74 1.71 1.70 1.72 1.70 1.64 1.60 1.57 1.61 1.63 1.59 1.59 1.56 1.51 1.52 1.58 1.62 1.62
1.49 1.50 1.50 1.52 1.52 1.57 1.59 1.62 1.66 1.76 1.81 1.81 1.79 1.86 1.88 1.85 1.83 1.79 1.80 1.80 1.77 1.75 1.69 1.70 1.75 1.77 1.76 1.75 1.72 1.70 1.66 1.64 1.57 1.55 1.55 1.57 1.60 1.50 1.48 1.48 1.55 1.56
1.63 1.57 1.52 1.50 1.48 1.52 1.56 1.61 1.65 1.70 1.77 1.76 1.73 1.77 1.84 1.85 1.85 1.85 1.84 1.80 1.76 1.80 1.78 1.75 1.76 1.77 1.82 1.75 1.69 1.70 1.71 1.71 1.65 1.60 1.56 1.53 1.53 1.49 1.44 1.52 1.51 1.48
1.66 1.67 1.63 1.57 1.49 1.51 1.50 1.56 1.62 1.64 1.69 1.70 1.70 1.72 1.73 1.79 1.84 1.89 1.89 1.86 1.84 1.81 1.81 1.76 1.75 1.76 1.81 1.77 1.70 1.69 1.72 1.72 1.72 1.71 1.72 1.71 1.63 1.55 1.49 1.48 1.47 1.45
1.62 1.63 1.63 1.61 1.56 1.53 1.51 1.55 1.58 1.61 1.65 1.69 1.72 1.70 1.73 1.74 1.78 1.88 1.89 1.87 1.87 1.83 1.79 1.77 1.76 1.76 1.76 1.75 1.73 1.71 1.68 1.66 1.66 1.68 1.69 1.72 1.72 1.69 1.67 1.66 1.66 1.60
1.60 1.58 1.58 1.58 1.55 1.53 1.53 1.55 1.60 1.61 1.64 1.66 1.67 1.67 1.70 1.72 1.72 1.79 1.83 1.82 1.85 1.87 1.83 1.80 1.81 1.79 1.76 1.76 1.75 1.74 1.74 1.70 1.68 1.68 1.66 1.67 1.70 1.73 1.72 1.72 1.69 1.64
1.65 1.63 1.62 1.59 1.54 1.52 1.54 1.55 1.58 1.60 1.59 1.59 1.64 1.66 1.67 1.69 1.72 1.74 1.77 1.77 1.81 1.88 1.84 1.80 1.81 1.83 1.81 1.80 1.76 1.71 1.70 1.72 1.72 1.71 1.67 1.63 1.64 1.66 1.68 1.68 1.67 1.66
1.79 1.77 1.70 1.67 1.68 1.67 1.60 1.58 1.57 1.57 1.60 1.64 1.70 1.68 1.64 1.65 1.72 1.73 1.74 1.74 1.79 1.85 1.89 1.84 1.79 1.78 1.83 1.85 1.82 1.77 1.74 1.72 1.71 1.70 1.67 1.66 1.62 1.65 1.68 1.67 1.67 1.72
2.00 1.84 1.77 1.70 1.63 1.61 1.57 1.56 1.55 1.56 1.58 1.59 1.66 1.69 1.75 1.76 1.75 1.76 1.74 1.72 1.77 1.83 1.88 1.88 1.79 1.76 1.78 1.81 1.81 1.81 1.79 1.76 1.73 1.74 1.71 1.64 1.61 1.60 1.66 1.68 1.69 1.71
1.98 1.85 1.76 1.74 1.67 1.61 1.58 1.56 1.53 1.54 1.55 1.55 1.56 1.61 1.66 1.69 1.73 1.79 1.81 1.80 1.76 1.80 1.86 1.90 1.88 1.86 1.85 1.87 1.86 1.83 1.81 1.77 1.75 1.75 1.77 1.79 1.74 1.67 1.60 1.65 1.82 1.92
1.95 1.84 1.79 1.74 1.73 1.73 1.74 1.70 1.61 1.54 1.53 1.55 1.55 1.55 1.59 1.67 1.71 1.73 1.77 1.81 1.89 1.86 1.80 1.84 1.88 1.93 1.91 1.89 1.87 1.87 1.87 1.81 1.73 1.75 1.79 1.80 1.79 1.75 1.75 1.80 1.83 1.88
2.01 1.95 1.88 1.82 1.80 1.78 1.81 1.83 1.79 1.69 1.61 1.58 1.57 1.59 1.61 1.65 1.64 1.67 1.71 1.75 1.76 1.77 1.83 1.84 1.86 1.88 1.88 1.87 1.89 1.91 1.90 1.86 1.83 1.82 1.79 1.75 1.75 1.78 1.80 1.69 1.67 1.69
2.03 2.01 1.97 1.91 1.88 1.89 1.90 1.90 1.86 1.83 1.78 1.72 1.69 1.74 1.75 1.69 1.68 1.73 1.76 1.77 1.76 1.82 1.74 1.73 1.81 1.88 1.85 1.88 1.88 1.89 1.91 1.90 1.88 1.86 1.86 1.76 1.72 1.71 1.71 1.70 1.72 1.77
1.96 2.00 2.00 1.99 1.96 1.93 1.92 1.92 1.91 1.88 1.88 1.89 1.89 1.87 1.82 1.77 1.76 1.81 1.83 1.81 1.87 1.92 1.85 1.68 1.65 1.75 1.77 1.78 1.81 1.85 1.88 1.90 1.92 1.95 1.97 2.00 1.93 1.75 1.75 1.72 1.74 1.78
1.89 1.92 1.97 2.05 2.06 1.99 1.95 1.93 1.94 1.94 1.94 1.99 1.99 1.96 1.92 1.86 1.80 1.76 1.80 1.84 1.87 1.91 1.85 1.76 1.73 1.74 1.74 1.73 1.74 1.77 1.83 1.89 1.95 1.96 1.91 1.88 1.97 1.89 1.75 1.73 1.79 1.83
1.92 1.96 2.00 2.05 2.06 2.06 1.99 1.95 1.95 1.95 1.93 2.01 2.05 2.07 2.07 2.05 2.01 1.96 1.87 1.84 1.90 1.91 1.87 1.83 1.86 1.91 1.90 1.86 1.80 1.79 1.83 1.89 1.95 1.96 2.00 1.84 1.89 1.96 1.86 1.79 1.80 1.77
2.00 2.01 2.04 2.07 2.07 2.02 1.99 1.98 1.96 1.97 2.01 2.07 2.05 2.07 2.09 2.08 2.06 2.05 2.02 1.96 1.94 1.95 1.89 1.86 1.84 1.82 1.83 1.86 1.89 1.92 1.90 1.92 1.91 1.85 1.86 1.87 1.99 2.06 2.02 1.91 1.83 1.79
1.92 1.93 1.93 1.96 1.98 1.97 1.99 2.02 2.04 2.05 2.05 2.11 2.07 2.07 2.07 2.11 2.15 2.14 2.15 2.14 2.08 2.01 1.98 1.90 1.87 1.87 1.86 1.91 1.97 1.99 1.96 1.97 1.99 1.89 1.85 1.86 1.92 2.01 2.02 1.97 1.93 1.86
1.83 1.83 1.82 1.82 1.82 1.84 1.88 1.90 1.95 2.00 2.06 2.12 2.13 2.13 2.12 2.12 2.12 2.12 2.15 2.17 2.16 2.13 2.10 2.06 2.01 1.99 1.95 1.93 1.98 2.00 1.97 1.98 2.03 1.98 1.92 1.91 1.93 1.91 1.89 1.80 1.79 1.79
1.77 1.76 1.78 1.79 1.80 1.82 1.86 1.89 1.95 1.99 2.05 2.08 2.12 2.10 2.06 2.07 2.07 2.09 2.08 2.08 2.11 2.08 2.08 2.10 2.08 2.08 2.05 1.99 1.97 1.99 2.01 2.01 2.03 1.97 1.90 1.90 1.92 1.89 1.81 1.74 1.68 1.66

ECMWFNIL_prec_pwat_114.txt.gz
Precipitable_Water
1.69 1.72 1.71 1.72 1.72 1.70 1.72 1.69 1.67 1.62 1.62 1.61 1.53 1.50 1.49 1.49 1.52 1.50 1.48 1.49 1.50 1.51 1.56 1.59 1.59 1.62 1.63 1.64 1.68 1.66 1.65 1.57 1.49 1.50 1.47 1.44 1.41 1.45 1.44 1.46 1.47 1.47
1.68 1.71 1.74 1.77 1.75 1.75 1.76 1.77 1.72 1.67 1.65 1.64 1.61 1.59 1.60 1.59 1.57 1.55 1.49 1.48 1.50 1.48 1.51 1.53 1.55 1.55 1.54 1.52 1.59 1.60 1.64 1.64 1.52 1.61 1.52 1.45 1.43 1.42 1.45 1.49 1.50 1.53
1.68 1.70 1.73 1.72 1.70 1.71 1.74 1.78 1.75 1.70 1.68 1.68 1.69 1.65 1.62 1.65 1.62 1.62 1.59 1.54 1.52 1.51 1.50 1.51 1.51 1.51 1.50 1.49 1.49 1.45 1.48 1.55 1.51 1.58 1.57 1.49 1.45 1.41 1.48 1.55 1.55 1.55
1.65 1.68 1.70 1.74 1.76 1.74 1.76 1.77 1.75 1.74 1.74 1.72 1.70 1.73 1.70 1.69 1.69 1.67 1.64 1.63 1.58 1.56 1.54 1.54 1.50 1.50 1.50 1.48 1.48 1.44 1.41 1.38 1.43 1.49 1.53 1.56 1.50 1.48 1.47 1.52 1.59 1.61
1.56 1.64 1.68 1.72 1.75 1.79 1.82 1.79 1.77 1.76 1.73 1.74 1.78 1.77 1.74 1.73 1.72 1.71 1.68 1.66 1.64 1.60 1.59 1.56 1.54 1.52 1.52 1.49 1.49 1.47 1.47 1.43 1.41 1.41 1.41 1.45 1.54 1.53 1.51 1.50 1.52 1.54
1.52 1.58 1.63 1.68 1.73 1.73 1.73 1.73 1.77 1.77 1.77 1.79 1.79 1.80 1.77 1.77 1.77 1.76 1.75 1.69 1.65 1.63 1.62 1.61 1.57 1.57 1.57 1.53 1.50 1.47 1.48 1.46 1.46 1.46 1.42 1.40 1.45 1.53 1.53 1.51 1.51 1.52
1.44 1.50 1.52 1.59 1.66 1.68 1.68 1.72 1.77 1.79 1.80 1.83 1.87 1.80 1.81 1.80 1.79 1.76 1.78 1.76 1.71 1.66 1.62 1.60 1.60 1.60 1.61 1.59 1.55 1.52 1.51 1.49 1.48 1.48 1.45 1.47 1.47 1.48 1.52 1.50 1.50 1.50
1.42 1.48 1.51 1.52 1.54 1.59 1.61 1.67 1.73 1.75 1.79 1.83 1.82 1.84 1.85 1.82 1.80 1.78 1.79 1.78 1.74 1.71 1.65 1.61 1.62 1.66 1.70 1.65 1.61 1.60 1.57 1.57 1.50 1.49 1.48 1.49 1.52 1.48 1.49 1.47 1.48 1.51
1.45 1.45 1.49 1.50 1.49 1.52 1.56 1.61 1.68 1.73 1.80 1.77 1.79 1.85 1.90 1.88 1.85 1.82 1.78 1.77 1.75 1.73 1.71 1.64 1.64 1.68 1.73 1.71 1.68 1.67 1.65 1.64 1.61 1.54 1.48 1.46 1.45 1.48 1.50 1.51 1.46 1.47
1.47 1.48 1.47 1.48 1.47 1.51 1.54 1.59 1.64 1.66 1.73 1.74 1.76 1.81 1.83 1.86 1.88 1.86 1.82 1.79 1.75 1.72 1.73 1.71 1.68 1.72 1.75 1.78 1.75 1.69 1.65 1.66 1.70 1.66 1.59 1.54 1.52 1.53 1.53 1.50 1.43 1.40
1.50 1.54 1.51 1.47 1.46 1.49 1.51 1.57 1.61 1.64 1.66 1.67 1.72 1.72 1.76 1.78 1.80 1.86 1.84 1.82 1.78 1.76 1.75 1.74 1.74 1.75 1.74 1.77 1.78 1.74 1.68 1.67 1.70 1.70 1.67 1.65 1.65 1.64 1.63 1.56 1.49 1.46
1.60 1.71 1.68 1.57 1.53 1.50 1.51 1.54 1.58 1.60 1.63 1.66 1.70 1.68 1.69 1.72 1.72 1.77 1.80 1.81 1.83 1.84 1.82 1.80 1.79 1.77 1.75 1.74 1.75 1.75 1.71 1.69 1.69 1.67 1.64 1.64 1.67 1.70 1.69 1.67 1.61 1.60
1.56 1.59 1.86 1.84 1.70 1.60 1.58 1.59 1.59 1.62 1.63 1.64 1.67 1.66 1.66 1.67 1.68 1.70 1.76 1.75 1.79 1.83 1.83 1.82 1.80 1.79 1.76 1.75 1.75 1.74 1.73 1.71 1.70 1.68 1.65 1.65 1.66 1.67 1.70 1.72 1.72 1.71
1.77 1.82 1.81 1.81 1.75 1.68 1.63 1.62 1.64 1.64 1.65 1.67 1.68 1.64 1.64 1.64 1.66 1.68 1.72 1.73 1.73 1.77 1.82 1.83 1.80 1.77 1.76 1.77 1.77 1.76 1.74 1.70 1.71 1.71 1.68 1.67 1.67 1.69 1.70 1.71 1.70 1.67
1.92 1.90 1.87 1.85 1.77 1.71 1.67 1.63 1.61 1.62 1.64 1.65 1.66 1.66 1.66 1.66 1.66 1.68 1.70 1.72 1.73 1.73 1.75 1.80 1.80 1.80 1.78 1.77 1.77 1.79 1.78 1.73 1.71 1.72 1.71 1.68 1.68 1.70 1.71 1.70 1.68 1.68
1.99 1.96 1.94 1.93 1.83 1.73 1.71 1.70 1.67 1.64 1.60 1.58 1.60 1.62 1.65 1.69 1.71 1.72 1.71 1.70 1.71 1.72 1.74 1.77 1.79 1.84 1.86 1.84 1.83 1.81 1.80 1.77 1.76 1.72 1.75 1.81 1.79 1.82 1.71 1.74 1.76 1.72
1.97 1.89 1.92 1.94 1.88 1.80 1.75 1.68 1.63 1.62 1.58 1.55 1.53 1.53 1.55 1.59 1.62 1.65 1.69 1.73 1.76 1.78 1.77 1.78 1.81 1.85 1.87 1.87 1.85 1.84 1.83 1.81 1.78 1.78 1.77 1.75 1.78 1.75 1.68 1.75 1.82 1.78
1.95 1.90 1.88 1.93 1.90 1.80 1.76 1.73 1.69 1.65 1.61 1.58 1.55 1.51 1.50 1.51 1.51 1.55 1.60 1.65 1.71 1.76 1.81 1.85 1.85 1.85 1.83 1.85 1.87 1.87 1.89 1.89 1.87 1.79 1.76 1.74 1.78 1.83 1.82 1.79 1.80 1.83
2.04 1.96 1.93 1.92 1.92 1.90 1.87 1.85 1.81 1.75 1.71 1.69 1.65 1.63 1.58 1.50 1.48 1.47 1.50 1.57 1.61 1.64 1.70 1.81 1.88 1.91 1.86 1.83 1.83 1.84 1.87 1.88 1.84 1.84 1.81 1.74 1.70 1.74 1.82 1.81 1.80 1.80
2.04 1.98 1.97 2.02 2.02 2.01 2.00 1.95 1.89 1.85 1.86 1.88 1.87 1.83 1.74 1.66 1.61 1.58 1.58 1.59 1.59 1.59 1.65 1.76 1.83 1.88 1.87 1.86 1.85 1.85 1.84 1.82 1.83 1.85 1.86 1.86 1.82 1.77 1.77 1.80 1.81 1.78
2.03 2.02 2.00 2.00 2.05 2.05 2.04 2.01 1.99 1.97 1.95 1.94 1.91 1.88 1.83 1.79 1.75 1.73 1.74 1.74 1.73 1.70 1.67 1.69 1.76 1.82 1.86 1.87 1.84 1.78 1.77 1.79 1.79 1.80 1.82 1.85 1.89 1.87 1.84 1.88 1.90 1.87
1.98 1.99 2.00 2.01 1.98 2.05 2.04 2.02 2.00 1.98 1.95 1.97 1.95 1.94 1.95 1.93 1.92 1.90 1.87 1.88 1.90 1.88 1.83 1.78 1.78 1.82 1.88 1.91 1.86 1.74 1.69 1.70 1.73 1.73 1.72 1.77 1.83 1.87 1.85 1.86 1.90 1.90
1.96 1.96 1.93 1.92 1.95 1.98 1.99 2.01 2.00 2.09 2.07 2.05 1.96 1.98 1.98 1.97 1.96 1.97 1.99 1.98 1.97 1.94 1.88 1.83 1.81 1.82 1.87 1.94 1.93 1.88 1.84 1.82 1.81 1.77 1.72 1.71 1.77 1.88 1.93 1.92 1.92 1.95
1.94 1.97 1.97 1.95 1.90 1.88 1.91 1.99 2.07 2.10 2.10 2.11 2.01 1.98 1.98 2.01 2.03 2.01 2.01 2.01 2.00 1.99 1.98 1.92 1.91 1.90 1.87 1.94 1.99 1.97 1.91 1.87 1.86 1.85 1.84 1.82 1.82 1.88 1.91 1.93 1.99 2.06
1.82 1.89 1.97 1.97 1.96 1.96 1.97 2.00 2.07 2.08 2.10 2.10 2.07 2.05 2.04 2.06 2.06 2.04 2.04 2.08 2.08 2.05 2.06 2.04 2.04 2.02 1.96 1.94 1.98 1.98 1.96 1.91 1.84 1.79 1.81 1.89 1.91 1.88 1.90 1.90 1.98 2.09
1.81 1.85 1.93 1.96 1.92 1.93 1.95 1.97 2.01 2.01 2.03 2.04 2.06 2.07 2.04 2.06 2.05 2.03 2.04 2.02 2.03 2.05 2.03 2.10 2.08 2.07 2.06 2.03 2.02 2.03 2.04 2.05 2.02 1.91 1.84 1.87 1.91 1.88 1.83 1.87 1.93 1.96

ECMWFNIL_prec_pwat_117.txt.gz
Precipitable_Water
1.68 1.71 1.68 1.65 1.62 1.63 1.64 1.61 1.63 1.61 1.62 1.61 1.53 1.54 1.51 1.53 1.59 1.57 1.53 1.53 1.54 1.54 1.55 1.57 1.59 1.60 1.61 1.61 1.63 1.60 1.56 1.54 1.55 1.54 1.50 1.50 1.47 1.46 1.49 1.51 1.51 1.50
1.67 1.72 1.74 1.75 1.71 1.71 1.71 1.72 1.69 1.64 1.62 1.64 1.61 1.61 1.61 1.58 1.58 1.56 1.53 1.50 1.52 1.53 1.57 1.58 1.58 1.59 1.62 1.62 1.63 1.61 1.59 1.61 1.54 1.59 1.50 1.47 1.45 1.43 1.47 1.50 1.47 1.50
1.65 1.69 1.72 1.72 1.71 1.71 1.72 1.76 1.76 1.72 1.65 1.67 1.68 1.63 1.61 1.63 1.60 1.58 1.56 1.53 1.50 1.50 1.51 1.55 1.57 1.58 1.59 1.58 1.57 1.57 1.57 1.59 1.57 1.57 1.53 1.50 1.51 1.43 1.45 1.49 1.47 1.48
1.64 1.67 1.70 1.73 1.75 1.72 1.75 1.75 1.75 1.75 1.73 1.68 1.67 1.69 1.67 1.68 1.67 1.64 1.59 1.57 1.52 1.51 1.53 1.54 1.54 1.54 1.52 1.52 1.50 1.47 1.47 1.50 1.58 1.59 1.53 1.56 1.55 1.49 1.46 1.48 1.50 1.52
1.60 1.63 1.68 1.74 1.77 1.78 1.78 1.75 1.74 1.75 1.73 1.71 1.74 1.75 1.74 1.69 1.66 1.65 1.64 1.61 1.58 1.54 1.54 1.53 1.56 1.56 1.55 1.50 1.49 1.43 1.42 1.38 1.42 1.45 1.45 1.47 1.55 1.53 1.50 1.47 1.45 1.47
1.60 1.64 1.68 1.71 1.75 1.77 1.77 1.75 1.77 1.79 1.76 1.74 1.73 1.77 1.75 1.73 1.68 1.67 1.67 1.65 1.65 1.62 1.58 1.57 1.56 1.58 1.56 1.51 1.50 1.46 1.45 1.41 1.41 1.38 1.32 1.33 1.42 1.53 1.53 1.50 1.44 1.41
1.49 1.58 1.63 1.70 1.72 1.74 1.74 1.76 1.81 1.83 1.80 1.78 1.79 1.77 1.79 1.75 1.72 1.72 1.73 1.73 1.70 1.67 1.62 1.60 1.59 1.59 1.60 1.56 1.51 1.47 1.48 1.46 1.46 1.44 1.36 1.34 1.36 1.40 1.49 1.50 1.46 1.41
1.43 1.53 1.59 1.63 1.64 1.67 1.68 1.71 1.75 1.78 1.81 1.80 1.77 1.82 1.83 1.78 1.76 1.78 1.79 1.79 1.76 1.71 1.67 1.64 1.63 1.62 1.63 1.60 1.54 1.49 1.48 1.52 1.48 1.45 1.40 1.38 1.40 1.37 1.42 1.46 1.44 1.38
1.44 1.48 1.52 1.54 1.55 1.59 1.61 1.64 1.67 1.74 1.80 1.76 1.77 1.81 1.86 1.83 1.81 1.82 1.80 1.79 1.77 1.75 1.71 1.67 1.64 1.62 1.64 1.64 1.61 1.56 1.51 1.52 1.53 1.49 1.44 1.40 1.39 1.39 1.42 1.46 1.42 1.37
1.41 1.47 1.49 1.50 1.49 1.54 1.55 1.57 1.61 1.67 1.76 1.75 1.77 1.80 1.81 1.83 1.85 1.84 1.81 1.79 1.75 1.74 1.72 1.69 1.66 1.64 1.63 1.66 1.66 1.63 1.59 1.57 1.59 1.58 1.54 1.49 1.45 1.44 1.46 1.49 1.46 1.41
1.38 1.42 1.43 1.44 1.45 1.48 1.50 1.53 1.55 1.59 1.67 1.70 1.73 1.74 1.78 1.83 1.86 1.88 1.84 1.79 1.73 1.71 1.71 1.70 1.68 1.67 1.64 1.66 1.69 1.70 1.68 1.64 1.61 1.60 1.60 1.59 1.54 1.51 1.53 1.55 1.55 1.50
1.36 1.37 1.38 1.41 1.44 1.45 1.46 1.47 1.51 1.54 1.59 1.65 1.69 1.68 1.72 1.78 1.81 1.84 1.82 1.79 1.78 1.76 1.74 1.74 1.75 1.74 1.71 1.69 1.71 1.72 1.72 1.69 1.65 1.62 1.62 1.63 1.61 1.60 1.59 1.61 1.60 1.59
1.39 1.38 1.41 1.44 1.47 1.49 1.51 1.51 1.51 1.54 1.56 1.57 1.63 1.65 1.66 1.67 1.71 1.73 1.76 1.76 1.77 1.79 1.78 1.78 1.80 1.81 1.79 1.76 1.74 1.71 1.70 1.68 1.65 1.63 1.63 1.62 1.62 1.65 1.67 1.69 1.69 1.66
1.45 1.45 1.48 1.50 1.53 1.55 1.53 1.52 1.53 1.54 1.54 1.57 1.60 1.60 1.62 1.65 1.67 1.68 1.71 1.75 1.76 1.77 1.79 1.82 1.83 1.82 1.81 1.80 1.78 1.73 1.70 1.67 1.67 1.64 1.62 1.62 1.62 1.62 1.62 1.63 1.65 1.66
1.62 1.56 1.57 1.56 1.61 1.63 1.60 1.56 1.55 1.55 1.55 1.55 1.56 1.58 1.61 1.64 1.68 1.69 1.69 1.70 1.74 1.76 1.76 1.78 1.78 1.79 1.81 1.80 1.77 1.75 1.74 1.69 1.69 1.67 1.65 1.62 1.62 1.64 1.67 1.66 1.66 1.64
1.80 1.80 1.74 1.70 1.76 1.78 1.78 1.74 1.68 1.63 1.60 1.59 1.60 1.62 1.64 1.66 1.65 1.67 1.67 1.67 1.69 1.73 1.75 1.75 1.75 1.77 1.79 1.80 1.79 1.76 1.76 1.74 1.72 1.69 1.67 1.66 1.66 1.69 1.71 1.72 1.71 1.65
1.86 1.86 1.91 1.92 1.91 1.95 1.93 1.89 1.80 1.73 1.65 1.63 1.63 1.63 1.64 1.65 1.65 1.63 1.64 1.67 1.68 1.69 1.70 1.72 1.73 1.77 1.80 1.81 1.80 1.81 1.79 1.77 1.74 1.71 1.69 1.66 1.65 1.64 1.65 1.71 1.75 1.75
1.94 1.90 1.88 1.91 1.98 2.04 2.01 1.88 1.78 1.75 1.74 1.69 1.64 1.61 1.62 1.65 1.64 1.64 1.66 1.68 1.71 1.73 1.73 1.74 1.76 1.80 1.80 1.81 1.83 1.83 1.83 1.82 1.79 1.73 1.71 1.68 1.66 1.65 1.67 1.68 1.71 1.74
1.95 1.95 1.91 1.87 1.93 2.03 2.04 2.00 1.91 1.80 1.77 1.75 1.71 1.69 1.65 1.59 1.58 1.59 1.59 1.63 1.66 1.68 1.71 1.77 1.80 1.84 1.85 1.83 1.83 1.84 1.86 1.88 1.85 1.83 1.76 1.72 1.69 1.68 1.67 1.67 1.68 1.69
2.01 2.00 1.97 1.97 1.99 2.01 2.10 2.08 2.01 1.90 1.87 1.74 1.65 1.70 1.67 1.60 1.57 1.54 1.55 1.55 1.58 1.60 1.65 1.73 1.75 1.79 1.82 1.85 1.87 1.88 1.88 1.88 1.86 1.84 1.82 1.80 1.77 1.74 1.72 1.70 1.70 1.70
2.03 1.99 1.98 1.95 1.92 1.94 1.98 1.97 1.91 1.87 1.87 1.84 1.73 1.66 1.69 1.70 1.67 1.64 1.64 1.64 1.63 1.62 1.61 1.61 1.65 1.70 1.74 1.79 1.83 1.88 1.91 1.91 1.88 1.85 1.83 1.81 1.81 1.81 1.80 1.79 1.78 1.76
2.03 2.00 1.95 1.94 1.95 1.93 1.90 1.88 1.90 1.92 1.91 1.96 1.93 1.86 1.88 2.01 1.99 1.92 1.78 1.73 1.72 1.70 1.65 1.61 1.65 1.69 1.70 1.71 1.76 1.81 1.85 1.86 1.85 1.83 1.81 1.80 1.78 1.79 1.80 1.84 1.85 1.81
2.02 2.00 1.99 1.98 1.98 1.93 1.90 1.90 1.93 1.96 1.99 2.06 2.03 2.05 2.03 2.00 2.04 2.06 2.04 1.91 1.83 1.81 1.77 1.75 1.77 1.80 1.80 1.79 1.79 1.81 1.82 1.84 1.86 1.86 1.83 1.76 1.71 1.74 1.77 1.81 1.85 1.86
1.99 2.01 2.02 1.99 1.93 1.89 1.90 1.92 1.95 1.94 1.94 2.00 1.98 2.01 2.04 2.07 2.09 1.99 1.98 1.99 1.94 1.87 1.84 1.80 1.82 1.88 1.90 1.92 1.93 1.92 1.88 1.84 1.85 1.85 1.84 1.81 1.77 1.78 1.81 1.85 1.89 1.94
1.99 1.99 1.98 1.94 1.89 1.87 1.88 1.88 1.93 1.97 2.00 2.02 2.03 2.07 2.12 2.15 2.08 2.03 1.99 1.99 1.99 1.97 1.96 1.92 1.92 1.95 1.98 1.99 2.00 2.00 1.99 1.96 1.91 1.86 1.84 1.86 1.88 1.89 1.93 1.93 1.96 2.00
1.91 1.92 1.92 1.90 1.88 1.90 1.92 1.93 1.95 1.97 1.99 2.02 2.09 2.12 2.10 2.10 2.07 2.04 1.96 1.96 1.99 1.98 1.97 1.97 1.96 1.98 2.02 2.03 2.04 2.04 2.04 2.05 2.04 1.94 1.85 1.87 1.91 1.89 1.87 1.92 1.98 2.00

ECMWFNIL_prec_pwat_120.txt.gz
Precipitable_Water
1.61 1.61 1.60 1.62 1.62 1.61 1.62 1.60 1.62 1.58 1.55 1.55 1.50 1.44 1.40 1.47 1.54 1.52 1.52 1.54 1.54 1.53 1.54 1.55 1.59 1.64 1.68 1.67 1.68 1.65 1.59 1.54 1.55 1.58 1.56 1.55 1.54 1.53 1.53 1.54 1.57 1.57
1.63 1.66 1.67 1.67 1.66 1.68 1.68 1.68 1.66 1.65 1.64 1.66 1.66 1.62 1.57 1.55 1.57 1.57 1.55 1.53 1.53 1.52 1.54 1.54 1.55 1.57 1.61 1.62 1.63 1.60 1.59 1.58 1.54 1.65 1.57 1.52 1.53 1.54 1.52 1.53 1.53 1.60
1.64 1.67 1.70 1.68 1.66 1.67 1.69 1.73 1.72 1.72 1.71 1.73 1.75 1.70 1.66 1.66 1.62 1.61 1.59 1.55 1.51 1.51 1.51 1.53 1.53 1.54 1.58 1.62 1.65 1.65 1.62 1.59 1.57 1.63 1.59 1.53 1.55 1.51 1.51 1.52 1.52 1.54
1.62 1.67 1.71 1.73 1.75 1.73 1.76 1.76 1.76 1.77 1.77 1.74 1.73 1.75 1.71 1.71 1.68 1.62 1.59 1.57 1.52 1.50 1.50 1.50 1.50 1.54 1.56 1.58 1.60 1.58 1.59 1.61 1.64 1.67 1.61 1.58 1.57 1.56 1.52 1.50 1.50 1.52
1.60 1.64 1.69 1.74 1.78 1.80 1.81 1.77 1.77 1.79 1.79 1.77 1.77 1.77 1.74 1.70 1.68 1.64 1.62 1.59 1.55 1.51 1.50 1.47 1.49 1.49 1.52 1.52 1.54 1.49 1.49 1.49 1.53 1.57 1.58 1.54 1.57 1.56 1.56 1.52 1.47 1.45
1.60 1.64 1.67 1.70 1.74 1.77 1.78 1.77 1.78 1.79 1.80 1.79 1.77 1.78 1.76 1.75 1.71 1.68 1.67 1.65 1.62 1.58 1.54 1.53 1.51 1.51 1.52 1.52 1.52 1.49 1.48 1.45 1.45 1.44 1.41 1.40 1.44 1.52 1.55 1.54 1.48 1.42
1.54 1.59 1.62 1.67 1.70 1.75 1.76 1.78 1.79 1.80 1.82 1.83 1.84 1.78 1.79 1.76 1.74 1.71 1.70 1.69 1.68 1.66 1.62 1.58 1.56 1.54 1.56 1.56 1.52 1.48 1.49 1.48 1.48 1.46 1.39 1.36 1.35 1.36 1.45 1.49 1.49 1.46
1.51 1.57 1.60 1.64 1.64 1.69 1.72 1.76 1.78 1.80 1.83 1.85 1.80 1.82 1.83 1.79 1.76 1.74 1.72 1.71 1.71 1.71 1.71 1.69 1.67 1.64 1.64 1.63 1.57 1.52 1.49 1.51 1.47 1.45 1.42 1.40 1.38 1.32 1.36 1.42 1.45 1.43
1.47 1.49 1.53 1.57 1.58 1.61 1.65 1.72 1.76 1.79 1.84 1.82 1.81 1.81 1.84 1.83 1.81 1.79 1.77 1.76 1.75 1.75 1.76 1.75 1.73 1.70 1.70 1.68 1.64 1.60 1.54 1.53 1.53 1.50 1.46 1.42 1.38 1.36 1.37 1.42 1.39 1.38
1.37 1.43 1.44 1.48 1.52 1.56 1.58 1.66 1.72 1.77 1.83 1.83 1.84 1.84 1.80 1.84 1.87 1.85 1.83 1.81 1.78 1.78 1.79 1.78 1.75 1.73 1.72 1.71 1.67 1.64 1.62 1.59 1.59 1.58 1.56 1.53 1.49 1.45 1.44 1.43 1.41 1.39
1.35 1.37 1.36 1.38 1.46 1.53 1.56 1.62 1.66 1.70 1.75 1.76 1.80 1.81 1.83 1.84 1.85 1.88 1.85 1.84 1.80 1.79 1.79 1.79 1.78 1.77 1.74 1.71 1.69 1.69 1.68 1.67 1.65 1.64 1.64 1.64 1.62 1.59 1.56 1.50 1.47 1.45
1.40 1.38 1.35 1.35 1.39 1.45 1.51 1.57 1.62 1.65 1.66 1.70 1.75 1.77 1.81 1.83 1.83 1.86 1.86 1.84 1.84 1.84 1.83 1.83 1.83 1.81 1.78 1.74 1.71 1.72 1.73 1.72 1.71 1.71 1.70 1.68 1.66 1.65 1.63 1.61 1.54 1.52
1.46 1.42 1.41 1.39 1.40 1.45 1.51 1.55 1.58 1.63 1.64 1.63 1.70 1.73 1.74 1.76 1.81 1.83 1.89 1.88 1.88 1.88 1.85 1.83 1.82 1.82 1.80 1.79 1.77 1.75 1.75 1.75 1.74 1.74 1.72 1.69 1.66 1.65 1.66 1.67 1.64 1.60
1.54 1.54 1.52 1.50 1.50 1.51 1.53 1.57 1.61 1.63 1.64 1.67 1.69 1.69 1.71 1.73 1.76 1.79 1.85 1.87 1.87 1.88 1.90 1.89 1.85 1.82 1.83 1.84 1.84 1.83 1.81 1.78 1.77 1.74 1.71 1.69 1.67 1.67 1.67 1.67 1.65 1.63
1.55 1.54 1.54 1.51 1.46 1.43 1.43 1.45 1.48 1.52 1.57 1.61 1.65 1.68 1.72 1.75 1.78 1.79 1.78 1.78 1.81 1.84 1.85 1.87 1.85 1.84 1.86 1.86 1.85 1.85 1.85 1.81 1.80 1.76 1.72 1.68 1.67 1.67 1.68 1.67 1.65 1.62
1.57 1.52 1.50 1.47 1.45 1.43 1.46 1.51 1.53 1.55 1.55 1.54 1.57 1.62 1.66 1.70 1.73 1.76 1.75 1.74 1.74 1.76 1.79 1.81 1.81 1.83 1.84 1.86 1.87 1.85 1.84 1.85 1.84 1.81 1.77 1.73 1.69 1.66 1.67 1.69 1.69 1.71
1.74 1.62 1.57 1.51 1.47 1.46 1.46 1.47 1.49 1.51 1.51 1.51 1.55 1.60 1.61 1.63 1.66 1.66 1.69 1.72 1.72 1.72 1.74 1.78 1.79 1.81 1.81 1.82 1.82 1.83 1.83 1.82 1.81 1.81 1.82 1.79 1.74 1.68 1.63 1.65 1.70 1.75
1.87 1.79 1.70 1.67 1.66 1.61 1.57 1.52 1.51 1.60 1.64 1.60 1.54 1.55 1.63 1.67 1.63 1.64 1.69 1.72 1.71 1.70 1.70 1.73 1.76 1.81 1.82 1.82 1.82 1.82 1.83 1.82 1.80 1.78 1.78 1.78 1.78 1.74 1.70 1.68 1.68 1.70
1.93 1.89 1.85 1.81 1.79 1.76 1.70 1.64 1.58 1.60 1.68 1.69 1.63 1.63 1.68 1.70 1.69 1.67 1.64 1.68 1.73 1.72 1.69 1.73 1.75 1.81 1.83 1.84 1.84 1.84 1.84 1.85 1.84 1.84 1.80 1.77 1.77 1.77 1.75 1.73 1.71 1.69
1.92 1.88 1.83 1.82 1.85 1.88 1.86 1.81 1.77 1.72 1.74 1.76 1.78 1.76 1.68 1.73 1.76 1.66 1.64 1.65 1.66 1.67 1.69 1.74 1.76 1.80 1.82 1.84 1.85 1.86 1.86 1.88 1.88 1.86 1.86 1.86 1.85 1.84 1.81 1.79 1.78 1.74
1.95 1.90 1.85 1.86 1.90 1.94 1.95 1.92 1.89 1.86 1.86 1.88 1.88 1.84 1.79 1.77 1.73 1.66 1.66 1.67 1.69 1.70 1.67 1.69 1.72 1.76 1.78 1.80 1.81 1.83 1.85 1.87 1.89 1.89 1.88 1.87 1.88 1.88 1.86 1.85 1.85 1.83
1.96 1.92 1.91 1.90 1.90 1.92 1.93 1.93 1.93 1.90 1.93 1.98 1.94 1.92 1.90 1.86 1.82 1.76 1.72 1.70 1.70 1.68 1.65 1.62 1.66 1.70 1.72 1.73 1.74 1.75 1.76 1.78 1.81 1.82 1.83 1.85 1.87 1.91 1.91 1.91 1.89 1.86
2.00 1.96 1.95 1.93 1.96 1.97 1.96 1.94 1.92 1.93 2.04 2.09 1.99 1.93 1.89 1.87 1.84 1.83 1.80 1.75 1.72 1.70 1.67 1.68 1.69 1.70 1.70 1.70 1.71 1.72 1.72 1.72 1.72 1.72 1.73 1.74 1.77 1.84 1.87 1.89 1.90 1.91
2.08 2.05 2.02 1.99 1.98 1.97 1.96 1.96 1.95 1.95 1.97 2.05 1.99 1.94 1.89 1.91 1.96 1.95 1.96 1.94 1.89 1.84 1.84 1.82 1.83 1.82 1.80 1.79 1.80 1.81 1.80 1.76 1.76 1.73 1.72 1.74 1.76 1.81 1.84 1.86 1.89 1.93
2.10 2.08 2.05 2.01 1.97 1.98 2.00 1.95 1.92 1.90 1.93 1.99 2.00 1.99 1.95 1.98 1.98 1.97 1.98 1.97 1.96 1.93 1.92 1.89 1.88 1.91 1.95 1.94 1.93 1.93 1.93 1.92 1.90 1.87 1.83 1.83 1.83 1.82 1.87 1.88 1.91 1.96
2.02 2.01 2.02 2.00 1.96 1.99 2.03 2.01 2.02 1.97 1.94 1.95 1.98 1.98 1.95 1.95 1.96 1.95 1.95 1.96 1.99 1.98 1.96 1.95 1.93 1.94 1.97 2.00 2.00 1.99 1.99 2.00 2.00 1.94 1.89 1.90 1.94 1.95 1.93 1.93 1.95 1.96

ECMWFNIL_prec_pwat_123.txt.gz
Precipitable_Water
1.54 1.55 1.52 1.50 1.49 1.49 1.50 1.49 1.50 1.49 1.49 1.48 1.41 1.41 1.42 1.47 1.49 1.48 1.52 1.56 1.57 1.58 1.60 1.59 1.60 1.62 1.68 1.74 1.74 1.69 1.67 1.63 1.61 1.61 1.60 1.57 1.54 1.53 1.52 1.54 1.56 1.55
1.56 1.57 1.57 1.56 1.57 1.59 1.59 1.58 1.58 1.54 1.53 1.52 1.50 1.50 1.54 1.54 1.50 1.49 1.53 1.55 1.56 1.57 1.61 1.61 1.62 1.62 1.63 1.66 1.68 1.64 1.64 1.65 1.60 1.66 1.60 1.58 1.56 1.54 1.53 1.56 1.56 1.59
1.57 1.58 1.58 1.55 1.54 1.57 1.60 1.65 1.65 1.64 1.61 1.59 1.61 1.61 1.62 1.63 1.58 1.57 1.57 1.59 1.58 1.59 1.61 1.60 1.59 1.60 1.60 1.61 1.65 1.64 1.62 1.62 1.58 1.62 1.61 1.58 1.61 1.56 1.56 1.56 1.56 1.56
1.56 1.59 1.60 1.61 1.62 1.61 1.65 1.65 1.66 1.66 1.67 1.66 1.65 1.68 1.67 1.67 1.64 1.62 1.62 1.61 1.58 1.57 1.58 1.59 1.58 1.58 1.58 1.60 1.64 1.64 1.65 1.65 1.66 1.67 1.63 1.64 1.61 1.59 1.58 1.58 1.54 1.52
1.53 1.58 1.63 1.67 1.71 1.72 1.72 1.67 1.65 1.66 1.65 1.67 1.71 1.74 1.73 1.71 1.68 1.65 1.64 1.64 1.62 1.58 1.56 1.54 1.55 1.55 1.57 1.58 1.59 1.56 1.58 1.57 1.61 1.62 1.60 1.60 1.65 1.61 1.59 1.59 1.55 1.49
1.53 1.57 1.64 1.68 1.73 1.74 1.73 1.71 1.70 1.70 1.70 1.70 1.71 1.76 1.74 1.74 1.71 1.68 1.67 1.64 1.63 1.59 1.55 1.54 1.52 1.52 1.52 1.54 1.55 1.53 1.53 1.52 1.54 1.54 1.49 1.47 1.51 1.60 1.59 1.59 1.57 1.52
1.47 1.52 1.58 1.67 1.70 1.73 1.74 1.76 1.77 1.76 1.76 1.77 1.80 1.77 1.77 1.74 1.72 1.69 1.68 1.67 1.65 1.65 1.61 1.59 1.56 1.53 1.55 1.54 1.52 1.50 1.51 1.51 1.52 1.52 1.48 1.46 1.46 1.45 1.49 1.50 1.50 1.51
1.45 1.51 1.56 1.63 1.65 1.69 1.71 1.75 1.78 1.79 1.81 1.82 1.78 1.81 1.82 1.77 1.74 1.74 1.72 1.70 1.67 1.67 1.67 1.65 1.62 1.59 1.57 1.57 1.53 1.51 1.51 1.53 1.51 1.51 1.50 1.48 1.48 1.43 1.44 1.45 1.44 1.42
1.43 1.47 1.52 1.58 1.61 1.65 1.67 1.71 1.75 1.79 1.84 1.80 1.79 1.81 1.84 1.80 1.78 1.76 1.76 1.74 1.69 1.67 1.69 1.68 1.69 1.67 1.67 1.63 1.59 1.56 1.54 1.54 1.55 1.54 1.52 1.50 1.48 1.46 1.45 1.47 1.43 1.40
1.41 1.44 1.49 1.55 1.57 1.63 1.64 1.68 1.73 1.77 1.82 1.81 1.80 1.82 1.80 1.82 1.81 1.80 1.80 1.77 1.72 1.69 1.70 1.71 1.73 1.73 1.73 1.72 1.68 1.64 1.61 1.59 1.59 1.59 1.59 1.56 1.54 1.52 1.52 1.50 1.45 1.41
1.45 1.43 1.43 1.48 1.54 1.59 1.61 1.65 1.68 1.74 1.79 1.79 1.79 1.78 1.81 1.82 1.83 1.83 1.81 1.80 1.75 1.74 1.74 1.75 1.78 1.80 1.77 1.75 1.73 1.71 1.68 1.64 1.62 1.62 1.62 1.61 1.61 1.60 1.60 1.58 1.55 1.49
1.54 1.48 1.40 1.41 1.46 1.52 1.56 1.60 1.63 1.65 1.70 1.74 1.75 1.75 1.79 1.81 1.81 1.82 1.80 1.79 1.80 1.81 1.82 1.83 1.86 1.85 1.83 1.80 1.77 1.75 1.73 1.69 1.66 1.65 1.66 1.66 1.66 1.67 1.66 1.66 1.62 1.61
1.57 1.55 1.50 1.44 1.44 1.46 1.50 1.55 1.59 1.62 1.64 1.67 1.72 1.71 1.71 1.72 1.75 1.77 1.81 1.81 1.82 1.83 1.83 1.85 1.86 1.87 1.86 1.84 1.82 1.80 1.76 1.70 1.67 1.68 1.71 1.74 1.77 1.75 1.73 1.71 1.69 1.67
1.61 1.61 1.59 1.54 1.50 1.48 1.48 1.49 1.53 1.58 1.63 1.69 1.73 1.70 1.70 1.71 1.72 1.72 1.76 1.80 1.82 1.83 1.86 1.88 1.87 1.86 1.86 1.85 1.83 1.81 1.79 1.75 1.71 1.75 1.76 1.70 1.72 1.78 1.77 1.77 1.72 1.70
1.70 1.70 1.68 1.61 1.56 1.52 1.50 1.47 1.49 1.53 1.57 1.62 1.65 1.66 1.69 1.72 1.74 1.75 1.74 1.75 1.79 1.82 1.84 1.87 1.86 1.86 1.86 1.84 1.82 1.81 1.85 1.87 1.83 1.86 1.76 1.77 1.79 1.78 1.73 1.70 1.72 1.73
1.77 1.75 1.73 1.65 1.57 1.52 1.49 1.48 1.48 1.50 1.53 1.55 1.58 1.61 1.63 1.65 1.68 1.71 1.72 1.72 1.73 1.77 1.79 1.81 1.81 1.83 1.83 1.83 1.84 1.87 1.96 1.92 1.93 1.95 1.93 1.82 1.79 1.73 1.74 1.77 1.75 1.75
1.96 1.88 1.83 1.71 1.62 1.56 1.52 1.49 1.48 1.50 1.52 1.55 1.56 1.57 1.57 1.59 1.61 1.62 1.64 1.68 1.68 1.70 1.72 1.73 1.74 1.77 1.81 1.80 1.77 1.81 1.90 1.89 1.93 1.97 1.97 1.87 1.80 1.79 1.73 1.73 1.74 1.75
2.09 2.02 1.93 1.83 1.72 1.61 1.56 1.54 1.51 1.50 1.50 1.54 1.56 1.54 1.55 1.56 1.54 1.56 1.61 1.64 1.65 1.65 1.66 1.68 1.70 1.73 1.76 1.75 1.74 1.77 1.83 1.85 1.89 1.87 1.91 1.90 1.80 1.78 1.80 1.79 1.77 1.76
2.11 2.04 2.05 1.97 1.83 1.73 1.69 1.64 1.58 1.54 1.52 1.52 1.51 1.55 1.56 1.51 1.52 1.55 1.58 1.63 1.62 1.59 1.58 1.62 1.65 1.69 1.72 1.74 1.76 1.78 1.79 1.81 1.81 1.80 1.79 1.77 1.78 1.78 1.79 1.79 1.79 1.78
2.06 1.97 1.98 2.06 2.03 1.91 1.83 1.75 1.68 1.62 1.61 1.60 1.60 1.60 1.56 1.53 1.52 1.54 1.59 1.62 1.63 1.61 1.60 1.62 1.64 1.64 1.67 1.67 1.69 1.72 1.73 1.75 1.79 1.80 1.80 1.78 1.78 1.79 1.80 1.80 1.82 1.81
2.15 2.08 2.04 2.08 2.09 2.03 1.98 1.90 1.84 1.78 1.73 1.69 1.66 1.63 1.60 1.59 1.59 1.59 1.66 1.68 1.67 1.67 1.65 1.63 1.58 1.63 1.67 1.69 1.68 1.68 1.69 1.72 1.75 1.79 1.81 1.81 1.82 1.84 1.85 1.85 1.88 1.90
2.11 2.08 2.12 2.10 2.08 2.06 2.03 1.99 1.94 1.92 1.87 1.86 1.81 1.77 1.75 1.71 1.69 1.71 1.72 1.75 1.76 1.74 1.70 1.63 1.63 1.65 1.67 1.69 1.70 1.70 1.71 1.71 1.72 1.73 1.75 1.78 1.81 1.84 1.87 1.90 1.92 1.93
2.10 2.04 2.08 2.03 2.04 2.01 1.98 2.02 2.06 2.02 1.95 1.97 1.89 1.90 1.88 1.81 1.77 1.79 1.82 1.83 1.84 1.83 1.77 1.71 1.68 1.70 1.70 1.69 1.68 1.69 1.69 1.69 1.67 1.65 1.66 1.66 1.68 1.75 1.80 1.85 1.89 1.92
2.08 2.01 2.01 2.03 2.03 1.97 1.98 1.99 2.03 2.06 2.09 2.06 1.94 1.92 1.95 1.99 1.95 1.91 1.92 1.94 1.93 1.90 1.87 1.78 1.73 1.74 1.73 1.71 1.69 1.69 1.69 1.66 1.64 1.61 1.58 1.58 1.61 1.67 1.71 1.74 1.79 1.83
2.14 2.10 2.08 2.04 1.96 1.93 1.99 2.00 2.01 2.02 2.07 2.19 2.11 2.07 2.06 2.09 2.08 2.02 1.99 2.00 2.00 1.98 1.96 1.89 1.82 1.81 1.79 1.76 1.75 1.77 1.79 1.79 1.76 1.71 1.64 1.64 1.65 1.67 1.75 1.78 1.82 1.85
2.04 2.04 2.01 1.95 1.91 1.94 1.99 2.02 2.09 2.11 2.10 2.08 2.10 2.09 2.13 2.13 2.13 2.00 1.93 1.90 1.93 1.92 1.91 1.90 1.87 1.86 1.87 1.87 1.86 1.86 1.87 1.89 1.89 1.79 1.75 1.78 1.81 1.81 1.81 1.88 1.93 1.95

ECMWFNIL_prec_pwat_126.txt.gz
Precipitable_Water
1.46 1.48 1.45 1.42 1.41 1.42 1.44 1.43 1.43 1.41 1.43 1.46 1.41 1.40 1.42 1.50 1.55 1.56 1.62 1.66 1.66 1.66 1.69 1.67 1.68 1.67 1.70 1.76 1.79 1.73 1.69 1.68 1.71 1.70 1.61 1.58 1.56 1.53 1.54 1.56 1.52 1.48
1.45 1.49 1.50 1.50 1.48 1.49 1.50 1.53 1.52 1.50 1.49 1.48 1.50 1.50 1.49 1.49 1.50 1.50 1.48 1.53 1.61 1.60 1.65 1.66 1.65 1.64 1.65 1.72 1.78 1.71 1.71 1.69 1.61 1.72 1.65 1.61 1.55 1.55 1.52 1.52 1.51 1.58
1.50 1.50 1.52 1.50 1.49 1.49 1.49 1.52 1.54 1.54 1.52 1.54 1.54 1.54 1.53 1.51 1.50 1.48 1.46 1.45 1.52 1.61 1.66 1.67 1.66 1.66 1.66 1.66 1.69 1.63 1.64 1.65 1.59 1.68 1.69 1.62 1.59 1.60 1.58 1.57 1.60 1.61
1.52 1.53 1.54 1.54 1.56 1.56 1.58 1.57 1.56 1.57 1.59 1.56 1.53 1.56 1.54 1.59 1.58 1.55 1.50 1.47 1.51 1.55 1.63 1.66 1.66 1.67 1.67 1.64 1.63 1.58 1.62 1.65 1.63 1.68 1.65 1.63 1.61 1.59 1.60 1.64 1.61 1.58
1.52 1.53 1.55 1.57 1.59 1.61 1.63 1.61 1.60 1.61 1.60 1.61 1.62 1.61 1.61 1.59 1.61 1.61 1.59 1.56 1.52 1.51 1.55 1.56 1.61 1.59 1.59 1.59 1.60 1.53 1.60 1.61 1.66 1.65 1.58 1.57 1.60 1.59 1.58 1.58 1.58 1.57
1.54 1.56 1.58 1.58 1.62 1.63 1.62 1.62 1.63 1.65 1.65 1.64 1.64 1.68 1.66 1.66 1.61 1.61 1.62 1.60 1.59 1.52 1.51 1.54 1.54 1.54 1.54 1.54 1.53 1.51 1.53 1.53 1.62 1.69 1.61 1.55 1.55 1.60 1.63 1.64 1.63 1.56
1.51 1.53 1.54 1.59 1.61 1.65 1.66 1.68 1.70 1.70 1.71 1.72 1.74 1.69 1.72 1.72 1.68 1.66 1.66 1.63 1.61 1.62 1.58 1.57 1.56 1.56 1.58 1.57 1.55 1.54 1.50 1.50 1.54 1.60 1.53 1.50 1.51 1.49 1.52 1.54 1.55 1.50
1.51 1.55 1.56 1.57 1.57 1.63 1.66 1.71 1.75 1.76 1.78 1.77 1.74 1.76 1.76 1.74 1.73 1.73 1.70 1.68 1.64 1.60 1.60 1.60 1.61 1.58 1.56 1.54 1.52 1.52 1.51 1.52 1.53 1.51 1.47 1.44 1.47 1.49 1.49 1.47 1.47 1.47
1.53 1.53 1.56 1.54 1.53 1.58 1.63 1.68 1.73 1.78 1.83 1.78 1.75 1.77 1.80 1.75 1.75 1.73 1.72 1.70 1.65 1.63 1.63 1.61 1.61 1.60 1.61 1.56 1.55 1.55 1.53 1.51 1.56 1.61 1.60 1.54 1.52 1.50 1.48 1.48 1.45 1.45
1.55 1.55 1.52 1.51 1.50 1.55 1.59 1.66 1.71 1.76 1.80 1.77 1.78 1.80 1.80 1.82 1.78 1.79 1.78 1.73 1.67 1.64 1.62 1.60 1.61 1.61 1.60 1.61 1.60 1.58 1.55 1.55 1.54 1.56 1.58 1.59 1.56 1.55 1.57 1.56 1.52 1.48
1.56 1.55 1.50 1.49 1.49 1.52 1.55 1.62 1.66 1.72 1.77 1.76 1.77 1.77 1.82 1.86 1.85 1.83 1.82 1.82 1.71 1.67 1.65 1.63 1.63 1.63 1.63 1.63 1.66 1.68 1.66 1.64 1.63 1.63 1.63 1.63 1.63 1.62 1.61 1.59 1.57 1.53
1.58 1.56 1.52 1.49 1.48 1.48 1.53 1.61 1.65 1.66 1.70 1.75 1.76 1.77 1.83 1.87 1.88 1.85 1.82 1.81 1.79 1.76 1.75 1.75 1.74 1.71 1.68 1.68 1.70 1.73 1.71 1.71 1.70 1.68 1.68 1.67 1.68 1.68 1.68 1.68 1.63 1.64
1.64 1.57 1.58 1.55 1.53 1.49 1.53 1.60 1.63 1.66 1.66 1.69 1.74 1.73 1.78 1.83 1.87 1.87 1.89 1.85 1.84 1.80 1.79 1.82 1.82 1.79 1.77 1.77 1.79 1.79 1.78 1.75 1.72 1.70 1.69 1.67 1.67 1.68 1.71 1.73 1.73 1.69
1.81 1.77 1.65 1.63 1.63 1.59 1.54 1.56 1.60 1.62 1.66 1.68 1.71 1.69 1.70 1.75 1.79 1.82 1.87 1.88 1.87 1.85 1.84 1.87 1.87 1.84 1.84 1.85 1.85 1.84 1.81 1.78 1.75 1.70 1.69 1.68 1.70 1.72 1.69 1.68 1.70 1.70
1.76 1.90 1.85 1.80 1.73 1.71 1.58 1.54 1.58 1.60 1.63 1.65 1.66 1.67 1.70 1.70 1.74 1.78 1.81 1.83 1.85 1.86 1.86 1.87 1.85 1.84 1.84 1.85 1.83 1.83 1.83 1.80 1.76 1.74 1.71 1.67 1.69 1.68 1.70 1.72 1.73 1.75
1.77 1.80 1.84 1.87 1.86 1.79 1.78 1.67 1.59 1.57 1.55 1.56 1.57 1.61 1.65 1.70 1.72 1.73 1.74 1.77 1.79 1.82 1.84 1.84 1.83 1.85 1.87 1.86 1.89 1.87 1.79 1.82 1.81 1.74 1.74 1.75 1.74 1.74 1.75 1.75 1.76 1.82
1.82 1.85 1.87 1.82 1.88 1.85 1.81 1.84 1.78 1.63 1.59 1.54 1.51 1.52 1.57 1.63 1.67 1.68 1.67 1.72 1.75 1.78 1.79 1.80 1.80 1.83 1.85 1.84 1.81 1.81 1.88 1.84 1.78 1.76 1.78 1.82 1.82 1.81 1.79 1.78 1.77 1.76
1.88 1.86 1.84 1.87 1.94 1.94 1.93 1.90 1.84 1.81 1.67 1.61 1.52 1.51 1.55 1.60 1.64 1.64 1.66 1.67 1.69 1.72 1.73 1.75 1.78 1.80 1.78 1.79 1.76 1.75 1.76 1.79 1.80 1.76 1.75 1.75 1.81 1.84 1.85 1.82 1.80 1.78
2.00 1.93 1.88 1.90 1.94 1.98 2.00 2.04 1.92 1.84 1.76 1.67 1.60 1.60 1.62 1.58 1.59 1.65 1.66 1.68 1.67 1.63 1.65 1.71 1.78 1.86 1.91 1.76 1.73 1.72 1.71 1.73 1.78 1.80 1.77 1.73 1.71 1.72 1.75 1.77 1.78 1.77
2.04 2.00 1.97 1.97 2.02 2.01 1.94 1.91 1.95 1.91 1.89 1.82 1.77 1.72 1.67 1.63 1.62 1.61 1.64 1.63 1.65 1.67 1.68 1.69 1.70 1.62 1.85 1.88 1.76 1.71 1.70 1.71 1.75 1.80 1.80 1.77 1.74 1.72 1.72 1.74 1.79 1.77
2.06 2.04 2.03 2.07 2.05 1.99 1.96 1.91 1.92 1.95 1.94 1.91 1.87 1.79 1.76 1.71 1.66 1.65 1.64 1.64 1.62 1.66 1.69 1.75 1.63 1.78 1.86 1.75 1.70 1.68 1.69 1.72 1.74 1.76 1.79 1.78 1.77 1.75 1.75 1.76 1.79 1.75
2.09 2.07 2.06 2.07 2.05 2.06 2.03 1.95 1.91 1.93 1.88 1.83 1.83 1.82 1.82 1.74 1.74 1.77 1.71 1.70 1.68 1.68 1.72 1.76 1.80 1.80 1.69 1.66 1.65 1.65 1.69 1.69 1.71 1.72 1.75 1.77 1.77 1.76 1.74 1.80 1.83 1.96
2.11 2.11 2.08 2.08 2.09 2.08 2.06 2.05 2.00 1.99 1.97 1.94 1.91 1.96 1.89 1.78 1.68 1.78 1.85 1.85 1.84 1.79 1.77 1.73 1.65 1.66 1.68 1.70 1.69 1.68 1.69 1.72 1.74 1.76 1.77 1.78 1.81 1.79 1.86 1.98 2.03 2.02
2.13 2.12 2.07 2.05 2.07 2.06 2.06 2.08 2.10 2.08 2.08 2.09 1.96 1.92 1.91 1.93 1.86 1.80 1.80 1.82 1.89 1.89 1.87 1.78 1.74 1.77 1.75 1.76 1.75 1.75 1.74 1.74 1.78 1.77 1.75 1.75 1.76 1.82 1.85 1.85 1.86 1.82
2.13 2.14 2.11 2.13 2.10 2.06 2.09 2.09 2.08 2.07 2.08 2.08 2.04 2.00 1.97 1.98 1.98 1.94 1.92 1.89 1.90 1.95 1.95 1.83 1.75 1.90 1.91 1.83 1.85 1.84 1.84 1.83 1.80 1.74 1.70 1.70 1.72 1.73 1.77 1.76 1.79 1.81
2.12 2.13 2.12 2.16 2.22 2.22 2.14 2.09 2.09 2.11 2.11 2.08 2.05 1.99 1.95 1.98 2.01 1.97 1.92 1.93 1.97 1.99 2.01 1.98 1.92 2.02 2.06 2.01 1.94 1.94 1.93 1.89 1.86 1.77 1.70 1.71 1.75 1.75 1.76 1.80 1.83 1.85